[[{"header":{"parameterUnit":"m.s-1","parameterCategory":1,"la1":30.6,"la2":29.2853,"lo1":-89.7004,"lo2":-87.6739,"dy":0.0162,"dx":0.0183,"nx":112,"ny":82,"refTime":"2026-04-19T00:00:00:Z","depth":0,"parameterNumber":2,"parameterNumberName":"U-component_of_WINDS"},"data":[0.0,0.0,0.0,0.0,0.0,0.0,0.0,0.0,0.0,0.0,0.0,0.0,0.0,0.0,0.0,0.0,0.0,0.0,0.0,0.0,0.0,0.0,0.0,0.0,0.0,0.0,0.0,0.0,0.0,0.0,0.0,0.0,0.0,0.0,0.0,0.0,0.0,0.0,0.0,0.0,0.0,0.0,0.0,0.0,0.0,0.0,0.0,0.0,0.0,0.0,0.0,0.0,0.0,0.0,0.0,0.0,0.0,0.0,0.0,0.0,0.0,0.0,0.0,0.0,0.0,0.0,0.0,0.0,0.0,0.0,0.0,0.0,0.0,0.0,0.0,0.0,0.0,0.0,0.0,0.0,0.0,0.0,0.0,0.0,0.0,0.0,0.0,0.0,0.0,0.0,0.0,3.0193,3.3425,3.5519,3.5519,3.4771,3.2945,2.9582,0.0,0.0,0.0,0.0,0.0,0.0,0.0,0.0,0.0,0.0,0.0,0.0,0.0,0.0,0.0,0.0,0.0,0.0,0.0,0.0,0.0,0.0,0.0,0.0,0.0,0.0,0.0,0.0,0.0,0.0,0.0,0.0,0.0,0.0,0.0,0.0,0.0,0.0,0.0,0.0,0.0,0.0,0.0,0.0,0.0,0.0,0.0,0.0,0.0,0.0,0.0,0.0,0.0,0.0,0.0,0.0,0.0,0.0,0.0,0.0,0.0,0.0,0.0,0.0,0.0,0.0,0.0,0.0,0.0,0.0,0.0,0.0,0.0,0.0,0.0,0.0,0.0,0.0,0.0,0.0,0.0,0.0,0.0,0.0,0.0,0.0,0.0,0.0,0.0,0.0,0.0,0.0,0.0,0.0,0.0,0.0,0.0,0.0,0.0,0.0,0.0,0.0,0.0,0.0,2.8637,3.3245,3.4801,3.5519,3.5519,3.4352,3.2643,3.0299,0.0,0.0,0.0,0.0,0.0,0.0,0.0,0.0,0.0,0.0,0.0,0.0,0.0,0.0,0.0,0.0,0.0,0.0,0.0,0.0,0.0,0.0,0.0,0.0,0.0,0.0,0.0,0.0,0.0,0.0,0.0,0.0,0.0,0.0,0.0,0.0,0.0,0.0,0.0,0.0,0.0,0.0,0.0,0.0,0.0,0.0,0.0,0.0,0.0,0.0,0.0,0.0,0.0,0.0,0.0,0.0,0.0,0.0,0.0,0.0,0.0,0.0,0.0,0.0,0.0,0.0,0.0,0.0,0.0,0.0,0.0,0.0,0.0,0.0,0.0,0.0,0.0,0.0,0.0,0.0,0.0,0.0,0.0,0.0,0.0,0.0,0.0,0.0,0.0,0.0,0.0,0.0,0.0,0.0,0.0,0.0,0.0,0.0,0.0,0.0,0.0,0.0,0.0,2.75,2.9953,3.4532,3.531,3.5519,3.5519,3.4262,3.2432,2.9879,2.8233,0.0,0.0,0.0,0.0,0.0,0.0,0.0,0.0,0.0,0.0,0.0,0.0,0.0,0.0,0.0,0.0,0.0,0.0,0.0,0.0,0.0,0.0,0.0,0.0,0.0,0.0,0.0,0.0,0.0,0.0,0.0,0.0,0.0,0.0,0.0,0.0,0.0,0.0,0.0,0.0,0.0,0.0,0.0,0.0,0.0,0.0,0.0,0.0,0.0,0.0,0.0,0.0,0.0,0.0,0.0,0.0,0.0,0.0,0.0,0.0,0.0,0.0,0.0,0.0,0.0,0.0,0.0,0.0,0.0,0.0,0.0,0.0,0.0,0.0,0.0,0.0,0.0,0.0,0.0,0.0,0.0,0.0,0.0,0.0,0.0,0.0,0.0,0.0,0.0,0.0,0.0,0.0,0.0,0.0,0.0,0.0,0.0,0.0,0.0,0.0,0.0,0.0,3.0223,3.1779,3.516,3.5519,3.5519,3.5519,3.3967,3.197,2.952,2.7507,0.0,0.0,0.0,0.0,0.0,0.0,0.0,0.0,0.0,0.0,0.0,0.0,0.0,0.0,0.0,0.0,0.0,0.0,0.0,0.0,0.0,0.0,0.0,0.0,0.0,0.0,0.0,0.0,0.0,0.0,0.0,0.0,0.0,0.0,0.0,0.0,0.0,0.0,0.0,0.0,0.0,0.0,0.0,0.0,0.0,0.0,0.0,0.0,0.0,0.0,0.0,0.0,0.0,0.0,0.0,0.0,0.0,0.0,0.0,0.0,0.0,0.0,0.0,0.0,0.0,0.0,0.0,0.0,0.0,0.0,0.0,0.0,0.0,0.0,0.0,0.0,0.0,0.0,0.0,0.0,0.0,0.0,0.0,0.0,0.0,0.0,0.0,0.0,0.0,0.0,0.0,0.0,0.0,0.0,0.0,0.0,0.0,0.0,0.0,0.0,0.0,0.0,3.0971,3.3814,3.534,3.5519,3.5519,3.5519,3.297,3.0988,2.9988,2.6663,0.0,0.0,0.0,0.0,0.0,0.0,0.0,0.0,0.0,0.0,0.0,0.0,0.0,0.0,0.0,0.0,0.0,0.0,0.0,0.0,0.0,0.0,0.0,0.0,0.0,0.0,0.0,0.0,0.0,0.0,0.0,0.0,0.0,0.0,0.0,0.0,0.0,0.0,0.0,0.0,0.0,0.0,0.0,0.0,0.0,0.0,0.0,0.0,0.0,0.0,0.0,0.0,0.0,0.0,0.0,0.0,0.0,0.0,0.0,0.0,0.0,0.0,0.0,0.0,0.0,0.0,0.0,0.0,0.0,0.0,0.0,0.0,0.0,0.0,0.0,0.0,0.0,0.0,0.0,0.0,0.0,0.0,0.0,0.0,0.0,0.0,0.0,0.0,0.0,0.0,0.0,0.0,0.0,0.0,0.0,0.0,0.0,0.0,0.0,0.0,0.0,0.0,2.9953,3.2617,0.0,3.5519,3.5519,3.5519,3.412,3.2137,2.9501,0.0,0.0,0.0,0.0,0.0,0.0,0.0,0.0,0.0,0.0,0.0,0.0,0.0,0.0,0.0,0.0,0.0,0.0,0.0,0.0,0.0,0.0,0.0,0.0,0.0,0.0,0.0,0.0,0.0,0.0,0.0,0.0,0.0,0.0,0.0,0.0,0.0,0.0,0.0,0.0,0.0,0.0,0.0,0.0,0.0,0.0,0.0,0.0,0.0,0.0,0.0,0.0,0.0,0.0,0.0,0.0,0.0,0.0,0.0,0.0,0.0,0.0,0.0,0.0,0.0,0.0,0.0,0.0,0.0,0.0,0.0,0.0,0.0,0.0,0.0,0.0,0.0,0.0,0.0,0.0,0.0,0.0,0.0,0.0,0.0,0.0,0.0,0.0,0.0,0.0,0.0,0.0,0.0,0.0,0.0,0.0,0.0,0.0,0.0,0.0,0.0,0.0,2.71,2.9834,3.2557,0.0,3.5639,3.5709,3.6148,3.4513,3.2191,2.9264,0.0,0.0,0.0,0.0,0.0,0.0,0.0,0.0,0.0,0.0,0.0,0.0,0.0,0.0,0.0,0.0,0.0,0.0,0.0,0.0,0.0,0.0,0.0,0.0,0.0,0.0,0.0,0.0,0.0,0.0,0.0,0.0,0.0,0.0,0.0,0.0,0.0,0.0,0.0,0.0,0.0,0.0,0.0,0.0,0.0,0.0,0.0,0.0,0.0,0.0,0.0,0.0,0.0,0.0,0.0,0.0,0.0,0.0,0.0,0.0,0.0,0.0,0.0,0.0,0.0,0.0,0.0,0.0,0.0,0.0,0.0,0.0,0.0,0.0,0.0,0.0,0.0,0.0,0.0,0.0,0.0,0.0,0.0,0.0,0.0,0.0,0.0,0.0,0.0,0.0,0.0,0.0,0.0,0.0,0.0,0.0,0.0,0.0,0.0,0.0,0.0,0.0,2.723,3.1031,3.4262,3.6267,3.5908,3.6054,3.7434,3.3675,3.068,0.0,0.0,0.0,0.0,0.0,0.0,0.0,0.0,0.0,0.0,0.0,0.0,0.0,0.0,0.0,0.0,0.0,0.0,0.0,0.0,0.0,0.0,0.0,0.0,0.0,0.0,0.0,0.0,0.0,0.0,0.0,0.0,0.0,0.0,0.0,0.0,0.0,0.0,0.0,0.0,0.0,0.0,0.0,0.0,0.0,0.0,0.0,0.0,0.0,0.0,0.0,0.0,0.0,0.0,0.0,0.0,0.0,0.0,0.0,0.0,0.0,0.0,0.0,0.0,0.0,0.0,0.0,0.0,0.0,0.0,0.0,0.0,0.0,0.0,0.0,0.0,0.0,0.0,0.0,0.0,0.0,0.0,0.0,0.0,0.0,0.0,0.0,0.0,0.0,0.0,0.0,0.0,0.0,0.0,0.0,0.0,0.0,0.0,0.0,0.0,0.0,0.0,0.0,2.723,3.145,3.4771,3.6327,3.6297,3.64,3.6814,3.439,3.1619,2.8762,0.0,0.0,0.0,0.0,0.0,0.0,0.0,0.0,0.0,0.0,0.0,0.0,0.0,0.0,0.0,0.0,0.0,0.0,0.0,0.0,0.0,0.0,0.0,0.0,0.0,0.0,0.0,0.0,0.0,0.0,0.0,0.0,0.0,0.0,0.0,0.0,0.0,0.0,0.0,0.0,0.0,0.0,0.0,0.0,0.0,0.0,0.0,0.0,0.0,0.0,0.0,0.0,0.0,0.0,0.0,0.0,0.0,0.0,0.0,0.0,0.0,0.0,0.0,0.0,0.0,0.0,0.0,0.0,0.0,0.0,0.0,0.0,0.0,0.0,0.0,0.0,0.0,0.0,0.0,0.0,0.0,0.0,0.0,0.0,0.0,0.0,0.0,0.0,0.0,0.0,0.0,0.0,0.0,0.0,0.0,0.0,0.0,0.0,0.0,0.0,0.0,0.0,2.728,3.1657,3.51,3.6686,3.6626,3.67,3.7273,3.4973,3.2155,2.9002,0.0,0.0,0.0,0.0,0.0,0.0,0.0,0.0,0.0,0.0,0.0,0.0,0.0,0.0,0.0,0.0,0.0,0.0,0.0,0.0,0.0,0.0,0.0,0.0,0.0,0.0,0.0,0.0,0.0,0.0,0.0,0.0,0.0,0.0,0.0,0.0,0.0,0.0,0.0,0.0,0.0,0.0,0.0,0.0,0.0,0.0,0.0,0.0,0.0,0.0,0.0,0.0,0.0,0.0,0.0,0.0,0.0,0.0,0.0,0.0,0.0,0.0,0.0,0.0,0.0,0.0,0.0,0.0,0.0,0.0,0.0,0.0,0.0,0.0,0.0,0.0,0.0,0.0,0.0,0.0,0.0,0.0,0.0,0.0,0.0,0.0,0.0,0.0,0.0,0.0,0.0,0.0,0.0,0.0,0.0,0.0,0.0,0.0,0.0,0.0,0.0,0.0,2.737,3.1719,3.531,3.7285,3.6918,3.7037,3.8253,3.5266,3.2225,2.9601,0.0,0.0,0.0,0.0,0.0,0.0,0.0,0.0,0.0,0.0,0.0,0.0,0.0,0.0,0.0,0.0,0.0,0.0,0.0,0.0,0.0,0.0,0.0,0.0,0.0,0.0,0.0,0.0,0.0,0.0,0.0,0.0,0.0,0.0,0.0,0.0,0.0,0.0,0.0,0.0,0.0,0.0,0.0,0.0,0.0,0.0,0.0,0.0,0.0,0.0,0.0,0.0,0.0,0.0,0.0,0.0,0.0,0.0,0.0,0.0,3.8003,0.0,0.0,0.0,0.0,0.0,0.0,0.0,0.0,0.0,0.0,0.0,0.0,0.0,0.0,0.0,0.0,0.0,0.0,0.0,0.0,0.0,0.0,0.0,0.0,0.0,0.0,0.0,0.0,0.0,0.0,0.0,0.0,0.0,0.0,0.0,0.0,0.0,0.0,0.0,0.0,0.0,2.809,3.2437,3.6028,3.7973,3.7298,3.6677,3.6582,3.3739,3.0648,2.7739,0.0,0.0,0.0,0.0,0.0,0.0,0.0,0.0,0.0,0.0,0.0,0.0,0.0,0.0,0.0,0.0,0.0,0.0,0.0,0.0,0.0,0.0,0.0,0.0,0.0,0.0,0.0,0.0,0.0,0.0,0.0,0.0,0.0,0.0,0.0,0.0,0.0,0.0,0.0,0.0,0.0,0.0,0.0,0.0,0.0,0.0,0.0,0.0,0.0,0.0,0.0,0.0,0.0,0.0,0.0,0.0,0.0,0.0,0.0,0.0,0.0,3.9815,0.0,0.0,0.0,0.0,0.0,0.0,0.0,0.0,0.0,0.0,0.0,0.0,0.0,0.0,0.0,0.0,0.0,0.0,0.0,0.0,0.0,0.0,0.0,0.0,0.0,0.0,0.0,0.0,0.0,0.0,0.0,0.0,0.0,0.0,0.0,0.0,0.0,0.0,0.0,0.0,2.8027,3.1893,3.5107,3.6764,3.6418,3.5836,3.5289,3.3223,3.076,2.8078,2.5263,0.0,0.0,0.0,0.0,0.0,0.0,0.0,0.0,0.0,0.0,0.0,0.0,0.0,0.0,0.0,0.0,0.0,0.0,0.0,0.0,0.0,0.0,0.0,0.0,0.0,0.0,0.0,0.0,0.0,0.0,0.0,0.0,0.0,0.0,0.0,0.0,0.0,0.0,0.0,0.0,0.0,0.0,0.0,0.0,0.0,0.0,0.0,0.0,0.0,0.0,0.0,0.0,0.0,4.8528,4.8374,4.8647,4.8028,4.815,4.8866,4.6989,4.5626,4.452,0.0,0.0,0.0,0.0,0.0,0.0,0.0,0.0,0.0,0.0,0.0,0.0,0.0,0.0,0.0,0.0,0.0,0.0,0.0,0.0,0.0,0.0,0.0,0.0,0.0,3.6094,3.4234,0.0,0.0,0.0,0.0,0.0,0.0,0.0,0.0,0.0,0.0,0.0,0.0,2.8225,3.1344,3.3928,3.5278,3.526,3.4908,3.4245,3.3016,3.127,2.8861,2.6552,2.4079,0.0,0.0,0.0,0.0,0.0,0.0,0.0,0.0,0.0,0.0,0.0,0.0,0.0,0.0,0.0,0.0,0.0,0.0,0.0,0.0,0.0,0.0,0.0,0.0,0.0,0.0,0.0,0.0,0.0,0.0,0.0,0.0,4.0623,4.02,0.0,0.0,0.0,0.0,0.0,0.0,0.0,0.0,0.0,0.0,0.0,0.0,0.0,0.0,5.0599,5.2356,5.3155,5.2993,5.4629,5.5059,5.4429,5.4317,5.4741,5.5539,5.5233,0.0,4.6114,4.4753,0.0,0.0,0.0,0.0,0.0,0.0,0.0,0.0,0.0,0.0,0.0,0.0,0.0,0.0,0.0,0.0,0.0,0.0,0.0,0.0,0.0,0.0,4.2332,4.061,3.9661,3.8394,0.0,3.2018,2.8517,2.675,2.5466,0.0,0.0,0.0,0.0,0.0,0.0,0.0,3.0168,3.2193,3.4093,3.5908,3.5332,3.4339,3.3249,3.2173,3.0597,2.8359,2.6561,2.4975,2.3624,2.102,0.0,0.0,0.0,0.0,0.0,0.0,0.0,0.0,0.0,0.0,0.0,0.0,0.0,0.0,0.0,0.0,0.0,0.0,0.0,0.0,0.0,0.0,0.0,0.0,0.0,0.0,0.0,0.0,0.0,4.0392,4.3431,4.2124,4.3547,4.3073,0.0,0.0,0.0,0.0,0.0,0.0,0.0,0.0,0.0,5.2356,5.3241,5.4733,5.6928,5.7564,5.764,5.7188,5.7441,5.7069,5.6195,5.5825,5.5839,5.615,5.615,5.4475,5.1486,4.8945,4.5338,4.1357,0.0,0.0,0.0,0.0,3.6918,3.6295,3.781,3.7992,0.0,3.7157,0.0,0.0,0.0,0.0,0.0,0.0,0.0,0.0,0.0,0.0,0.0,4.1362,4.0708,3.9889,3.8882,3.5674,3.2046,0.0,2.7994,2.6733,2.3408,0.0,0.0,0.0,0.0,0.0,3.0066,3.1713,3.3197,3.4297,3.4011,3.3322,3.2191,3.1711,3.0583,2.8674,2.7595,2.6364,2.4958,2.3125,2.1091,0.0,0.0,0.0,0.0,0.0,0.0,0.0,0.0,0.0,0.0,0.0,0.0,0.0,0.0,0.0,0.0,0.0,0.0,0.0,0.0,0.0,0.0,0.0,0.0,0.0,0.0,0.0,0.0,4.3008,4.6201,4.4316,4.6894,4.6897,0.0,0.0,0.0,0.0,0.0,0.0,4.9193,5.1309,5.3951,5.7242,5.8165,5.9574,6.1599,6.1183,6.0591,5.9857,5.8908,5.7938,5.7086,5.6227,5.5938,5.6258,5.5938,5.5909,5.5683,5.2152,4.8597,4.5229,4.3634,4.1942,4.0492,4.1501,4.0895,3.9948,4.2015,4.2364,4.173,4.0819,0.0,3.7989,3.563,0.0,0.0,0.0,0.0,3.7809,4.028,4.0828,4.11,4.224,4.1851,4.1187,4.074,3.8444,3.5295,0.0,3.0614,2.9233,2.5437,0.0,0.0,0.0,0.0,2.8542,3.0403,3.1567,3.2441,3.3018,3.3068,3.2616,3.1486,3.1386,3.0758,2.9252,2.8499,2.7544,2.6289,2.5059,2.3226,2.069,0.0,0.0,0.0,0.0,0.0,0.0,0.0,0.0,0.0,0.0,0.0,0.0,0.0,0.0,0.0,0.0,0.0,0.0,0.0,0.0,0.0,0.0,0.0,0.0,0.0,0.0,0.0,0.0,0.0,4.7009,5.1087,0.0,0.0,0.0,0.0,4.7834,5.04,5.2972,5.5265,5.7716,5.9847,6.1743,6.2551,6.2861,6.2536,6.2088,6.1209,5.9872,5.9371,5.8706,5.7853,5.6678,5.6787,5.7707,5.6678,5.6387,5.6494,5.3483,5.1623,5.0447,4.7336,4.5567,4.4689,4.3088,4.2777,4.3236,4.3253,4.324,4.3329,4.3838,4.1893,3.929,3.9152,3.8226,0.0,0.0,3.9261,4.1625,4.2497,4.3724,4.4802,4.4693,4.413,4.3187,4.1671,3.9471,3.725,0.0,3.3227,3.0979,3.0052,0.0,2.9252,2.9889,2.9857,3.0455,3.228,3.2363,3.2441,3.3018,3.3068,3.2616,3.1486,3.1386,3.0909,2.9804,2.8725,2.8072,2.7971,2.6389,2.4707,2.294,2.0269,0.0,0.0,0.0,0.0,0.0,0.0,0.0,0.0,0.0,0.0,0.0,0.0,0.0,0.0,0.0,0.0,0.0,0.0,0.0,0.0,0.0,0.0,0.0,0.0,0.0,0.0,0.0,0.0,5.1048,5.4511,0.0,0.0,5.2093,5.2779,5.266,5.5063,5.723,5.8857,6.0292,6.1869,6.3641,6.4512,6.501,6.5023,6.5042,6.4115,6.2217,6.1686,6.0695,5.9302,5.8096,5.7549,5.7543,5.7008,5.669,5.6387,5.5501,5.4499,5.3146,5.0322,4.8674,4.7677,4.5841,4.5262,4.5233,4.4728,4.4885,4.5214,4.5005,4.3569,4.1863,4.1444,4.0738,4.0009,3.9961,4.1019,4.2249,4.2439,4.3274,4.3685,4.2773,4.2804,4.2319,4.0224,3.8503,3.6995,3.5456,3.3607,3.1638,2.9762,2.9848,2.9928,2.946,3.0215,3.1233,3.2281,3.2584,3.2842,3.3043,3.3068,3.2616,3.1486,3.1386,3.0783,2.9327,2.885,2.8002,2.6676,2.5822,2.4242,2.1929,2.0289,1.8244,0.0,0.0,0.0,0.0,0.0,0.0,0.0,0.0,0.0,0.0,0.0,0.0,0.0,0.0,0.0,0.0,0.0,0.0,0.0,0.0,0.0,0.0,0.0,0.0,0.0,0.0,5.4703,5.4126,5.755,5.875,5.5705,5.6511,5.7165,5.6966,5.8872,6.0561,6.1878,6.2708,6.3964,6.5833,6.6436,6.6869,6.7072,6.6895,6.5769,6.3766,6.3046,6.1776,6.0038,5.8492,5.7707,5.7687,5.6939,5.6628,5.6612,5.6969,5.6596,5.5477,5.2876,5.1525,5.079,4.8843,4.7824,4.7341,4.6371,4.6142,4.6262,4.5783,4.4885,4.3928,4.3479,4.288,4.2372,4.2372,4.2521,4.2671,4.2671,4.2733,4.2503,4.1647,4.1351,4.0779,3.939,3.7774,3.6307,3.5386,3.3936,3.2375,3.0586,3.0959,3.1135,3.0181,3.1135,3.2014,3.219,3.2717,3.3068,3.3068,3.3068,3.2616,3.1486,3.1235,3.0507,2.9026,2.8077,2.7066,2.566,2.4566,2.3049,2.1083,1.9244,1.719,1.4904,0.0,0.0,0.0,0.0,0.0,0.0,0.0,0.0,0.0,0.0,0.0,0.0,0.0,0.0,0.0,0.0,0.0,0.0,0.0,0.0,0.0,0.0,0.0,4.9356,5.4626,5.7742,5.6126,6.0319,6.205,5.8819,6.0326,6.1286,6.0783,6.1836,6.311,6.4444,6.5238,6.6505,6.8333,6.8436,6.8436,6.8436,6.7379,6.6063,6.4383,6.3287,6.1846,6.0072,5.7786,5.7333,5.8183,5.6389,5.615,5.7179,5.7599,5.7881,5.7673,5.5065,5.4096,5.3869,5.1663,5.0421,4.9603,4.7951,4.692,4.6381,4.6352,4.5903,4.5334,4.5334,4.4855,4.4347,4.4347,4.3868,4.3359,4.3359,4.2467,4.1587,4.1587,4.0266,3.9061,3.9458,3.7428,3.5615,3.6031,3.4511,3.3068,3.3068,3.3068,3.2893,3.2315,3.2717,0.0,3.2315,3.2742,3.3068,3.3043,3.3043,3.2591,3.1461,3.0884,3.0027,2.8875,2.6505,2.511,2.511,2.2775,2.1215,2.0635,1.7081,1.4392,1.2692,0.0,0.0,0.0,0.0,0.0,0.0,0.0,0.0,0.0,0.0,0.0,0.0,0.0,0.0,0.0,0.0,0.0,0.0,0.0,0.0,0.0,0.0,5.4164,5.3972,5.6973,5.9665,6.105,6.3012,6.3897,6.2974,6.3399,6.3761,6.3867,6.4727,6.5714,6.665,6.6916,6.7522,6.8552,6.909,6.9398,6.9502,6.8899,6.7741,6.6035,6.49,6.345,6.166,5.9284,5.8125,5.784,5.5942,5.543,5.6085,5.6501,5.7114,5.7634,5.4829,5.3728,5.3423,5.0728,4.9609,4.9279,4.8325,4.7908,4.7668,4.7189,4.6591,4.6052,4.6052,4.5574,4.5035,4.5035,4.4556,4.4047,4.4047,4.282,4.1587,4.1587,4.0605,3.9298,3.8152,3.7069,3.5884,3.4736,3.3751,3.3068,3.3068,3.3068,3.3018,3.2867,3.2968,0.0,3.2867,3.2993,3.2918,3.2491,3.2441,3.2014,3.0909,2.9647,2.83,2.6895,2.513,2.3587,2.2506,2.0686,1.8962,1.7097,1.5425,1.3849,0.0,0.0,0.0,0.0,0.0,0.0,0.0,0.0,0.0,0.0,0.0,0.0,0.0,0.0,0.0,0.0,0.0,0.0,0.0,0.0,0.0,0.0,5.478,5.8357,5.9281,6.0704,6.2204,6.3666,6.4897,6.5667,6.5667,6.5974,6.6162,6.6122,6.6624,6.7273,6.8106,6.8145,6.8602,6.959,6.9975,7.0123,6.9979,6.9548,6.8323,6.6316,6.543,6.4078,6.2302,5.987,5.8588,0.0,5.6121,5.5439,5.5746,5.5924,5.6348,0.0,0.0,0.0,0.0,0.0,5.0095,4.9583,4.8925,4.8209,4.7435,4.7051,4.6137,4.5138,4.5138,4.4675,4.424,4.4787,4.4062,4.3224,4.3495,4.208,4.0423,4.0173,3.9244,3.8246,3.7368,3.6462,3.5476,3.4735,3.3766,0.0,3.3068,3.3068,3.2993,3.2742,3.2918,3.2993,3.2742,3.2918,3.2943,3.2616,3.2566,3.2047,3.0655,2.9277,0.0,0.0,0.0,2.13,1.895,1.799,0.0,0.0,0.0,0.0,0.0,0.0,0.0,0.0,1.0845,1.0723,0.0,0.0,0.0,0.0,0.0,0.0,0.0,0.0,0.0,0.0,0.0,0.0,0.0,0.0,0.0,0.0,5.8204,6.1012,6.4166,6.4666,6.4743,6.4743,6.6128,6.709,6.709,6.7898,6.8224,6.7897,6.7865,6.8209,6.9088,0.0,0.0,0.0,0.0,7.0593,7.0133,6.9511,6.8044,6.5826,6.5248,6.4078,6.2302,5.987,5.8812,5.869,5.6653,5.5811,5.5875,5.5525,5.5325,5.5368,5.5718,5.5777,5.5312,5.2793,5.109,4.9965,4.9401,0.0,0.0,4.6182,4.5007,4.3586,4.3531,4.3117,4.2888,4.4015,4.2992,4.1716,4.2366,4.0708,3.8727,3.8239,3.7243,3.6489,3.6936,3.5878,3.4894,3.5331,3.4187,3.3144,3.3093,3.3068,3.2893,3.239,3.2742,3.2893,3.2365,3.2767,3.3043,3.2993,0.0,0.0,3.0477,2.9033,2.7346,2.5341,2.1987,1.8702,1.5605,1.553,1.5455,1.5273,1.4455,1.4205,1.4531,1.3691,1.3107,1.2751,1.1325,1.1088,0.0,0.0,0.0,0.0,0.0,0.0,0.0,0.0,0.0,0.0,0.0,0.0,0.0,0.0,0.0,5.728,6.0473,6.3051,6.4397,6.5205,6.5628,6.5628,6.6513,6.709,6.709,6.7898,6.8641,6.925,6.9289,6.9634,7.0441,7.0479,0.0,7.1129,7.057,7.0281,7.0337,6.9256,6.7677,6.5826,0.0,0.0,6.2302,5.987,5.8812,5.869,5.5739,5.5013,5.5782,5.4663,5.3939,5.3409,5.3545,5.2989,5.2124,5.1576,5.0461,4.9291,4.8653,4.7441,4.5984,4.5011,4.4429,4.4042,4.3642,4.3421,0.0,4.3621,4.2989,4.2288,4.1952,4.0404,3.8727,3.8239,3.7243,3.6427,3.6489,3.5941,3.5228,3.492,3.4275,3.3596,3.3144,3.3068,3.3043,3.2918,3.3018,3.3043,3.2918,3.3018,3.2893,3.2441,3.1492,3.0649,2.9867,2.6301,2.3815,2.2952,1.9924,1.7416,1.5899,1.6139,1.583,1.467,1.4514,1.4334,1.4241,1.3991,1.3484,1.2576,1.1468,1.1039,0.0,0.0,0.0,0.0,0.0,0.0,0.0,0.0,0.0,0.0,0.0,4.8933,0.0,0.0,5.7357,6.0319,6.2589,6.4243,6.5128,6.5628,6.5897,6.5897,6.659,6.7282,6.7705,6.8552,6.9398,7.0244,7.0283,7.0475,7.0898,7.0652,7.0532,7.0647,7.003,6.9625,6.9453,6.8825,6.7442,6.5395,6.5125,6.4078,6.2302,5.987,5.8812,5.8632,5.5914,5.5069,5.5408,5.4135,5.2755,5.1528,5.1169,5.0704,5.0191,5.0191,4.9357,4.8082,4.7772,4.656,4.4877,4.3489,4.2267,4.1055,4.0002,4.0058,4.0689,4.1235,4.1301,4.1134,4.1194,3.9849,3.835,3.7784,3.7006,3.6358,3.6358,3.5931,3.5378,3.4826,3.4274,3.3721,3.3169,3.3068,3.3068,3.3068,3.3068,3.3068,3.3068,3.3068,3.2771,3.1761,3.1192,3.0197,2.8701,2.4957,2.1951,2.0093,1.8337,1.6695,1.5514,1.5655,1.5492,1.475,1.4736,1.4669,1.4522,1.4522,1.3963,1.273,1.1693,1.1122,0.0,0.0,0.0,0.0,0.0,0.0,0.0,0.0,4.7201,5.0471,5.1818,5.328,5.6165,5.7973,6.005,6.3051,6.4128,6.4897,6.5782,6.5897,6.5897,6.5897,6.659,6.7359,6.809,6.909,6.9975,7.0629,7.0821,7.0871,7.0748,7.033,7.0061,6.9918,6.9433,6.8891,6.8246,6.8148,6.6938,6.4732,6.4732,6.39,6.2302,5.987,5.8812,5.8632,5.628,5.4988,5.4476,5.3258,5.1619,4.9652,4.8995,4.8638,4.8439,4.8638,4.7909,4.6682,4.6342,4.5076,4.3218,4.1469,3.9623,3.7699,3.6364,3.6662,3.7772,3.8699,3.934,3.9854,4.0317,3.9184,3.7864,3.7312,3.6759,3.6358,3.6358,3.6006,3.5529,3.4977,3.4424,3.3784,3.3059,3.3057,3.3068,3.3068,3.3068,3.3068,3.3068,3.3068,3.2612,3.1311,3.0956,2.9602,2.6656,2.3537,2.0612,1.772,1.7086,1.6352,1.5322,1.5164,1.5137,1.5137,1.5137,1.5137,1.5137,1.5137,1.4475,1.3158,1.2238,1.1549,4.7201,4.5778,0.0,4.7778,4.7894,4.9125,0.0,0.0,5.4126,5.678,5.7934,5.8858,6.0012,6.1012,6.2281,6.4166,6.4551,6.4897,6.5782,6.5897,6.5897,6.5897,6.659,6.7128,6.7244,6.8744,6.9744,6.9821,7.0514,7.0681,7.0195,7.0129,6.9883,6.9433,6.8847,6.8208,6.7369,6.6899,6.5681,6.3863,6.3863,6.3314,6.2302,5.987,5.8812,5.8632,5.628,5.4082,5.2278,5.1657,5.0018,4.8055,4.7549,4.6578,4.5661,4.6888,4.6474,4.5022,4.3701,4.2239,4.0631,3.8527,3.7449,3.6815,3.614,3.6662,3.7559,3.7666,3.8662,3.9572,3.9196,3.8541,3.7864,3.7312,3.6759,3.6358,3.6358,3.6307,3.6107,3.5554,3.5002,3.4065,3.2509,3.2671,3.3068,3.3068,3.3068,3.3068,3.3068,3.3068,3.2612,3.1311,3.0214,2.7471,2.2345,2.0504,1.874,1.6919,1.6522,1.6346,1.6126,1.5872,1.5725,1.5725,1.5725,1.5725,1.5725,1.5725,1.505,1.379,1.3695,1.2792,5.1818,0.0,0.0,0.0,5.3933,5.6126,5.8473,5.8165,5.8011,6.0089,6.0358,6.0358,6.0742,6.1646,6.2623,0.0,6.4054,6.4718,6.5312,6.4996,6.4622,6.4411,6.4666,6.5474,6.6974,6.7744,6.859,6.9629,6.9702,6.9795,7.009,6.9511,6.9064,6.8803,6.7848,6.7103,6.6749,6.5956,6.4968,6.3719,6.3719,6.324,6.2302,5.987,5.7558,5.5409,5.4318,5.2924,5.114,5.0157,4.8858,4.719,4.6249,4.5048,4.4016,4.5342,4.4457,4.2364,4.1663,4.0521,3.8889,3.7025,3.6156,3.5564,3.4198,3.5076,3.653,3.6254,3.7926,3.9647,3.9396,3.8919,3.8366,3.7789,3.7236,3.6759,3.6433,3.6358,3.6207,3.5655,3.4527,3.332,3.2309,3.149,3.0956,3.0956,3.2152,3.2785,3.2064,3.1952,3.0909,2.8179,2.6791,2.4519,2.0623,1.9725,1.8687,1.7082,1.6847,1.6633,1.6286,1.6152,1.6005,1.5832,1.5832,1.5832,1.5832,1.5832,1.514,1.3872,1.3872,1.3469,5.378,0.0,0.0,5.5742,5.855,6.105,6.0627,6.0396,6.0589,6.182,6.1396,6.0858,6.1089,6.1888,0.0,6.2887,6.3626,6.432,6.4524,6.393,6.3282,6.2835,6.2694,6.3435,6.5513,6.6359,6.7359,6.8859,6.887,6.8998,6.9503,6.8908,6.8416,6.8308,6.7064,6.6247,6.6064,6.5101,6.4218,6.3314,6.3314,6.2821,6.1837,5.9434,5.6388,5.2963,5.2963,5.1835,4.9963,4.8873,4.7537,4.6152,4.4869,4.3797,4.3073,4.4126,4.2861,4.0592,4.0129,3.8935,3.7243,3.5683,3.4923,3.4247,3.265,3.3914,3.5692,3.4869,3.6834,3.9025,3.8582,3.8398,3.8187,3.7517,3.7269,3.7036,3.6483,3.6358,3.6232,3.5855,3.423,3.2697,3.1924,3.0468,2.9326,2.8958,3.0687,3.1777,3.0866,3.0078,2.8549,2.5796,2.3709,2.176,1.9731,1.9213,1.8518,1.7378,1.7194,1.6954,1.6526,1.6366,1.6179,1.5952,1.5872,1.5832,1.5832,1.5832,1.5343,1.4459,1.4459,1.4459,0.0,0.0,5.7319,5.8934,6.0704,6.2243,6.3012,6.2589,6.205,6.2089,6.1396,6.105,6.1897,6.2089,6.2465,6.3596,6.3771,6.3682,6.3234,6.2862,6.2353,6.1544,6.1083,6.1243,0.0,6.4474,6.6282,6.7128,6.8181,6.8593,6.8107,6.8346,6.8259,6.7741,6.6852,6.5966,6.5065,6.4183,6.3314,6.2459,6.2459,6.1837,6.0586,5.8145,5.5569,5.2963,5.2963,5.1291,4.8452,4.7404,4.6031,4.4518,4.3526,4.3098,4.2986,4.3073,4.2012,4.0361,3.8817,3.7243,3.556,3.4027,3.325,3.2838,3.2285,3.3914,3.5579,3.3657,3.5266,3.724,3.5836,3.6117,3.6653,3.605,3.6553,3.7036,3.6483,3.6358,3.6358,3.6332,3.4475,3.2512,3.1235,3.0139,2.905,2.7861,2.868,2.9487,2.9487,2.7264,2.5604,2.5508,2.1996,1.9731,1.9627,1.8408,1.7687,1.7569,1.7301,1.7141,1.7128,1.658,1.6273,1.6259,1.5979,1.5832,1.5832,1.5832,1.5737,1.5737,1.5737,1.5737,0.0,0.0,5.9935,6.1589,6.332,6.4551,6.4243,6.3512,6.2743,6.2204,6.0512,5.9242,5.9511,5.9741,6.0094,6.0724,6.192,6.2743,6.266,6.2478,6.162,5.9517,6.0096,0.0,0.0,0.0,0.0,6.6167,6.602,6.6447,6.7917,6.7496,6.7325,6.765,6.6271,6.5361,6.4999,6.3574,6.2279,6.1235,6.0417,5.9346,5.8145,5.6326,5.4009,5.1372,5.0407,4.8638,4.6473,4.5706,4.4852,4.4016,4.3263,4.2986,4.2849,4.1785,4.0361,3.8935,3.8342,3.7122,3.556,3.3902,3.332,3.3086,3.2383,3.3432,3.4624,3.3401,3.4515,3.5945,3.5398,3.5482,3.581,3.5812,3.5992,3.6332,3.6343,3.6358,3.6358,3.6358,3.3815,3.1567,3.1067,2.8742,2.6839,2.638,2.7389,2.7913,2.6981,2.5373,2.3628,2.1795,2.042,1.9213,1.8304,1.7884,1.7582,1.7582,1.7488,1.7355,1.7257,1.6954,1.626,1.4974,1.5778,1.5634,1.4555,1.5439,1.5832,1.5832,1.5832,1.5343,0.0,6.0435,6.182,6.4089,6.5282,6.5667,6.4782,6.3935,6.2897,6.1473,5.9396,5.7665,5.7049,5.6792,5.7025,5.8185,5.9625,6.0827,6.1582,6.1521,6.0659,5.8577,5.9135,5.9534,0.0,0.0,0.0,6.4945,6.4879,6.5498,6.7217,6.679,6.6736,6.7193,6.5806,6.4866,6.4564,6.2676,6.1119,5.9957,5.8722,5.7465,5.6194,5.4749,5.255,4.982,4.8752,4.7134,4.5422,4.4644,4.4116,4.374,4.3187,4.2986,4.2849,4.1785,4.0476,3.8935,3.7723,3.6295,3.4736,3.3776,3.3418,3.3262,3.2422,3.3195,3.4135,3.2683,3.3417,3.4403,3.3866,3.409,3.4494,3.4351,3.4647,3.5113,3.4968,3.5355,3.5571,3.5041,3.2975,3.1099,3.0414,2.7723,2.5528,2.502,2.5664,2.5915,2.4985,2.3331,2.1558,1.9834,1.9213,1.8499,1.7687,1.7582,1.7582,1.7582,1.7582,1.7279,1.6561,1.6458,1.5614,1.3825,1.5059,1.5084,1.4013,1.5294,1.5939,1.5832,1.5343,1.4651,6.132,6.2281,6.3128,6.632,6.6474,6.559,6.4743,6.3782,6.2397,5.9819,5.7896,5.6126,0.0,0.0,5.3503,5.6111,5.7155,5.8252,6.0147,6.0182,5.9669,0.0,0.0,0.0,0.0,0.0,0.0,6.3448,0.0,6.5523,6.5858,6.6197,6.6354,6.6235,6.5326,6.446,6.3612,6.1508,5.987,5.8722,5.7434,5.6097,5.466,5.3402,5.1181,4.8452,4.781,4.6772,4.5321,4.4242,4.379,4.3714,4.3187,4.2986,4.2986,4.2874,4.1899,3.9989,3.6881,3.486,3.3544,3.3418,3.3418,3.3262,3.2422,3.3195,3.3803,3.1582,3.1883,3.2644,3.1228,3.1977,3.2734,3.1793,3.2641,3.3436,3.2555,3.3353,3.3871,3.2532,3.1928,3.1042,2.9183,2.7039,2.5118,2.3899,2.3583,2.3484,2.3484,2.1253,1.9524,1.9524,1.8408,1.7582,1.7582,1.7582,1.7582,1.7582,1.7582,1.6935,1.5411,1.5188,1.4316,1.272,1.3865,1.4341,1.3888,1.549,1.6042,1.5655,1.4484,1.3884,6.3561,6.4999,6.6051,6.7077,6.6115,6.4705,6.382,6.2012,5.9742,5.7203,5.4318,5.1587,0.0,0.0,0.0,5.2912,5.6319,0.0,6.0267,6.0856,0.0,0.0,0.0,6.0462,5.9804,6.0893,0.0,0.0,6.2066,6.2842,6.4132,6.4439,6.4577,6.4536,6.3379,6.2597,6.2327,5.9447,5.7807,5.7434,5.517,5.3847,5.3402,5.0823,4.8953,4.7898,4.6643,4.5345,4.4217,4.3915,4.3564,4.3162,4.3037,4.2986,4.2849,4.1672,4.0245,3.858,3.6517,3.556,3.4964,3.3776,3.3418,3.3262,3.2422,3.2512,3.2435,3.125,3.1228,3.1325,3.0995,3.1228,3.1431,3.1594,3.1909,3.2169,3.225,3.2532,3.2733,3.2331,3.0865,2.9183,2.7381,2.5443,2.4097,2.3782,2.1963,2.0641,2.0641,2.004,1.9213,1.8199,1.7793,1.7582,1.7582,1.7582,1.7582,1.7582,1.7582,1.6935,1.5411,1.5352,1.406,1.146,1.267,1.2635,1.1392,1.3735,1.4823,1.457,1.4264,1.3573,6.6371,6.7154,6.7359,6.7847,6.6307,6.4051,6.1666,5.9704,5.7165,5.2741,5.0048,0.0,0.0,0.0,0.0,0.0,0.0,0.0,5.9632,6.0566,6.086,0.0,6.1043,0.0,6.07,6.1485,6.1882,0.0,6.1555,6.1948,6.2693,6.2355,6.2152,6.2092,6.1189,6.0388,5.9749,5.7308,5.5804,5.517,5.2982,5.1478,5.0573,4.8932,4.7503,4.6295,0.0,4.4392,4.379,4.3539,4.3263,4.2986,4.2986,4.2986,4.2849,4.2012,4.0245,3.8104,3.7144,3.5928,3.4612,3.365,3.3418,3.3262,3.2422,3.2168,3.1992,3.1133,3.0898,3.0898,3.0898,3.0898,3.0895,3.0752,3.073,3.0704,3.0621,3.103,3.1418,3.1418,2.9674,2.7583,2.6053,2.4583,2.3285,2.2064,2.0538,1.942,1.8812,1.8708,1.8394,1.7687,1.7582,1.7582,1.7582,1.7041,1.6605,1.6605,1.6605,1.5743,1.3588,1.4126,1.3096,1.0093,1.1379,1.1602,1.0565,1.2749,1.3663,1.3323,1.2809,1.2143,6.904,6.8744,6.7705,6.8385,6.65,6.3358,5.9127,5.7126,5.4339,4.774,0.0,4.397,4.1431,4.3101,4.5483,4.7523,0.0,5.5843,5.8731,5.9816,6.0662,6.1484,6.1618,6.1592,6.1592,6.1506,6.1402,6.1307,6.1571,6.1512,6.1094,6.0244,5.9487,5.8886,5.8347,5.7324,5.598,5.468,5.3466,5.2492,5.093,4.9331,4.7555,4.7328,4.6243,4.4493,4.4016,0.0,4.3639,4.2937,4.2737,4.2625,4.2488,4.2375,4.2375,4.2375,4.0476,3.7865,3.7865,3.5949,3.3418,3.3418,3.3379,3.3184,3.2402,3.2129,3.1914,3.1113,3.0898,3.0898,3.0898,3.0898,3.0664,2.9785,2.957,2.9336,2.8476,2.9197,3.0016,3.0016,2.8284,2.6378,2.5185,2.4003,2.2366,1.9937,1.942,1.8916,1.7793,1.7582,1.7582,1.7582,1.7582,1.7582,1.7582,1.6393,1.5743,1.5743,1.553,1.4234,1.1538,1.2408,1.1755,0.894,1.0131,1.0707,1.0444,1.1921,1.2451,1.2132,1.0993,1.0464,6.9502,6.909,6.8167,6.7833,6.5257,6.1796,5.8187,5.4554,0.0,0.0,0.0,3.9623,3.7084,4.0361,0.0,4.6212,0.0,0.0,0.0,0.0,6.0374,0.0,0.0,0.0,0.0,0.0,0.0,0.0,0.0,5.8324,5.818,5.8583,5.7397,5.4237,5.2954,5.1725,5.0464,5.0255,4.9967,4.9811,4.8299,4.7389,4.6948,4.5757,4.4673,4.394,4.384,0.0,4.3,4.1582,4.1076,4.0822,3.9522,3.9053,3.9053,3.9053,3.7843,3.6173,3.6173,3.4964,3.3418,3.3418,3.3184,3.2812,3.2324,3.1914,3.1523,3.1035,3.0898,3.0898,3.0898,3.0898,3.0664,2.9785,2.957,2.9336,2.8476,2.8495,2.8601,2.8601,2.6807,2.5289,2.5081,2.2345,2.0143,1.9627,1.8708,1.7884,1.7582,1.7582,1.7582,1.7582,1.7582,1.7582,1.7582,1.7358,1.7252,1.7252,1.6062,1.4663,1.294,1.1973,1.0672,0.894,0.9154,0.9251,0.9223,1.0623,1.128,1.0992,1.0886,1.0695,6.9129,6.8948,6.841,6.7282,6.4425,6.0501,5.5117,0.0,0.0,0.0,3.7815,3.6122,3.4468,0.0,0.0,0.0,0.0,0.0,0.0,0.0,0.0,0.0,0.0,0.0,0.0,0.0,0.0,0.0,0.0,5.7291,5.6838,5.5377,5.3299,5.0514,4.9734,4.9342,4.9052,4.83,4.8002,4.8002,4.6481,4.5562,4.5278,4.451,4.389,4.3363,4.3363,0.0,4.1672,4.0937,4.0129,3.9288,3.8461,3.8223,3.8223,3.8223,3.7122,3.5806,3.5806,3.4573,3.3105,3.3105,3.2969,3.2676,3.2031,3.168,3.1426,3.1016,3.0898,3.0898,3.0898,3.0898,3.0664,2.9785,2.9219,2.8789,2.8379,2.8301,2.8067,2.7276,2.5945,2.4542,2.3051,2.0992,1.9317,1.8708,1.7989,1.7582,1.7582,1.7582,1.7582,1.7582,1.7582,1.7582,1.7582,1.6935,1.6168,1.5423,1.4663,1.3372,1.1109,1.1109,1.046,0.894,0.894,0.894,0.894,0.9588,0.9874,0.9798,0.9791,0.9761,6.8513,6.8602,6.8205,6.6506,6.3662,5.9378,5.2308,4.7893,0.0,0.0,3.4391,3.3468,3.2776,0.0,0.0,0.0,0.0,0.0,0.0,0.0,0.0,0.0,0.0,0.0,0.0,0.0,0.0,0.0,0.0,0.0,5.5118,5.1577,4.8894,4.7471,4.7183,4.7322,4.7811,4.6641,4.6114,4.6003,4.4814,4.4041,4.3639,4.3639,4.3388,4.2986,4.2986,0.0,0.0,4.0245,3.917,3.7626,3.7265,3.7144,3.7144,3.7144,3.6417,3.5314,3.5211,3.4144,3.2773,3.2578,3.2519,3.2402,3.1719,3.1445,3.1309,3.0976,3.0898,3.0898,3.0898,3.0898,3.0664,2.9785,2.8906,2.8174,2.7941,2.7833,2.7384,2.5936,2.4755,2.3368,2.114,1.9849,1.8812,1.7793,1.7582,1.7582,1.7582,1.7582,1.7582,1.7582,1.7582,1.7582,1.7582,1.6287,1.4877,1.3804,1.3156,1.1755,0.9485,1.0131,1.0131,0.894,0.894,0.894,0.894,0.894,0.894,0.894,0.8947,0.8843,6.8013,6.8013,6.7176,6.5613,6.2762,5.8528,5.1561,0.0,0.0,3.5624,3.3045,3.1929,3.1814,3.3391,3.5859,3.9605,0.0,0.0,0.0,0.0,0.0,0.0,0.0,0.0,0.0,0.0,0.0,0.0,0.0,0.0,5.1272,4.764,4.5449,4.5315,4.4094,4.3482,4.3559,4.3447,4.3336,4.3336,4.3224,4.3112,4.3062,4.3062,4.3037,4.2986,4.2986,0.0,0.0,3.9053,3.7484,3.5928,3.4383,3.3776,3.3776,3.3776,3.3776,3.3611,3.3218,3.2936,3.2676,3.1894,3.1641,3.1621,3.1543,3.125,3.0937,3.0898,3.0898,3.0898,3.0898,3.0898,3.0664,2.9785,2.8906,2.796,2.6608,2.6264,2.5827,2.4267,2.248,2.1032,2.0708,1.912,1.7793,1.7582,1.7582,1.7582,1.7582,1.7582,1.7582,1.7582,1.7582,1.7582,1.7582,1.6287,1.5304,1.5198,1.2724,1.1219,1.0891,0.9699,0.9044,0.894,0.894,0.894,0.894,0.894,0.894,0.894,0.885,0.8863,6.4859,6.568,6.5649,6.3953,6.0744,5.6475,5.0478,0.0,3.9689,3.4507,3.2083,3.0929,3.0929,3.1891,3.367,3.6608,3.7946,4.0539,0.0,0.0,0.0,0.0,0.0,0.0,0.0,0.0,0.0,0.0,0.0,0.0,4.7364,4.5818,4.4643,4.3797,4.3295,4.2986,4.2986,4.2986,4.2986,4.2986,4.2986,4.2986,4.2986,4.2986,4.2986,4.2986,4.2986,0.0,0.0,3.8817,3.7243,3.5662,3.3729,3.3047,3.3008,3.2754,3.2676,3.2637,3.248,3.2246,3.1973,3.1621,3.1348,3.1133,3.1133,3.1016,3.0898,3.0898,3.0898,3.0898,3.0898,3.0488,2.9941,2.9316,2.8038,2.6825,2.6264,2.5371,2.4028,2.1511,2.0796,1.9823,1.7043,1.6404,1.5956,1.5102,1.4984,1.5316,1.6168,1.6287,1.6605,1.7477,1.7582,1.7582,1.7582,1.6287,1.5091,1.4234,1.2191,1.0672,0.9809,0.9265,0.894,0.894,0.894,0.894,0.894,0.894,0.8947,0.885,0.8856,0.887,6.2435,6.3795,6.4239,6.2486,5.9264,5.5009,0.0,4.3718,3.8299,3.384,3.1507,3.033,3.0379,3.0804,3.1881,3.4182,3.4927,3.7137,4.2686,0.0,0.0,0.0,0.0,0.0,0.0,0.0,0.0,0.0,0.0,0.0,0.0,4.4121,4.3682,4.2961,4.2986,4.2986,4.2986,4.2986,4.2986,4.2986,4.2986,4.2986,4.2986,4.2986,4.2986,4.2961,4.2339,0.0,0.0,3.796,3.647,3.5244,3.3311,3.2598,3.2578,3.2285,3.2168,3.2148,3.2012,3.1777,3.1504,3.1367,3.1133,3.0898,3.0898,3.0898,3.0898,3.0898,3.0801,3.0684,3.0684,2.9679,2.8611,2.8306,2.6793,2.5261,2.482,2.3933,2.2204,1.9118,1.8942,1.8247,1.4505,1.4396,1.4449,1.348,1.3264,1.3804,1.5198,1.5411,1.5956,1.7477,1.7252,1.6935,1.6935,1.5636,1.4126,1.2724,1.1319,1.0021,0.894,0.894,0.894,0.894,0.894,0.894,0.894,0.8947,0.885,0.8863,0.887,0.7979,6.1396,6.2844,6.3207,6.1475,5.8608,5.4616,4.8508,4.3173,3.8246,3.3789,3.1377,3.0109,3.0355,3.0022,3.0507,3.2937,3.4479,3.7007,4.1658,0.0,0.0,0.0,0.0,0.0,0.0,0.0,0.0,0.0,0.0,0.0,0.0,4.2051,4.1856,4.2936,4.2986,4.2986,4.2986,4.2986,4.2986,4.2986,4.2986,4.2986,4.2986,4.2986,4.2986,0.0,0.0,0.0,0.0,3.602,3.4442,3.4226,3.2754,3.2168,3.2168,3.2168,3.2168,3.2109,3.168,3.1523,3.1445,3.1035,3.0898,3.0898,3.0898,3.0898,3.0898,3.0898,3.0566,3.0195,3.0195,2.8521,2.6788,2.677,2.5224,2.3375,2.1911,2.1586,2.0672,1.7412,1.6476,1.577,1.3971,1.3525,1.3264,1.3264,1.3264,1.3804,1.5198,1.5411,1.5956,1.7477,1.6287,1.5411,1.5411,1.4126,1.2724,1.1219,0.9699,0.894,0.894,0.894,0.894,0.894,0.894,0.894,0.894,0.885,0.8863,0.8863,0.8897,0.573,5.3626,5.5049,5.5511,5.4381,5.2099,4.8926,4.441,4.0367,3.638,3.2406,3.0658,2.9813,2.9915,2.978,3.081,3.4195,3.5082,0.0,0.0,0.0,0.0,0.0,0.0,0.0,0.0,0.0,0.0,0.0,0.0,0.0,0.0,4.1544,4.1505,4.1856,4.1856,4.2032,4.2409,4.1359,4.1359,4.2409,4.032,4.0242,4.1747,3.9746,3.9386,0.0,0.0,0.0,0.0,3.5867,3.5125,3.5685,3.2852,3.1719,3.1699,3.1406,3.1289,3.1269,3.1133,3.1094,3.1074,3.0937,3.0898,3.0898,3.0898,3.0898,3.082,3.0508,3.0312,2.9831,2.8202,2.7306,2.6363,2.5078,2.3456,2.1896,2.0273,1.9137,1.745,1.4169,1.4073,1.3851,1.1077,1.1228,1.1428,1.046,1.0241,1.1219,1.3696,1.3048,1.3372,1.5849,1.477,1.4341,1.5304,1.3156,1.1647,1.1109,0.9699,0.894,0.894,0.894,0.8947,0.885,0.885,0.8856,0.8876,0.8883,0.889,0.8785,0.4711,0.1794,4.8356,5.0644,5.1355,5.0143,4.8144,4.5496,4.1548,3.8171,3.4943,3.1692,3.0226,2.9607,2.9697,2.942,3.0188,3.3125,3.4178,0.0,0.0,0.0,0.0,0.0,0.0,0.0,0.0,0.0,0.0,0.0,0.0,0.0,0.0,4.0727,4.0727,4.0727,4.1128,4.1505,4.1856,4.0906,4.0574,4.1016,3.9071,3.8657,3.9599,3.7745,3.7406,0.0,0.0,0.0,0.0,3.4465,3.4033,3.5027,3.2387,3.1269,3.125,3.0996,3.0898,3.0898,3.0898,3.0898,3.0898,3.0898,3.0762,3.0625,3.0625,3.0625,3.0566,3.0273,2.9601,2.8559,2.7121,2.5751,2.4328,2.2492,2.0972,1.9381,1.7848,1.6704,1.5215,1.2463,1.2542,1.2257,0.9553,0.9765,0.9911,0.9044,0.894,0.9809,1.2191,1.1647,1.1973,1.4341,1.3372,1.295,1.3943,1.22,1.0899,1.0366,0.9389,0.8843,0.8856,0.8856,0.8863,0.8876,0.7844,0.7282,0.7293,0.8326,0.7762,0.5502,0.1682,-0.0,0.0,4.8318,4.924,4.7587,4.5802,4.3385,3.9318,3.6312,0.0,3.1261,2.9926,2.9322,2.9663,2.8964,2.893,3.0791,3.2507,0.0,0.0,0.0,0.0,0.0,0.0,0.0,0.0,0.0,0.0,0.0,0.0,0.0,0.0,3.9697,3.9697,3.9697,4.0701,4.1229,4.1279,4.1064,4.0365,3.9196,3.8729,3.8013,3.6952,3.661,3.6496,0.0,0.0,0.0,0.0,3.2391,3.1883,3.2964,3.1441,3.0898,3.0898,3.0898,3.0898,3.0898,3.0898,3.0898,3.0879,3.0859,3.0547,3.0195,3.0042,3.0023,3.0023,3.0003,2.8258,2.6547,2.627,2.3844,2.0987,1.9225,1.7861,1.6374,1.4837,1.447,1.3858,1.1966,1.1659,1.1086,0.9203,0.894,0.894,0.9044,0.894,0.9478,1.1,1.1109,1.1538,1.294,1.1864,1.1135,1.1507,1.1135,1.0359,0.8974,0.8745,0.8641,0.8549,0.8555,0.8667,0.8897,0.5824,0.4136,0.4136,0.6964,0.539,-0.0,-0.0,-0.0,3.635,0.0,3.9203,3.8175,3.7585,3.6576,0.0,3.2575,3.1046,2.8989,0.0,2.7843,2.9732,2.8651,2.9315,3.4963,0.0,0.0,0.0,0.0,0.0,0.0,0.0,0.0,0.0,0.0,0.0,0.0,0.0,0.0,0.0,3.9697,3.9697,3.9697,3.9948,4.0275,4.0701,3.8319,3.8209,4.0145,3.5505,3.4739,3.727,3.3848,3.2954,0.0,0.0,0.0,3.3791,3.2913,3.2758,3.2964,3.1441,3.0898,3.0898,3.0898,3.0898,3.0898,3.0898,3.0898,3.084,3.0469,3.0293,2.9889,2.8406,2.7952,2.7897,2.7602,2.6335,2.4398,2.1675,2.0415,1.911,1.634,1.5419,1.4718,1.3168,1.2693,1.2047,1.0338,0.9853,0.9596,0.8967,0.894,0.9265,1.046,0.9588,0.9809,1.2398,1.0781,1.0021,1.1428,1.0257,0.9514,0.9521,0.9514,0.93,0.8883,0.6831,0.5481,0.5485,0.5485,0.6619,0.891,0.3698,0.1008,0.1008,0.1793,0.1346,-0.0,-0.0,-0.0,3.1437,3.4054,3.6521,3.5531,3.5322,3.4846,3.2842,3.1102,0.0,0.0,0.0,2.7677,2.9329,2.9057,0.0,0.0,0.0,0.0,0.0,0.0,0.0,0.0,0.0,0.0,0.0,0.0,0.0,0.0,0.0,0.0,0.0,3.9697,3.9697,3.9697,3.9025,3.9173,4.0124,3.7797,3.7123,3.8036,3.4118,3.2986,3.4403,3.1998,3.1325,0.0,0.0,0.0,3.2092,3.2092,3.2092,3.1977,3.1228,3.0898,3.0898,3.0898,3.0898,3.0898,3.0898,3.0762,3.0508,3.0059,2.9315,2.8408,2.7377,2.5918,2.4855,2.5518,2.3991,2.1621,1.9713,1.8184,1.6446,1.4113,1.3526,1.3048,1.1495,1.1009,1.0605,0.9641,0.9259,0.9328,0.9839,0.9911,1.0131,1.1,1.046,1.0241,1.121,0.9919,0.9161,1.0036,0.9404,0.887,0.8883,0.8883,0.889,0.8903,0.7416,0.5266,0.2573,0.2461,0.3136,0.4826,0.1681,-0.0,-0.0,-0.0,-0.0,-0.0,-0.0,-0.0,2.9269,3.3135,3.6749,3.5241,3.5066,3.4797,3.2844,0.0,0.0,0.0,0.0,0.0,0.0,0.0,0.0,0.0,0.0,0.0,0.0,0.0,0.0,0.0,0.0,0.0,0.0,0.0,0.0,0.0,0.0,0.0,0.0,3.8778,3.8778,3.8778,3.7661,3.7556,3.8778,3.7488,3.6271,3.5288,3.3529,3.2207,3.1228,3.0995,3.0859,3.0781,0.0,0.0,3.0684,3.0915,3.0915,3.0684,3.0684,3.0684,3.0684,3.0684,3.0684,3.0684,3.0684,3.043,3.0039,2.9366,2.807,2.6659,2.6122,2.3715,2.1502,2.2918,2.1161,1.8764,1.8288,1.6211,1.3885,1.2217,1.1856,1.1487,1.003,0.968,0.953,0.9374,0.9225,0.9525,1.0594,1.0781,1.0891,1.1109,1.0891,1.046,0.9493,0.9051,0.8954,0.8863,0.887,0.8883,0.891,0.8917,0.8457,0.7544,0.7544,0.5278,0.0224,-0.0,-0.0,-0.0,-0.0,-0.0,-0.0,-0.0,-0.0,-0.0,-0.0,-0.0,3.0467,3.2892,3.4039,3.0835,3.1075,3.1666,3.001,0.0,0.0,0.0,0.0,0.0,0.0,0.0,0.0,0.0,0.0,0.0,0.0,0.0,0.0,0.0,0.0,0.0,0.0,0.0,0.0,0.0,0.0,0.0,0.0,3.4854,3.4854,3.4854,3.4644,3.4644,3.4854,3.4098,3.4292,3.5288,3.255,3.1767,3.2758,3.1441,3.0684,3.0407,0.0,3.1299,2.9878,3.1175,3.0953,2.9766,2.9766,2.9766,2.9766,2.9766,2.9766,2.9766,2.9766,2.9726,2.9366,2.7679,2.6936,2.614,2.3214,2.1115,1.9354,1.8389,1.7806,1.6715,1.3984,1.2919,1.2217,1.0536,1.0179,1.0023,0.9666,0.9523,0.9367,0.9218,0.9069,0.8967,0.9161,0.9265,0.9699,1.0891,1.0021,0.9713,1.1169,0.9964,0.8863,0.889,0.8897,0.891,0.891,0.893,0.6761,0.1682,0.1346,0.1009,-0.0,-0.0,-0.0,-0.0,-0.0,-0.0,-0.0,-0.0,-0.0,-0.0,-0.0,-0.0,2.8631,3.0425,3.1787,3.0588,3.2412,3.4101,3.2451,3.0794,0.0,0.0,0.0,0.0,0.0,0.0,0.0,0.0,0.0,0.0,0.0,0.0,0.0,0.0,0.0,0.0,0.0,0.0,0.0,0.0,0.0,0.0,0.0,0.0,3.3997,3.3997,3.3259,3.2855,3.2855,3.1802,3.1899,3.3421,3.1268,3.0497,3.1135,3.0497,3.0059,2.9863,0.0,3.0398,2.9682,3.0309,3.0218,2.957,2.957,2.957,2.957,2.957,2.957,2.9531,2.9297,2.8646,2.7902,2.6792,2.5318,2.3473,2.1016,1.9239,1.7511,1.5053,1.4351,1.4113,1.2569,1.1495,1.0778,0.9943,0.9761,0.9686,0.9625,0.9422,0.9239,0.9164,0.9035,0.9154,0.9911,1.0131,1.0351,1.1,1.0696,1.039,1.0295,0.8054,0.7176,0.8673,0.891,0.7544,0.4375,0.4042,0.2919,0.0224,-0.0,-0.0,-0.0,-0.0,-0.0,-0.0,-0.0,-0.0,-0.0,-0.0,-0.0,-0.0,-0.0,-0.0,2.775,2.8879,3.0344,3.1372,3.3716,3.5606,3.5223,3.3037,0.0,0.0,0.0,0.0,0.0,0.0,0.0,0.0,0.0,0.0,0.0,0.0,0.0,0.0,0.0,0.0,0.0,0.0,0.0,0.0,0.0,0.0,0.0,0.0,3.2718,3.2718,3.1592,3.0967,3.0967,2.9899,3.0018,3.1278,3.0107,2.957,2.957,2.957,2.9512,2.9414,2.9414,2.9355,2.9277,2.9277,2.9277,2.9277,2.9277,2.9277,2.9277,2.9277,2.9036,2.8757,2.843,2.7308,2.5887,2.4778,2.2879,2.0644,1.8764,1.7043,1.53,1.2928,1.1976,1.1615,1.1615,1.0778,0.9815,0.9781,0.9686,0.9591,0.9517,0.932,0.9144,0.911,0.9015,0.9265,1.0351,1.0562,1.057,1.057,1.0932,1.0634,0.9092,0.6948,0.5828,0.6746,0.6862,0.4938,0.0336,-0.0,-0.0,-0.0,-0.0,-0.0,-0.0,-0.0,-0.0,-0.0,-0.0,-0.0,-0.0,-0.0,-0.0,-0.0,-0.0,-0.0,3.0467,3.0378,3.0107,3.1951,3.1882,3.222,3.5603,3.3563,0.0,3.4635,0.0,0.0,0.0,0.0,0.0,0.0,0.0,0.0,0.0,0.0,0.0,0.0,0.0,0.0,0.0,0.0,0.0,0.0,0.0,0.0,0.0,0.0,0.0,2.87,2.8593,2.8593,2.8593,2.8486,2.8898,2.9793,2.9682,2.957,2.957,2.957,2.9355,2.8965,2.8965,2.875,2.8379,2.8379,2.8379,2.8379,2.8379,2.8379,2.8379,2.8379,2.7479,2.6354,2.6318,2.5313,2.3503,2.0601,1.9557,1.8879,1.588,1.3765,1.2449,1.2217,1.114,0.9943,0.9943,0.9943,0.9788,0.9652,0.9618,0.953,0.9245,0.9171,0.9117,0.8981,0.8947,0.894,0.9044,0.9044,0.9051,0.9071,0.9078,0.9092,0.8903,0.868,0.6517,0.1233,0.0673,0.0449,-0.0,-0.0,-0.0,-0.0,-0.0,-0.0,-0.0,-0.0,-0.0,-0.0,-0.0,-0.0,-0.0,-0.0,-0.0,-0.0,-0.0,-0.0,2.7567,2.8567,2.9897,3.1673,3.2124,0.0,0.0,3.5542,3.566,3.7734,3.7416,0.0,0.0,0.0,0.0,0.0,0.0,0.0,0.0,0.0,0.0,0.0,0.0,0.0,0.0,0.0,0.0,0.0,0.0,0.0,0.0,0.0,0.0,2.75,2.7754,2.791,2.791,2.8164,2.8457,2.8769,2.8769,2.8769,2.8769,2.8769,2.8691,2.8535,2.8535,2.8437,2.8301,2.8301,2.8301,2.8301,2.8301,2.7726,2.6933,2.6933,2.5936,2.471,2.471,2.2991,2.0715,1.9557,1.7952,1.5987,1.3756,1.2689,1.1976,1.102,1.0236,0.9707,0.9795,0.9754,0.968,0.9618,0.9462,0.9293,0.9178,0.9083,0.9001,0.8947,0.894,0.894,0.894,0.8954,0.885,0.8863,0.8883,0.8897,0.891,0.5613,0.2466,0.0224,-0.0,-0.0,-0.0,-0.0,-0.0,-0.0,-0.0,-0.0,-0.0,-0.0,-0.0,-0.0,-0.0,-0.0,-0.0,-0.0,-0.0,-0.0,-0.0,-0.0,2.6549,2.7471,2.9101,3.0709,0.0,0.0,3.6028,3.6888,3.7712,3.9693,3.8686,0.0,0.0,0.0,0.0,0.0,0.0,0.0,0.0,0.0,0.0,0.0,0.0,0.0,0.0,0.0,0.0,0.0,0.0,0.0,0.0,0.0,0.0,0.0,2.7491,2.7461,2.7461,2.7734,2.7891,2.7891,2.7891,2.8027,2.8301,2.8301,2.8301,2.8301,2.8301,2.8301,2.8301,2.7833,2.7276,2.6844,2.6844,2.6264,2.5371,2.5371,2.4122,2.2317,2.2317,2.0359,1.7603,1.7125,1.5505,1.3526,1.1976,1.1463,1.1183,0.9988,0.9652,0.9557,0.9659,0.9612,0.9523,0.9476,0.9306,0.9144,0.9096,0.9008,0.894,0.894,0.894,0.894,0.8947,0.885,0.8863,0.8876,0.8897,0.8227,0.6293,0.2578,-0.0,-0.0,-0.0,-0.0,-0.0,-0.0,-0.0,-0.0,-0.0,-0.0,-0.0,-0.0,-0.0,-0.0,-0.0,-0.0,-0.0,-0.0,-0.0,-0.0,-0.0,-0.0,2.8504,2.7776,0.0,0.0,0.0,0.0,3.7867,3.7499,3.7088,4.0096,0.0,0.0,0.0,0.0,0.0,0.0,0.0,0.0,0.0,0.0,0.0,0.0,0.0,0.0,0.0,0.0,0.0,0.0,0.0,0.0,0.0,0.0,0.0,0.0,2.7683,2.7012,2.7012,2.7012,2.7012,2.7012,2.7012,2.7461,2.8281,2.8281,2.8281,2.8281,2.8281,2.8281,2.8174,2.6698,2.5151,2.3822,2.3822,2.371,2.371,2.371,2.1752,1.9212,1.9212,1.7137,1.4361,1.2689,1.2209,1.1848,1.0293,0.972,0.9605,0.9605,0.9496,0.9381,0.9381,0.9374,0.934,0.9191,0.915,0.911,0.8967,0.894,0.894,0.894,0.894,0.8947,0.8856,0.8863,0.8876,0.891,0.8798,0.6634,0.0784,-0.0,-0.0,-0.0,-0.0,-0.0,-0.0,-0.0,-0.0,-0.0,-0.0,-0.0,-0.0,-0.0,-0.0,-0.0,-0.0,-0.0,-0.0,-0.0,-0.0,-0.0,-0.0,-0.0,2.6835,0.0,0.0,0.0,0.0,0.0,0.0,3.8999,0.0,0.0,0.0,0.0,0.0,0.0,0.0,0.0,0.0,0.0,0.0,0.0,0.0,0.0,0.0,0.0,0.0,0.0,0.0,0.0,0.0,0.0,0.0,0.0,0.0,0.0,2.8657,2.8265,2.6562,2.7723,2.7885,2.7012,2.7012,2.7148,2.7402,2.7402,2.7402,2.7279,2.6409,2.5971,2.5866,2.4456,2.36,2.3079,2.2151,2.1249,2.0174,1.9206,1.7683,1.5998,1.5998,1.4595,1.2722,1.225,1.1232,1.009,0.9628,0.9483,0.9449,0.9449,0.934,0.9218,0.9218,0.9144,0.9083,0.9137,0.9076,0.8988,0.8947,0.894,0.894,0.894,0.8954,0.8856,0.8863,0.8883,0.8903,0.891,0.5278,0.2018,0.0224,-0.0,-0.0,-0.0,-0.0,-0.0,-0.0,-0.0,-0.0,-0.0,-0.0,-0.0,-0.0,-0.0,-0.0,-0.0,-0.0,-0.0,-0.0,-0.0,-0.0,-0.0,-0.0,-0.0,2.7238,0.0,0.0,0.0,0.0,0.0,0.0,0.0,0.0,0.0,0.0,0.0,0.0,0.0,0.0,0.0,0.0,0.0,0.0,0.0,0.0,0.0,0.0,0.0,0.0,0.0,0.0,0.0,0.0,0.0,0.0,0.0,0.0,0.0,2.9036,2.8359,2.6878,2.7317,2.6943,2.5661,2.5661,2.5459,2.4932,2.5797,2.5947,2.5307,2.4542,2.3808,2.3157,2.1739,2.0755,2.0135,1.8823,1.7677,1.6839,1.6058,1.4761,1.3527,1.3527,1.239,1.102,1.102,1.0259,0.9381,0.9381,0.934,0.9293,0.9293,0.9184,0.9069,0.9069,0.9001,0.896,0.9049,0.9001,0.894,0.894,0.894,0.894,0.8954,0.885,0.887,0.8883,0.8897,0.8115,0.573,0.2354,-0.0,-0.0,-0.0,-0.0,-0.0,-0.0,-0.0,-0.0,-0.0,-0.0,-0.0,-0.0,-0.0,-0.0,-0.0,-0.0,-0.0,-0.0,-0.0,-0.0,-0.0,-0.0,-0.0,-0.0,-0.0,2.8732,0.0,0.0,0.0,0.0,0.0,0.0,0.0,0.0,0.0,0.0,0.0,0.0,0.0,0.0,0.0,0.0,0.0,0.0,0.0,0.0,0.0,0.0,0.0,0.0,0.0,0.0,0.0,0.0,0.0,0.0,0.0,0.0,3.1223,2.905,2.7861,2.76,2.6284,2.5001,2.3683,2.3583,2.2767,2.1574,2.3685,2.3913,2.265,2.2421,2.1569,2.0062,1.8591,1.7287,1.5893,1.4445,1.3891,1.3778,1.3685,1.2794,1.1553,1.1553,1.0632,0.9361,0.9361,0.9354,0.934,0.934,0.9245,0.913,0.913,0.9042,0.894,0.894,0.894,0.894,0.894,0.894,0.894,0.894,0.894,0.8947,0.8856,0.8863,0.8876,0.891,0.8457,0.6293,0.0784,-0.0,-0.0,-0.0,-0.0,-0.0,-0.0,-0.0,-0.0,-0.0,-0.0,-0.0,-0.0,-0.0,-0.0,-0.0,-0.0,-0.0,-0.0,-0.0,-0.0,-0.0,-0.0,-0.0,-0.0,-0.0,-0.0,0.0,2.8013,0.0,0.0,0.0,0.0,0.0,0.0,0.0,0.0,0.0,0.0,0.0,0.0,0.0,0.0,0.0,0.0,0.0,0.0,0.0,0.0,0.0,0.0,0.0,0.0,0.0,0.0,0.0,0.0,0.0,0.0,0.0,3.1223,3.0664,2.951,2.76,2.626,2.4906,0.0,2.2667,2.1456,2.0143,2.1706,2.1685,2.0254,1.915,1.7887,1.6423,1.5013,1.4266,1.3863,1.2488,1.1871,1.1785,1.0807,1.0178,0.9954,0.9954,0.9645,0.9205,0.9205,0.9123,0.9035,0.9035,0.9008,0.8988,0.8988,0.896,0.894,0.894,0.894,0.894,0.894,0.894,0.894,0.894,0.8954,0.8856,0.8863,0.8883,0.8903,0.891,0.505,0.1458,0.0224,-0.0,-0.0,-0.0,-0.0,-0.0,-0.0,-0.0,-0.0,-0.0,-0.0,-0.0,-0.0,-0.0,-0.0,-0.0,-0.0,-0.0,-0.0,-0.0,-0.0,-0.0,-0.0,-0.0,-0.0,-0.0,-0.0,0.0,0.0,0.0,0.0,0.0,0.0,0.0,0.0,0.0,0.0,0.0,0.0,0.0,0.0,0.0,0.0,0.0,0.0,0.0,0.0,0.0,0.0,0.0,0.0,0.0,0.0,0.0,0.0,0.0,0.0,0.0,3.1335,3.1045,3.0395,2.9761,2.8544,2.6642,2.5276,2.3628,2.176,2.0389,1.8622,1.666,1.8011,1.8234,1.7515,1.6119,1.5068,1.4234,1.2832,1.2299,1.2091,1.0659,1.0143,1.0047,0.9363,0.9171,0.9171,0.9171,0.9117,0.9049,0.9049,0.9001,0.894,0.894,0.894,0.894,0.894,0.894,0.894,0.894,0.894,0.894,0.894,0.894,0.894,0.8954,0.8856,0.887,0.8883,0.8903,0.7997,0.5162,0.2018,-0.0,-0.0,-0.0,-0.0,-0.0,-0.0,-0.0,-0.0,-0.0,-0.0,-0.0,-0.0,-0.0,-0.0,-0.0,-0.0,-0.0,-0.0,-0.0,-0.0,-0.0,-0.0,-0.0,-0.0,-0.0,-0.0,-0.0,-0.0,0.0,0.0,0.0,0.0,0.0,0.0,0.0,0.0,0.0,0.0,0.0,0.0,0.0,0.0,0.0,0.0,0.0,0.0,0.0,0.0,0.0,0.0,0.0,0.0,0.0,0.0,0.0,0.0,0.0,0.0,2.9396,2.919,2.9098,2.9098,2.761,2.6355,2.5218,2.3511,2.1525,1.9199,1.7593,1.5577,1.3372,1.4234,1.477,1.4984,1.3588,1.294,1.2832,1.1319,1.0672,1.0562,0.9375,0.894,0.894,0.894,0.894,0.894,0.894,0.894,0.894,0.894,0.894,0.894,0.894,0.894,0.894,0.894,0.894,0.894,0.894,0.894,0.894,0.894,0.894,0.8947,0.8856,0.887,0.8876,0.891,0.8109,0.5841,0.0897,-0.0,-0.0,-0.0,-0.0,-0.0,-0.0,-0.0,-0.0,-0.0,-0.0,-0.0,-0.0,-0.0,-0.0,-0.0,-0.0,-0.0,-0.0,-0.0,-0.0,-0.0,-0.0,-0.0,-0.0,-0.0,-0.0,-0.0,-0.0,-0.0,0.0,0.0,0.0,0.0,0.0,0.0,0.0,0.0,0.0,0.0,0.0,0.0,0.0,0.0,0.0,0.0,0.0,0.0,0.0,0.0,0.0,0.0,0.0,0.0,0.0,0.0,0.0,0.0,0.0,0.0,2.9396,2.8272,2.7649,2.7649,2.5276,2.3932,2.3717,2.0107,1.8102,1.7789,1.5163,1.3685,1.3264,1.2191,1.2398,1.348,1.2082,1.1428,1.1319,0.9809,0.9154,0.9154,0.894,0.894,0.894,0.894,0.894,0.894,0.894,0.894,0.894,0.894,0.894,0.894,0.894,0.894,0.894,0.894,0.894,0.894,0.894,0.894,0.894,0.894,0.8954,0.8856,0.8863,0.8883,0.891,0.891,0.4714,0.0897,0.0112,-0.0,-0.0,-0.0,-0.0,-0.0,-0.0,-0.0,-0.0,-0.0,-0.0,-0.0,-0.0,-0.0,-0.0,-0.0,-0.0,-0.0,-0.0,-0.0,-0.0,-0.0,-0.0,-0.0,-0.0,-0.0,-0.0,-0.0,-0.0,-0.0,0.0,0.0,0.0,0.0,0.0,0.0,0.0,0.0,0.0,0.0,0.0,0.0,0.0,0.0,0.0,0.0,0.0,0.0,0.0,0.0,0.0,0.0,0.0,0.0,0.0,0.0,0.0,0.0,0.0,2.6164,2.6164,2.4927,2.4226,2.4226,2.3079,2.2097,2.129,1.8815,1.6305,1.3869,1.2714,1.1647,1.0781,1.0131,1.0672,1.1973,1.0453,0.9919,0.9809,0.9154,0.894,0.894,0.894,0.894,0.894,0.894,0.894,0.894,0.894,0.894,0.894,0.894,0.894,0.894,0.894,0.894,0.894,0.894,0.894,0.894,0.894,0.894,0.894,0.8954,0.8863,0.8883,0.889,0.8903,0.7885,0.4599,0.1794,-0.0,-0.0,-0.0,-0.0,-0.0,-0.0,-0.0,-0.0,-0.0,-0.0,-0.0,-0.0,-0.0,-0.0,-0.0,-0.0,-0.0,-0.0,-0.0,-0.0,-0.0,-0.0,-0.0,-0.0,-0.0,-0.0,-0.0,-0.0,-0.0,-0.0,-0.0,0.0,0.0,0.0,0.0,0.0,0.0,0.0,0.0,0.0,0.0,0.0,0.0,0.0,0.0,0.0,0.0,0.0,0.0,0.0,0.0,0.0,0.0,0.0,0.0,0.0,0.0,0.0,0.0,0.0,2.2983,2.2983,2.1678,2.0761,2.0443,2.014,1.9328,1.7908,1.6522,1.4039,1.0498,1.0498,0.9983,0.894,0.894,0.9478,1.046,0.9375,0.894,0.894,0.894,0.894,0.894,0.894,0.894,0.894,0.894,0.894,0.894,0.894,0.894,0.894,0.894,0.894,0.894,0.894,0.894,0.894,0.894,0.894,0.894,0.894,0.8947,0.8954,0.8856,0.8883,0.8444,0.6974,0.6634,0.5278,0.0897,-0.0,-0.0,-0.0,-0.0,-0.0,-0.0,-0.0,-0.0,-0.0,-0.0,-0.0,-0.0,-0.0,-0.0,-0.0,-0.0,-0.0,-0.0,-0.0,-0.0,-0.0,-0.0,-0.0,-0.0,-0.0,-0.0,-0.0,-0.0,-0.0,-0.0,-0.0,-0.0,0.0,0.0,0.0,0.0,0.0,0.0,0.0,0.0,0.0,0.0,0.0,0.0,0.0,0.0,0.0,0.0,0.0,0.0,0.0,0.0,0.0,0.0,0.0,0.0,0.0,0.0,0.0,0.0,0.0,2.0908,2.0908,1.9665,1.8277,1.7131,1.5871,1.4468,1.3151,1.1803,1.0346,0.8831,0.8831,0.8798,0.894,0.894,0.894,0.9044,0.894,0.894,0.894,0.894,0.894,0.894,0.894,0.894,0.894,0.894,0.894,0.894,0.894,0.894,0.894,0.894,0.894,0.894,0.894,0.894,0.894,0.894,0.894,0.894,0.894,0.8954,0.8863,0.8863,0.889,0.7315,0.1682,0.0449,0.0336,0.0112,-0.0,-0.0,-0.0,-0.0,-0.0,-0.0,-0.0,-0.0,-0.0,-0.0,-0.0,-0.0,-0.0,-0.0,-0.0,-0.0,-0.0,-0.0,-0.0,-0.0,-0.0,-0.0,-0.0,-0.0,-0.0,-0.0,-0.0,-0.0,-0.0,-0.0,-0.0,-0.0,0.0,0.0,0.0,0.0,0.0,0.0,0.0,0.0,0.0,0.0,0.0,0.0,0.0,0.0,0.0,0.0,0.0,0.0,0.0,0.0,0.0,0.0,0.0,0.0,0.0,0.0,0.0,0.0,0.0,0.0,1.9423,1.8163,1.7172,1.676,1.5456,1.3722,1.1465,1.0949,0.9959,0.8567,0.8567,0.8594,0.8648,0.8648,0.8703,0.8791,0.8791,0.8845,0.894,0.894,0.894,0.894,0.894,0.894,0.894,0.894,0.894,0.894,0.894,0.894,0.894,0.894,0.894,0.894,0.894,0.894,0.894,0.894,0.894,0.894,0.885,0.8856,0.8843,0.8886,0.8893,0.7309,0.1307,-0.0,-0.0,-0.0,-0.0,-0.0,-0.0,-0.0,-0.0,-0.0,-0.0,-0.0,-0.0,-0.0,-0.0,-0.0,-0.0,-0.0,-0.0,-0.0,-0.0,-0.0,-0.0,-0.0,-0.0,-0.0,-0.0,-0.0,-0.0,-0.0,-0.0,-0.0,-0.0,-0.0,-0.0,-0.0,1.9679,0.0,0.0,0.0,0.0,0.0,0.0,0.0,0.0,0.0,0.0,0.0,0.0,0.0,0.0,0.0,0.0,0.0,0.0,0.0,0.0,0.0,0.0,0.0,0.0,0.0,0.0,0.0,0.0,0.0,1.7746,1.6897,1.6012,1.5097,1.3891,1.2072,0.9855,0.9753,0.9373,0.8411,0.8411,0.8438,0.8479,0.8479,0.854,0.8635,0.8635,0.875,0.894,0.894,0.894,0.894,0.894,0.894,0.894,0.894,0.894,0.894,0.894,0.894,0.894,0.894,0.894,0.894,0.894,0.894,0.894,0.894,0.8947,0.8954,0.8856,0.8947,0.8342,0.6379,0.5909,0.4777,0.0856,-0.0,-0.0,-0.0,-0.0,-0.0,-0.0,-0.0,-0.0,-0.0,-0.0,-0.0,-0.0,-0.0,-0.0,-0.0,-0.0,-0.0,-0.0,-0.0,-0.0,-0.0,-0.0,-0.0,-0.0,-0.0,-0.0,-0.0,-0.0,-0.0,-0.0,-0.0,-0.0,-0.0,-0.0,-0.0,0.0,0.0,0.0,0.0,0.0,0.0,0.0,0.0,0.0,0.0,0.0,0.0,0.0,0.0,0.0,0.0,0.0,0.0,0.0,0.0,0.0,0.0,0.0,0.0,0.0,0.0,0.0,0.0,0.0,1.5805,1.5805,1.571,1.4555,1.195,1.0681,0.9312,0.8038,0.8038,0.8113,0.8262,0.8262,0.8336,0.8472,0.8472,0.8472,0.8472,0.8472,0.8648,0.8927,0.8927,0.8933,0.8933,0.894,0.894,0.894,0.894,0.894,0.894,0.894,0.894,0.894,0.894,0.894,0.894,0.894,0.894,0.894,0.894,0.8843,0.8863,0.8863,0.8783,0.7144,0.1422,-0.0,-0.0,-0.0,-0.0,-0.0,-0.0,-0.0,-0.0,-0.0,-0.0,-0.0,-0.0,-0.0,-0.0,-0.0,-0.0,-0.0,-0.0,-0.0,-0.0,-0.0,-0.0,-0.0,-0.0,-0.0,-0.0,-0.0,-0.0,-0.0,-0.0,-0.0,-0.0,-0.0,-0.0,-0.0,-0.0,-0.0,-0.0,1.8042,0.0,0.0,0.0,0.0,0.0,0.0,0.0,0.0,0.0,0.0,0.0,0.0,0.0,0.0,0.0,0.0,0.0,0.0,0.0,0.0,0.0,0.0,0.0,0.0,0.0,0.0,0.0,1.5386,1.5204,1.5204,1.4452,1.34,1.194,1.0681,0.9312,0.8038,0.8038,0.8058,0.8106,0.8106,0.8126,0.816,0.816,0.8221,0.833,0.833,0.8438,0.8615,0.873,0.8771,0.8784,0.8893,0.894,0.894,0.894,0.894,0.894,0.894,0.894,0.894,0.894,0.894,0.894,0.894,0.894,0.894,0.885,0.8856,0.887,0.889,0.5656,0.2074,0.0431,-0.0,-0.0,-0.0,-0.0,-0.0,-0.0,-0.0,-0.0,-0.0,-0.0,-0.0,-0.0,-0.0,-0.0,-0.0,-0.0,-0.0,-0.0,-0.0,-0.0,-0.0,-0.0,-0.0,-0.0,-0.0,-0.0,-0.0,-0.0,-0.0,-0.0,-0.0,-0.0,-0.0,-0.0,-0.0,-0.0,-0.0,-0.0,1.83,1.878,0.0,0.0,0.0,0.0,0.0,0.0,0.0,0.0,0.0,0.0,0.0,0.0,0.0,0.0,0.0,0.0,0.0,0.0,0.0,0.0,0.0,0.0,0.0,0.0,0.0,1.5053,1.4963,1.4963,1.4963,1.4371,1.331,1.1667,1.0905,0.9669,0.7855,0.7855,0.7889,0.7943,0.7943,0.7977,0.8038,0.8038,0.8092,0.8174,0.8174,0.8221,0.8309,0.8465,0.856,0.8621,0.8716,0.8784,0.8845,0.8845,0.8886,0.894,0.894,0.894,0.894,0.894,0.894,0.894,0.8954,0.8954,0.885,0.887,0.8876,0.8307,0.5793,0.2631,-0.0,-0.0,-0.0,-0.0,-0.0,-0.0,-0.0,-0.0,-0.0,-0.0,-0.0,-0.0,-0.0,-0.0,-0.0,-0.0,-0.0,-0.0,-0.0,-0.0,-0.0,-0.0,-0.0,-0.0,-0.0,-0.0,-0.0,-0.0,-0.0,-0.0,-0.0,-0.0,-0.0,-0.0,-0.0,-0.0,-0.0,-0.0,-0.0,-0.0,1.884,1.8794,1.9129,0.0,0.0,0.0,2.0457,1.9938,0.0,0.0,0.0,0.0,0.0,0.0,0.0,0.0,0.0,0.0,0.0,0.0,0.0,0.0,0.0,0.0,0.0,1.5553,1.487,1.487,1.487,1.4883,1.491,1.4821,1.364,1.1375,1.1191,0.9992,0.7597,0.7597,0.7665,0.7787,0.7787,0.7862,0.7991,0.8004,0.8018,0.8018,0.8031,0.8038,0.8052,0.8187,0.833,0.8459,0.8479,0.8567,0.8682,0.8682,0.8771,0.8893,0.8906,0.8913,0.8913,0.8933,0.894,0.8947,0.8856,0.8634,0.8523,0.8778,0.8437,0.671,0.1428,-0.0,-0.0,-0.0,-0.0,-0.0,-0.0,-0.0,-0.0,-0.0,-0.0,-0.0,-0.0,-0.0,-0.0,-0.0,-0.0,-0.0,-0.0,-0.0,-0.0,-0.0,-0.0,-0.0,-0.0,-0.0,-0.0,-0.0,-0.0,-0.0,-0.0,-0.0,-0.0,-0.0,-0.0,-0.0,-0.0,-0.0,-0.0,-0.0,-0.0,-0.0,2.0685,2.0855,2.0694,1.9024,0.0,0.0,0.0,1.7842,0.0,0.0,0.0,0.0,0.0,0.0,0.0,0.0,0.0,0.0,0.0,0.0,0.0,0.0,0.0,0.0,0.0,1.4426,1.4255,1.4255,1.4255,1.4362,1.4589,1.3611,1.254,1.1365,1.0269,0.8979,0.7597,0.7597,0.7611,0.7638,0.7638,0.7658,0.7692,0.7801,0.7855,0.7862,0.7984,0.8038,0.8038,0.8072,0.8174,0.8323,0.8438,0.8499,0.8526,0.8526,0.8547,0.8587,0.871,0.8757,0.8777,0.8809,0.8856,0.8863,0.8883,0.7287,0.5819,0.8221,0.5452,0.1429,0.0329,-0.0,-0.0,-0.0,-0.0,-0.0,-0.0,-0.0,-0.0,-0.0,-0.0,-0.0,-0.0,-0.0,-0.0,-0.0,-0.0,-0.0,-0.0,-0.0,-0.0,-0.0,-0.0,-0.0,-0.0,-0.0,-0.0,-0.0,-0.0,-0.0,-0.0,-0.0,-0.0,-0.0,-0.0,-0.0,-0.0,-0.0,-0.0,-0.0,-0.0,-0.0,2.1159,2.1069,2.0951,1.9838,0.0,0.0,0.0,0.0,0.0,0.0,0.0,0.0,0.0,0.0,0.0,0.0,0.0,0.0,0.0,0.0,0.0,0.0,0.0,0.0,0.0,1.3654,1.3654,1.3654,1.3788,1.3935,1.4068,1.3077,1.197,1.0939,0.9786,0.854,0.7373,0.7373,0.7407,0.7489,0.7489,0.7529,0.7604,0.7672,0.7746,0.7814,0.7889,0.797,0.8038,0.8038,0.8085,0.816,0.8235,0.8309,0.8377,0.8377,0.8431,0.8513,0.8587,0.8735,0.8862,0.8845,0.7871,0.6991,0.8458,0.58,0.2512,0.4047,0.2285,-0.0,-0.0,-0.0,-0.0,-0.0,-0.0,-0.0,-0.0,-0.0,-0.0,-0.0,-0.0,-0.0,-0.0,-0.0,-0.0,-0.0,-0.0,-0.0,-0.0,-0.0,-0.0,-0.0,-0.0,-0.0,-0.0,-0.0,-0.0,-0.0,-0.0,-0.0,-0.0,-0.0,-0.0,-0.0,-0.0,-0.0,-0.0,-0.0,-0.0,-0.0,-0.0,-0.0,0.0,0.0,0.0,0.0,0.0,1.9182,0.0,0.0,0.0,1.8862,0.0,0.0,0.0,0.0,0.0,0.0,0.0,0.0,0.0,0.0,0.0,0.0,0.0,0.0,0.0,1.3039,1.308,1.32,1.332,1.344,1.3547,1.2671,1.1697,1.0545,0.9434,0.8329,0.7143,0.7143,0.7204,0.7326,0.7326,0.7394,0.7509,0.7543,0.7617,0.7726,0.776,0.7841,0.7957,0.7957,0.797,0.7997,0.8024,0.8119,0.8235,0.8235,0.8323,0.8438,0.7928,0.7842,0.8078,0.8659,0.65,0.404,0.6414,0.384,-0.0,-0.0,-0.0,-0.0,-0.0,-0.0,-0.0,-0.0,-0.0,-0.0,-0.0,-0.0,-0.0,-0.0,-0.0,-0.0,-0.0,-0.0,-0.0,-0.0,-0.0,-0.0,-0.0,-0.0,-0.0,-0.0,-0.0,-0.0,-0.0,-0.0,-0.0,-0.0,-0.0,-0.0,-0.0,-0.0,-0.0,-0.0,-0.0,-0.0,-0.0,-0.0,-0.0,-0.0,-0.0,-0.0,0.0,0.0,0.0,0.0,2.2094,0.0,0.0,0.0,1.8324,1.6916,0.0,0.0,0.0,0.0,0.0,0.0,0.0,0.0,0.0,0.0,0.0,0.0,0.0,0.0,0.0,0.0,1.2625,1.3173,1.2746,1.2692,1.3227,1.2308,1.1269,1.0312,0.9226,0.8209,0.7136,0.7143,0.7149,0.717,0.717,0.7177,0.7197,0.7333,0.7407,0.7428,0.7563,0.7631,0.7651,0.7651,0.7726,0.7848,0.7984,0.8065,0.7992,0.7992,0.8012,0.7743,0.5359,0.4556,0.4994,0.7986,0.5124,0.0533,0.0959,0.0533,-0.0,-0.0,-0.0,-0.0,-0.0,-0.0,-0.0,-0.0,-0.0,-0.0,-0.0,-0.0,-0.0,-0.0,-0.0,-0.0,-0.0,-0.0,-0.0,-0.0,-0.0,-0.0,-0.0,-0.0,-0.0,-0.0,-0.0,-0.0,-0.0,-0.0,-0.0,-0.0,-0.0,-0.0,-0.0,-0.0,-0.0,-0.0,-0.0,-0.0,-0.0,-0.0,-0.0,-0.0,-0.0,-0.0,0.0,0.0,0.0,0.0,0.0,0.0,1.8614,0.0,1.6801,0.0,0.0,0.0,0.0,0.0,0.0,0.0,0.0,0.0,0.0,0.0,0.0,0.0,0.0,0.0,0.0,0.0,0.0,0.0,0.0,1.1386,1.1878,1.151,1.0897,1.008,0.8935,0.795,0.7014,0.7014,0.7061,0.7143,0.7143,0.7143,0.7143,0.721,0.7285,0.7373,0.7441,0.7516,0.7597,0.7597,0.7638,0.7712,0.7771,0.7885,0.7766,0.6237,0.6659,0.7811,0.6732,0.4282,0.1939,0.3297,0.2067,-0.0,-0.0,-0.0,-0.0,-0.0,-0.0,-0.0,-0.0,-0.0,-0.0,-0.0,-0.0,-0.0,-0.0,-0.0,-0.0,-0.0,-0.0,-0.0,-0.0,-0.0,-0.0,-0.0,-0.0,-0.0,-0.0,-0.0,-0.0,-0.0,-0.0,-0.0,-0.0,-0.0,-0.0,-0.0,-0.0,-0.0,-0.0,-0.0,-0.0,-0.0,-0.0,-0.0,-0.0,-0.0,-0.0,-0.0,-0.0,-0.0,2.5955,0.0,0.0,0.0,0.0,0.0,0.0,0.0,0.0,0.0,0.0,0.0,0.0,0.0,0.0,0.0,0.0,0.0,0.0,0.0,0.0,0.0,0.0,0.0,0.0,0.0,0.0,0.0,0.0,0.0,1.0671,1.0724,1.0395,0.9667,0.8702,0.7687,0.6865,0.6905,0.698,0.7082,0.7122,0.7143,0.7143,0.7143,0.7204,0.7305,0.7305,0.7373,0.7482,0.7482,0.7516,0.7577,0.7502,0.7731,0.7779,0.5822,0.5349,0.5564,0.4138,0.1109,-0.212,-0.131,-0.1109,-0.1109,-0.1109,-0.0605,-0.0,-0.0,-0.0,-0.0,-0.0,-0.0,-0.0,-0.0,-0.0,-0.0,-0.0,-0.0,-0.0,-0.0,-0.0,-0.0,-0.0,-0.0,-0.0,-0.0,-0.0,-0.0,-0.0,-0.0,-0.0,-0.0,-0.0,-0.0,-0.0,-0.0,-0.0,-0.0,-0.0,-0.0,-0.0,-0.0,-0.0,-0.0,-0.0,-0.0,-0.0,-0.0,-0.0,-0.0,-0.0,-0.0,0.0,0.0,0.0,2.4002,0.0,0.0,0.0,0.0,1.6322,0.0,0.0,0.0,0.0,0.0,0.0,0.7246,0.0,0.0,0.0,0.0,0.0,0.0,0.0,0.0,0.0,0.0,0.0,0.0,0.0,0.0,0.991,0.9914,0.9719,0.914,0.8425,0.7588,0.6709,0.6858,0.6932,0.6939,0.7075,0.7143,0.7143,0.7143,0.7143,0.7149,0.7149,0.7074,0.7101,0.7101,0.7098,0.7145,0.7079,0.747,0.8034,0.7918,0.4649,-0.0505,-0.5684,-0.7629,-0.7302,-0.473,-0.3914,-0.3914,-0.3914,-0.2109,-0.0,-0.0,-0.0,-0.0,-0.0,-0.0,-0.0,-0.0,-0.0,-0.0,-0.0,-0.0,-0.0,-0.0,-0.0,-0.0,-0.0,-0.0,-0.0,-0.0,-0.0,-0.0,-0.0,-0.0,-0.0,-0.0,-0.0,-0.0,-0.0,-0.0,-0.0,-0.0,-0.0,-0.0,-0.0,-0.0,-0.0,-0.0,-0.0,-0.0,-0.0,-0.0,-0.0,-0.0,-0.0,-0.0,0.0,0.0,2.9301,2.5604,0.0,0.0,0.0,0.0,0.0,0.0,0.0,0.0,0.0,0.0,0.0,0.7471,0.0,0.0,0.0,0.0,0.0,0.0,0.0,0.0,0.0,0.0,0.0,0.0,0.8213,0.0,0.0,0.9565,0.9441,0.8891,0.8219,0.7415,0.6546,0.66,0.6675,0.6776,0.6926,0.7,0.7,0.7095,0.7143,0.7143,0.7068,0.7081,0.6992,0.5453,0.5673,0.7118,0.7132,0.7495,0.7584,0.4013,0.1585,-0.0794,-0.6158,-0.8032,-0.7818,-0.6965,-0.6653,-0.6659,-0.667,-0.6062,-0.4541,-0.1008,-0.0,-0.0,-0.0,-0.0,-0.0,-0.0,-0.0,-0.0,-0.0,-0.0,-0.0,-0.0,-0.0,-0.0,-0.0,-0.0,-0.0,-0.0,-0.0,-0.0,-0.0,-0.0,-0.0,-0.0,-0.0,-0.0,-0.0,-0.0,-0.0,-0.0,-0.0,-0.0,-0.0,-0.0,-0.0,-0.0,-0.0,-0.0,-0.0,-0.0,-0.0,-0.0,-0.0,-0.0,2.9222,2.9714,0.0,2.6642,2.4946,0.0,1.9324,0.0,0.0,0.0,0.0,0.0,0.0,0.0,0.0,0.8049,0.7961,0.0,0.0,0.0,0.0,0.0,0.0,0.0,0.0,0.0,0.7233,0.7433,0.7626,0.0,0.0,0.0,0.892,0.8127,0.7838,0.731,0.6476,0.6451,0.6519,0.662,0.6776,0.6851,0.6851,0.6914,0.6981,0.6987,0.7061,0.7094,0.7012,0.5468,0.5757,0.6975,0.5213,0.478,0.4715,0.1245,-0.1171,-0.3245,-0.5683,-0.7247,-0.8006,-0.7979,-0.7979,-0.7985,-0.8006,-0.8012,-0.7302,-0.384,-0.1515,-0.0,-0.0,-0.0,-0.0,-0.0,-0.0,-0.0,-0.0,-0.0,-0.0,-0.0,-0.0,-0.0,-0.0,-0.0,-0.0,-0.0,-0.0,-0.0,-0.0,-0.0,-0.0,-0.0,-0.0,-0.0,-0.0,-0.0,-0.0,-0.0,-0.0,-0.0,-0.0,-0.0,-0.0,-0.0,-0.0,-0.0,-0.0,-0.0,-0.0,-0.0,-0.0,-0.0]},{"header":{"parameterUnit":"m.s-1","parameterCategory":1,"la1":30.6,"la2":29.2853,"lo1":-89.7004,"lo2":-87.6739,"dy":0.0162,"dx":0.0183,"nx":112,"ny":82,"refTime":"2026-04-19T00:00:00:Z","depth":0,"parameterNumber":3,"parameterNumberName":"V-component_of_WINDS"},"data":[0.0,0.0,0.0,0.0,0.0,0.0,0.0,0.0,0.0,0.0,0.0,0.0,0.0,0.0,0.0,0.0,0.0,0.0,0.0,0.0,0.0,0.0,0.0,0.0,0.0,0.0,0.0,0.0,0.0,0.0,0.0,0.0,0.0,0.0,0.0,0.0,0.0,0.0,0.0,0.0,0.0,0.0,0.0,0.0,0.0,0.0,0.0,0.0,0.0,0.0,0.0,0.0,0.0,0.0,0.0,0.0,0.0,0.0,0.0,0.0,0.0,0.0,0.0,0.0,0.0,0.0,0.0,0.0,0.0,0.0,0.0,0.0,0.0,0.0,0.0,0.0,0.0,0.0,0.0,0.0,0.0,0.0,0.0,0.0,0.0,0.0,0.0,0.0,0.0,0.0,0.0,-2.5335,-2.8047,-2.9804,-2.9804,-2.9176,-2.7157,-2.3426,0.0,0.0,0.0,0.0,0.0,0.0,0.0,0.0,0.0,0.0,0.0,0.0,0.0,0.0,0.0,0.0,0.0,0.0,0.0,0.0,0.0,0.0,0.0,0.0,0.0,0.0,0.0,0.0,0.0,0.0,0.0,0.0,0.0,0.0,0.0,0.0,0.0,0.0,0.0,0.0,0.0,0.0,0.0,0.0,0.0,0.0,0.0,0.0,0.0,0.0,0.0,0.0,0.0,0.0,0.0,0.0,0.0,0.0,0.0,0.0,0.0,0.0,0.0,0.0,0.0,0.0,0.0,0.0,0.0,0.0,0.0,0.0,0.0,0.0,0.0,0.0,0.0,0.0,0.0,0.0,0.0,0.0,0.0,0.0,0.0,0.0,0.0,0.0,0.0,0.0,0.0,0.0,0.0,0.0,0.0,0.0,0.0,0.0,0.0,0.0,0.0,0.0,0.0,0.0,-2.4029,-2.7896,-2.9202,-2.9804,-2.9804,-2.8825,-2.6909,-2.3779,0.0,0.0,0.0,0.0,0.0,0.0,0.0,0.0,0.0,0.0,0.0,0.0,0.0,0.0,0.0,0.0,0.0,0.0,0.0,0.0,0.0,0.0,0.0,0.0,0.0,0.0,0.0,0.0,0.0,0.0,0.0,0.0,0.0,0.0,0.0,0.0,0.0,0.0,0.0,0.0,0.0,0.0,0.0,0.0,0.0,0.0,0.0,0.0,0.0,0.0,0.0,0.0,0.0,0.0,0.0,0.0,0.0,0.0,0.0,0.0,0.0,0.0,0.0,0.0,0.0,0.0,0.0,0.0,0.0,0.0,0.0,0.0,0.0,0.0,0.0,0.0,0.0,0.0,0.0,0.0,0.0,0.0,0.0,0.0,0.0,0.0,0.0,0.0,0.0,0.0,0.0,0.0,0.0,0.0,0.0,0.0,0.0,0.0,0.0,0.0,0.0,0.0,0.0,-2.3075,-2.5134,-2.8976,-2.9628,-2.9804,-2.9804,-2.875,-2.6735,-2.3555,-2.1275,0.0,0.0,0.0,0.0,0.0,0.0,0.0,0.0,0.0,0.0,0.0,0.0,0.0,0.0,0.0,0.0,0.0,0.0,0.0,0.0,0.0,0.0,0.0,0.0,0.0,0.0,0.0,0.0,0.0,0.0,0.0,0.0,0.0,0.0,0.0,0.0,0.0,0.0,0.0,0.0,0.0,0.0,0.0,0.0,0.0,0.0,0.0,0.0,0.0,0.0,0.0,0.0,0.0,0.0,0.0,0.0,0.0,0.0,0.0,0.0,0.0,0.0,0.0,0.0,0.0,0.0,0.0,0.0,0.0,0.0,0.0,0.0,0.0,0.0,0.0,0.0,0.0,0.0,0.0,0.0,0.0,0.0,0.0,0.0,0.0,0.0,0.0,0.0,0.0,0.0,0.0,0.0,0.0,0.0,0.0,0.0,0.0,0.0,0.0,0.0,0.0,0.0,-2.536,-2.6666,-2.9503,-2.9804,-2.9804,-2.9804,-2.825,-2.6005,-2.3063,-2.0354,0.0,0.0,0.0,0.0,0.0,0.0,0.0,0.0,0.0,0.0,0.0,0.0,0.0,0.0,0.0,0.0,0.0,0.0,0.0,0.0,0.0,0.0,0.0,0.0,0.0,0.0,0.0,0.0,0.0,0.0,0.0,0.0,0.0,0.0,0.0,0.0,0.0,0.0,0.0,0.0,0.0,0.0,0.0,0.0,0.0,0.0,0.0,0.0,0.0,0.0,0.0,0.0,0.0,0.0,0.0,0.0,0.0,0.0,0.0,0.0,0.0,0.0,0.0,0.0,0.0,0.0,0.0,0.0,0.0,0.0,0.0,0.0,0.0,0.0,0.0,0.0,0.0,0.0,0.0,0.0,0.0,0.0,0.0,0.0,0.0,0.0,0.0,0.0,0.0,0.0,0.0,0.0,0.0,0.0,0.0,0.0,0.0,0.0,0.0,0.0,0.0,0.0,-2.5988,-2.8373,-2.9654,-2.9804,-2.9804,-2.9804,-2.6818,-2.4102,-2.219,-1.8583,0.0,0.0,0.0,0.0,0.0,0.0,0.0,0.0,0.0,0.0,0.0,0.0,0.0,0.0,0.0,0.0,0.0,0.0,0.0,0.0,0.0,0.0,0.0,0.0,0.0,0.0,0.0,0.0,0.0,0.0,0.0,0.0,0.0,0.0,0.0,0.0,0.0,0.0,0.0,0.0,0.0,0.0,0.0,0.0,0.0,0.0,0.0,0.0,0.0,0.0,0.0,0.0,0.0,0.0,0.0,0.0,0.0,0.0,0.0,0.0,0.0,0.0,0.0,0.0,0.0,0.0,0.0,0.0,0.0,0.0,0.0,0.0,0.0,0.0,0.0,0.0,0.0,0.0,0.0,0.0,0.0,0.0,0.0,0.0,0.0,0.0,0.0,0.0,0.0,0.0,0.0,0.0,0.0,0.0,0.0,0.0,0.0,0.0,0.0,0.0,0.0,0.0,-2.5134,-2.7369,0.0,-2.9804,-2.9804,-2.9804,-2.7384,-2.466,-2.173,0.0,0.0,0.0,0.0,0.0,0.0,0.0,0.0,0.0,0.0,0.0,0.0,0.0,0.0,0.0,0.0,0.0,0.0,0.0,0.0,0.0,0.0,0.0,0.0,0.0,0.0,0.0,0.0,0.0,0.0,0.0,0.0,0.0,0.0,0.0,0.0,0.0,0.0,0.0,0.0,0.0,0.0,0.0,0.0,0.0,0.0,0.0,0.0,0.0,0.0,0.0,0.0,0.0,0.0,0.0,0.0,0.0,0.0,0.0,0.0,0.0,0.0,0.0,0.0,0.0,0.0,0.0,0.0,0.0,0.0,0.0,0.0,0.0,0.0,0.0,0.0,0.0,0.0,0.0,0.0,0.0,0.0,0.0,0.0,0.0,0.0,0.0,0.0,0.0,0.0,0.0,0.0,0.0,0.0,0.0,0.0,0.0,0.0,0.0,0.0,0.0,0.0,-2.2639,-2.5034,-2.7318,0.0,-2.9905,-2.9699,-2.9534,-2.733,-2.4589,-2.1261,0.0,0.0,0.0,0.0,0.0,0.0,0.0,0.0,0.0,0.0,0.0,0.0,0.0,0.0,0.0,0.0,0.0,0.0,0.0,0.0,0.0,0.0,0.0,0.0,0.0,0.0,0.0,0.0,0.0,0.0,0.0,0.0,0.0,0.0,0.0,0.0,0.0,0.0,0.0,0.0,0.0,0.0,0.0,0.0,0.0,0.0,0.0,0.0,0.0,0.0,0.0,0.0,0.0,0.0,0.0,0.0,0.0,0.0,0.0,0.0,0.0,0.0,0.0,0.0,0.0,0.0,0.0,0.0,0.0,0.0,0.0,0.0,0.0,0.0,0.0,0.0,0.0,0.0,0.0,0.0,0.0,0.0,0.0,0.0,0.0,0.0,0.0,0.0,0.0,0.0,0.0,0.0,0.0,0.0,0.0,0.0,0.0,0.0,0.0,0.0,0.0,0.0,-2.2849,-2.6038,-2.875,-3.0432,-3.0131,-2.9588,-2.8985,-2.631,-2.3542,0.0,0.0,0.0,0.0,0.0,0.0,0.0,0.0,0.0,0.0,0.0,0.0,0.0,0.0,0.0,0.0,0.0,0.0,0.0,0.0,0.0,0.0,0.0,0.0,0.0,0.0,0.0,0.0,0.0,0.0,0.0,0.0,0.0,0.0,0.0,0.0,0.0,0.0,0.0,0.0,0.0,0.0,0.0,0.0,0.0,0.0,0.0,0.0,0.0,0.0,0.0,0.0,0.0,0.0,0.0,0.0,0.0,0.0,0.0,0.0,0.0,0.0,0.0,0.0,0.0,0.0,0.0,0.0,0.0,0.0,0.0,0.0,0.0,0.0,0.0,0.0,0.0,0.0,0.0,0.0,0.0,0.0,0.0,0.0,0.0,0.0,0.0,0.0,0.0,0.0,0.0,0.0,0.0,0.0,0.0,0.0,0.0,0.0,0.0,0.0,0.0,0.0,0.0,-2.2849,-2.6389,-2.9176,-3.0482,-3.0457,-3.0273,-3.0078,-2.7233,-2.4372,-2.1871,0.0,0.0,0.0,0.0,0.0,0.0,0.0,0.0,0.0,0.0,0.0,0.0,0.0,0.0,0.0,0.0,0.0,0.0,0.0,0.0,0.0,0.0,0.0,0.0,0.0,0.0,0.0,0.0,0.0,0.0,0.0,0.0,0.0,0.0,0.0,0.0,0.0,0.0,0.0,0.0,0.0,0.0,0.0,0.0,0.0,0.0,0.0,0.0,0.0,0.0,0.0,0.0,0.0,0.0,0.0,0.0,0.0,0.0,0.0,0.0,0.0,0.0,0.0,0.0,0.0,0.0,0.0,0.0,0.0,0.0,0.0,0.0,0.0,0.0,0.0,0.0,0.0,0.0,0.0,0.0,0.0,0.0,0.0,0.0,0.0,0.0,0.0,0.0,0.0,0.0,0.0,0.0,0.0,0.0,0.0,0.0,0.0,0.0,0.0,0.0,0.0,0.0,-2.279,-2.6446,-2.9453,-3.0783,-3.0733,-3.0523,-3.0318,-2.8069,-2.5463,-2.2456,0.0,0.0,0.0,0.0,0.0,0.0,0.0,0.0,0.0,0.0,0.0,0.0,0.0,0.0,0.0,0.0,0.0,0.0,0.0,0.0,0.0,0.0,0.0,0.0,0.0,0.0,0.0,0.0,0.0,0.0,0.0,0.0,0.0,0.0,0.0,0.0,0.0,0.0,0.0,0.0,0.0,0.0,0.0,0.0,0.0,0.0,0.0,0.0,0.0,0.0,0.0,0.0,0.0,0.0,0.0,0.0,0.0,0.0,0.0,0.0,0.0,0.0,0.0,0.0,0.0,0.0,0.0,0.0,0.0,0.0,0.0,0.0,0.0,0.0,0.0,0.0,0.0,0.0,0.0,0.0,0.0,0.0,0.0,0.0,0.0,0.0,0.0,0.0,0.0,0.0,0.0,0.0,0.0,0.0,0.0,0.0,0.0,0.0,0.0,0.0,0.0,0.0,-2.2865,-2.6615,-2.9628,-3.1286,-3.1115,-3.0667,-3.0157,-2.9071,-2.6801,-2.3023,0.0,0.0,0.0,0.0,0.0,0.0,0.0,0.0,0.0,0.0,0.0,0.0,0.0,0.0,0.0,0.0,0.0,0.0,0.0,0.0,0.0,0.0,0.0,0.0,0.0,0.0,0.0,0.0,0.0,0.0,0.0,0.0,0.0,0.0,0.0,0.0,0.0,0.0,0.0,0.0,0.0,0.0,0.0,0.0,0.0,0.0,0.0,0.0,0.0,0.0,0.0,0.0,0.0,0.0,0.0,0.0,0.0,0.0,0.0,0.0,-1.1167,0.0,0.0,0.0,0.0,0.0,0.0,0.0,0.0,0.0,0.0,0.0,0.0,0.0,0.0,0.0,0.0,0.0,0.0,0.0,0.0,0.0,0.0,0.0,0.0,0.0,0.0,0.0,0.0,0.0,0.0,0.0,0.0,0.0,0.0,0.0,0.0,0.0,0.0,0.0,0.0,0.0,-2.3466,-2.7218,-3.0231,-3.1863,-3.271,-3.288,-3.2223,-3.1462,-2.9726,-2.6438,0.0,0.0,0.0,0.0,0.0,0.0,0.0,0.0,0.0,0.0,0.0,0.0,0.0,0.0,0.0,0.0,0.0,0.0,0.0,0.0,0.0,0.0,0.0,0.0,0.0,0.0,0.0,0.0,0.0,0.0,0.0,0.0,0.0,0.0,0.0,0.0,0.0,0.0,0.0,0.0,0.0,0.0,0.0,0.0,0.0,0.0,0.0,0.0,0.0,0.0,0.0,0.0,0.0,0.0,0.0,0.0,0.0,0.0,0.0,0.0,0.0,-1.3709,0.0,0.0,0.0,0.0,0.0,0.0,0.0,0.0,0.0,0.0,0.0,0.0,0.0,0.0,0.0,0.0,0.0,0.0,0.0,0.0,0.0,0.0,0.0,0.0,0.0,0.0,0.0,0.0,0.0,0.0,0.0,0.0,0.0,0.0,0.0,0.0,0.0,0.0,0.0,0.0,-2.4796,-2.8969,-3.217,-3.3541,-3.4259,-3.4305,-3.3634,-3.2791,-3.1165,-2.8324,-2.616,0.0,0.0,0.0,0.0,0.0,0.0,0.0,0.0,0.0,0.0,0.0,0.0,0.0,0.0,0.0,0.0,0.0,0.0,0.0,0.0,0.0,0.0,0.0,0.0,0.0,0.0,0.0,0.0,0.0,0.0,0.0,0.0,0.0,0.0,0.0,0.0,0.0,0.0,0.0,0.0,0.0,0.0,0.0,0.0,0.0,0.0,0.0,0.0,0.0,0.0,0.0,0.0,0.0,-1.7543,-1.979,-2.1152,-2.2523,-2.3355,-2.3308,-1.8628,-1.7059,-1.7649,0.0,0.0,0.0,0.0,0.0,0.0,0.0,0.0,0.0,0.0,0.0,0.0,0.0,0.0,0.0,0.0,0.0,0.0,0.0,0.0,0.0,0.0,0.0,0.0,0.0,-2.5273,-2.6032,0.0,0.0,0.0,0.0,0.0,0.0,0.0,0.0,0.0,0.0,0.0,0.0,-2.6436,-3.0802,-3.4076,-3.5432,-3.5725,-3.5523,-3.4696,-3.404,-3.2523,-3.0017,-2.8598,-2.6625,0.0,0.0,0.0,0.0,0.0,0.0,0.0,0.0,0.0,0.0,0.0,0.0,0.0,0.0,0.0,0.0,0.0,0.0,0.0,0.0,0.0,0.0,0.0,0.0,0.0,0.0,0.0,0.0,0.0,0.0,0.0,0.0,-0.7163,-0.7088,0.0,0.0,0.0,0.0,0.0,0.0,0.0,0.0,0.0,0.0,0.0,0.0,0.0,0.0,-1.2616,-1.3784,-1.6124,-1.955,-2.1933,-2.394,-2.5525,-2.5763,-2.5963,-2.6194,-2.5463,0.0,-2.3243,-2.1586,0.0,0.0,0.0,0.0,0.0,0.0,0.0,0.0,0.0,0.0,0.0,0.0,0.0,0.0,0.0,0.0,0.0,0.0,0.0,0.0,0.0,0.0,-2.5185,-2.7392,-2.8815,-2.9594,0.0,-2.5697,-2.238,-2.1088,-1.9365,0.0,0.0,0.0,0.0,0.0,0.0,0.0,-2.8132,-3.1498,-3.4242,-3.5908,-3.6908,-3.6985,-3.5812,-3.6365,-3.5666,-3.3057,-3.1099,-2.9372,-2.7906,-2.494,0.0,0.0,0.0,0.0,0.0,0.0,0.0,0.0,0.0,0.0,0.0,0.0,0.0,0.0,0.0,0.0,0.0,0.0,0.0,0.0,0.0,0.0,0.0,0.0,0.0,0.0,0.0,0.0,0.0,-0.7122,-0.7658,-0.7428,-0.7678,-0.7886,0.0,0.0,0.0,0.0,0.0,0.0,0.0,0.0,0.0,-0.9232,-0.9388,-1.0763,-1.3536,-1.5021,-1.7622,-2.1382,-2.4234,-2.6612,-2.8324,-2.9216,-2.969,-2.9855,-2.9855,-2.9424,-2.8539,-2.5344,-2.398,-2.3757,0.0,0.0,0.0,0.0,-2.4551,-2.6734,-2.8622,-2.9284,0.0,-2.8383,0.0,0.0,0.0,0.0,0.0,0.0,0.0,0.0,0.0,0.0,0.0,-3.0328,-3.152,-3.2302,-3.2481,-3.0468,-2.7857,0.0,-2.4121,-2.2832,-2.0169,0.0,0.0,0.0,0.0,0.0,-3.1134,-3.4307,-3.6707,-3.7924,-3.8442,-3.8164,-3.6869,-3.7129,-3.6447,-3.4173,-3.2886,-3.142,-2.9744,-2.756,-2.5136,0.0,0.0,0.0,0.0,0.0,0.0,0.0,0.0,0.0,0.0,0.0,0.0,0.0,0.0,0.0,0.0,0.0,0.0,0.0,0.0,0.0,0.0,0.0,0.0,0.0,0.0,0.0,0.0,-0.7584,-0.8147,-0.7814,-0.8269,-0.8692,0.0,0.0,0.0,0.0,0.0,0.0,-1.3066,-1.2674,-1.1837,-1.0093,-1.0256,-1.1445,-1.3797,-1.5538,-1.8524,-2.2827,-2.5767,-2.8415,-3.0673,-3.2299,-3.295,-3.248,-3.295,-3.2769,-3.2148,-2.8464,-2.6661,-2.6113,-2.4813,-2.5077,-2.6296,-2.6822,-2.8768,-3.1351,-3.3271,-3.4459,-3.4861,-3.3202,0.0,-3.0489,-2.6971,0.0,0.0,0.0,0.0,-2.6229,-2.7943,-2.98,-3.1395,-3.2412,-3.329,-3.3801,-3.4034,-3.3714,-3.2484,0.0,-2.8799,-2.7985,-2.4997,0.0,0.0,0.0,0.0,-3.2119,-3.3914,-3.6635,-3.8661,-3.9349,-3.9409,-3.8871,-3.7524,-3.7404,-3.6656,-3.4861,-3.3963,-3.2826,-3.133,-2.9864,-2.7679,-2.4657,0.0,0.0,0.0,0.0,0.0,0.0,0.0,0.0,0.0,0.0,0.0,0.0,0.0,0.0,0.0,0.0,0.0,0.0,0.0,0.0,0.0,0.0,0.0,0.0,0.0,0.0,0.0,0.0,0.0,-0.8289,-0.9008,0.0,0.0,0.0,0.0,-1.3153,-1.5649,-1.6322,-1.455,-1.5061,-1.4092,-1.0887,-1.1029,-1.1935,-1.3721,-1.5624,-1.9299,-2.48,-2.6745,-2.959,-3.3233,-3.4902,-3.4799,-3.3485,-3.4902,-3.4554,-3.2617,-3.0723,-2.9805,-2.942,-2.9436,-2.931,-2.9299,-3.1738,-3.3122,-3.3932,-3.5655,-3.6282,-3.6358,-3.6784,-3.5152,-3.2968,-3.2707,-3.0817,0.0,0.0,-3.0262,-2.9966,-3.1879,-3.206,-3.2104,-3.3832,-3.3862,-3.3741,-3.4504,-3.4616,-3.4283,0.0,-3.2228,-3.1662,-3.0984,0.0,-3.0291,-3.0816,-3.2299,-3.3972,-3.5851,-3.7393,-3.8661,-3.9349,-3.9409,-3.8871,-3.7524,-3.7404,-3.6836,-3.5519,-3.4233,-3.3455,-3.3335,-3.145,-2.9445,-2.746,-2.5255,0.0,0.0,0.0,0.0,0.0,0.0,0.0,0.0,0.0,0.0,0.0,0.0,0.0,0.0,0.0,0.0,0.0,0.0,0.0,0.0,0.0,0.0,0.0,0.0,0.0,0.0,0.0,0.0,-0.9001,-0.9612,0.0,0.0,-1.1191,-1.2915,-1.5599,-1.7097,-1.7224,-1.5633,-1.6014,-1.4711,-1.1365,-1.1375,-1.2343,-1.4415,-1.6368,-2.0215,-2.5771,-2.7788,-3.0593,-3.4238,-3.5951,-3.6311,-3.5435,-3.6143,-3.5769,-3.4554,-3.2693,-3.1465,-3.0839,-3.1292,-3.1912,-3.2767,-3.4387,-3.5842,-3.7122,-3.7365,-3.7663,-3.7939,-3.7764,-3.6558,-3.5127,-3.4776,-3.3731,-3.2835,-3.3383,-3.3514,-3.3606,-3.4367,-3.4576,-3.4749,-3.4637,-3.4662,-3.4885,-3.512,-3.5748,-3.6197,-3.608,-3.526,-3.4376,-3.3492,-3.3885,-3.4126,-3.3445,-3.4912,-3.6408,-3.7464,-3.8489,-3.914,-3.9379,-3.9409,-3.8871,-3.7524,-3.7404,-3.6686,-3.4951,-3.4382,-3.3969,-3.3536,-3.2318,-3.1028,-2.95,-2.7797,-2.5227,0.0,0.0,0.0,0.0,0.0,0.0,0.0,0.0,0.0,0.0,0.0,0.0,0.0,0.0,0.0,0.0,0.0,0.0,0.0,0.0,0.0,0.0,0.0,0.0,0.0,0.0,-0.9646,-0.9544,-1.0148,-1.0756,-1.108,-1.2012,-1.3724,-1.6739,-1.7999,-1.8083,-1.6435,-1.6656,-1.5356,-1.1756,-1.1714,-1.2393,-1.3798,-1.6524,-2.0422,-2.5279,-2.7905,-3.1138,-3.4838,-3.7085,-3.7655,-3.675,-3.7331,-3.6951,-3.5892,-3.3893,-3.2676,-3.2191,-3.288,-3.362,-3.4582,-3.6307,-3.7702,-3.8679,-3.8566,-3.8718,-3.8818,-3.8417,-3.7663,-3.686,-3.6483,-3.5981,-3.5554,-3.5554,-3.568,-3.5805,-3.5805,-3.6337,-3.6785,-3.6044,-3.6264,-3.6556,-3.5937,-3.6797,-3.7597,-3.7289,-3.7197,-3.6916,-3.629,-3.6896,-3.7105,-3.5968,-3.7105,-3.8153,-3.8362,-3.899,-3.9409,-3.9409,-3.9409,-3.8871,-3.7524,-3.7225,-3.6357,-3.4592,-3.406,-3.3573,-3.3141,-3.216,-3.1149,-3.011,-2.853,-2.647,-2.3851,0.0,0.0,0.0,0.0,0.0,0.0,0.0,0.0,0.0,0.0,0.0,0.0,0.0,0.0,0.0,0.0,0.0,0.0,0.0,0.0,0.0,0.0,0.0,-0.8703,-0.9632,-1.0181,-0.9897,-1.0636,-1.0941,-1.0371,-1.2274,-1.429,-1.6145,-1.8317,-1.8694,-1.6967,-1.7176,-1.5813,-1.2203,-1.2067,-1.2067,-1.2067,-1.6021,-1.9726,-2.3434,-2.7354,-3.1173,-3.4858,-3.8247,-3.8854,-3.7424,-3.8574,-3.8231,-3.6602,-3.4438,-3.3418,-3.3466,-3.4242,-3.4463,-3.4816,-3.7881,-3.869,-3.8407,-3.9352,-3.9371,-3.8919,-3.8894,-3.8517,-3.804,-3.804,-3.7638,-3.7211,-3.7211,-3.681,-3.6383,-3.6383,-3.7243,-3.8107,-3.8107,-3.8546,-3.8553,-3.6957,-3.7756,-3.8359,-3.6665,-3.7994,-3.9409,-3.9409,-3.9409,-3.92,-3.8512,-3.899,0.0,-3.8512,-3.902,-3.9409,-3.9379,-3.9379,-3.8841,-3.7494,-3.6806,-3.5944,-3.4565,-3.3172,-3.2431,-3.2431,-3.1061,-3.0018,-2.947,-2.7603,-2.6233,-2.5317,0.0,0.0,0.0,0.0,0.0,0.0,0.0,0.0,0.0,0.0,0.0,0.0,0.0,0.0,0.0,0.0,0.0,0.0,0.0,0.0,0.0,0.0,-0.9551,-0.9517,-1.0046,-1.0521,-1.0765,-1.1111,-1.1267,-1.1104,-1.1607,-1.2828,-1.4745,-1.5689,-1.5928,-1.554,-1.5603,-1.4506,-1.2088,-1.2182,-1.2237,-1.2099,-1.6382,-2.0388,-2.4035,-2.8051,-3.1982,-3.5779,-3.9239,-4.0323,-3.9567,-4.0831,-4.0272,-3.8187,-3.5995,-3.4487,-3.3611,-3.5776,-3.6582,-3.6889,-3.9633,-4.0533,-4.0442,-4.037,-4.0199,-3.9998,-3.9597,-3.9094,-3.8642,-3.8642,-3.8241,-3.7789,-3.7789,-3.7387,-3.696,-3.696,-3.7552,-3.8107,-3.8107,-3.8871,-3.9643,-3.9507,-3.9406,-3.9333,-3.9262,-3.9343,-3.9409,-3.9409,-3.9409,-3.9349,-3.917,-3.929,0.0,-3.917,-3.932,-3.923,-3.8721,-3.8661,-3.8153,-3.6836,-3.6611,-3.5738,-3.3811,-3.3349,-3.322,-3.321,-3.2628,-3.2352,-3.2496,-3.0938,-2.9531,0.0,0.0,0.0,0.0,0.0,0.0,0.0,0.0,0.0,0.0,0.0,0.0,0.0,0.0,0.0,0.0,0.0,0.0,0.0,0.0,0.0,0.0,-0.9659,-1.029,-1.0453,-1.0704,-1.0968,-1.1226,-1.1443,-1.1579,-1.1579,-1.1633,-1.2561,-1.4508,-1.477,-1.4914,-1.4943,-1.4951,-1.4113,-1.2271,-1.2338,-1.2838,-1.3603,-1.6858,-2.0889,-2.5622,-2.879,-3.2298,-3.6152,-3.9627,-4.1024,0.0,-4.2099,-4.1966,-4.0502,-3.8077,-3.6593,0.0,0.0,0.0,0.0,0.0,-4.1112,-4.1605,-4.1053,-4.0993,-4.1234,-4.0901,-4.0818,-4.0821,-4.0821,-4.0402,-3.9834,-3.9277,-3.9154,-3.8919,-3.8144,-3.8898,-3.9898,-3.9651,-4.0462,-4.1194,-4.0781,-4.0495,-4.0275,-3.9782,-3.9535,0.0,-3.9409,-3.9409,-3.932,-3.902,-3.923,-3.932,-3.902,-3.923,-3.926,-3.8871,-3.8811,-3.8532,-3.7855,-3.7305,0.0,0.0,0.0,-3.4087,-3.3666,-3.3481,0.0,0.0,0.0,0.0,0.0,0.0,0.0,0.0,-2.7887,-2.7934,0.0,0.0,0.0,0.0,0.0,0.0,0.0,0.0,0.0,0.0,0.0,0.0,0.0,0.0,0.0,0.0,-1.0263,-1.0758,-1.1314,-1.1402,-1.1416,-1.1416,-1.166,-1.183,-1.183,-1.1972,-1.2799,-1.4432,-1.458,-1.4654,-1.4843,0.0,0.0,0.0,0.0,-1.3722,-1.5548,-1.7815,-2.1781,-2.7266,-2.9392,-3.2298,-3.6152,-3.9627,-4.1181,-4.1287,-4.2691,-4.3214,-4.2875,-4.0341,-3.9281,-3.8949,-3.7054,-3.6396,-3.6958,-3.9243,-4.1188,-4.2486,-4.1821,0.0,0.0,-4.269,-4.3084,-4.3586,-4.3531,-4.3117,-4.2516,-4.1405,-4.1517,-4.1534,-3.968,-4.0886,-4.2449,-4.1731,-4.2467,-4.2912,-4.1383,-4.1273,-4.1037,-3.9412,-3.9327,-3.9499,-3.9439,-3.9409,-3.92,-3.8601,-3.902,-3.92,-3.8571,-3.905,-3.9379,-3.932,0.0,0.0,-3.9539,-3.8528,-3.7638,-3.7044,-3.6233,-3.5359,-3.4442,-3.4476,-3.451,-3.4505,-3.4898,-3.538,-3.5965,-3.6376,-3.6258,-3.5515,-3.1544,-3.0882,0.0,0.0,0.0,0.0,0.0,0.0,0.0,0.0,0.0,0.0,0.0,0.0,0.0,0.0,0.0,-1.01,-1.0663,-1.1118,-1.1355,-1.1497,-1.1572,-1.1572,-1.1728,-1.183,-1.183,-1.1972,-1.2258,-1.2835,-1.2842,-1.2906,-1.3055,-1.3063,0.0,-1.2542,-1.4037,-1.542,-1.6239,-1.9369,-2.3138,-2.7266,0.0,0.0,-3.6152,-3.9627,-4.1181,-4.1287,-4.3941,-4.435,-4.2997,-4.1567,-4.0646,-4.0246,-3.9803,-4.0476,-4.1647,-4.2139,-4.3288,-4.4382,-4.3807,-4.4433,-4.5386,-4.4425,-4.4235,-4.4235,-4.3642,-4.3421,0.0,-4.3053,-4.2802,-4.2288,-4.1407,-4.184,-4.2449,-4.1731,-4.2467,-4.322,-4.2912,-4.2455,-4.1983,-4.1067,-4.0487,-4.0038,-3.9499,-3.9409,-3.9379,-3.923,-3.9349,-3.9379,-3.923,-3.9349,-3.92,-3.8661,-3.9238,-3.9406,-3.8924,-3.9178,-3.9054,-3.8388,-3.807,-3.7996,-3.8148,-3.8724,-3.8936,-3.872,-3.8821,-3.8596,-3.8089,-3.8181,-3.8612,-3.9286,-3.5826,-3.4487,0.0,0.0,0.0,0.0,0.0,0.0,0.0,0.0,0.0,0.0,0.0,-0.8628,0.0,0.0,-1.0114,-1.0636,-1.1036,-1.1328,-1.1484,-1.1572,-1.1619,-1.1619,-1.1742,-1.1864,-1.1938,-1.2088,-1.2237,-1.2386,-1.2393,-1.2427,-1.2501,-1.3414,-1.403,-1.4053,-1.6007,-1.7683,-1.9098,-2.0714,-2.4048,-2.8774,-2.9851,-3.2298,-3.6152,-3.9627,-4.1181,-4.1437,-4.4476,-4.5395,-4.4669,-4.3448,-4.3103,-4.3237,-4.2936,-4.3305,-4.4016,-4.4016,-4.4833,-4.6029,-4.5732,-4.6358,-4.7291,-4.7252,-4.7148,-4.7228,-4.7461,-4.6901,-4.599,-4.5396,-4.5072,-4.4694,-4.3409,-4.3488,-4.373,-4.3084,-4.3138,-4.3329,-4.3329,-4.2821,-4.2162,-4.1504,-4.0846,-4.0187,-3.9529,-3.9409,-3.9409,-3.9409,-3.9409,-3.9409,-3.9409,-3.9409,-3.9403,-3.9573,-3.9924,-4.0438,-4.099,-4.1331,-4.1285,-4.0745,-4.0237,-4.0059,-4.0154,-4.0518,-4.0623,-4.0524,-4.0487,-4.0304,-3.99,-3.99,-4.0265,-4.0999,-3.9476,-3.8788,0.0,0.0,0.0,0.0,0.0,0.0,0.0,0.0,-0.8323,-0.8899,-0.9137,-0.9395,-0.9903,-1.0222,-1.0588,-1.1118,-1.1307,-1.1443,-1.1599,-1.1619,-1.1619,-1.1619,-1.1742,-1.1877,-1.2006,-1.2182,-1.2338,-1.2454,-1.2488,-1.2656,-1.3112,-1.4629,-1.5693,-1.6142,-1.8118,-2.008,-2.2174,-2.2472,-2.5528,-3.0876,-3.0876,-3.2735,-3.6152,-3.9627,-4.1181,-4.1437,-4.4767,-4.6345,-4.6527,-4.5487,-4.5468,-4.6301,-4.5688,-4.5555,-4.5767,-4.5555,-4.6265,-4.7503,-4.778,-4.8338,-4.9281,-5.0306,-5.0488,-5.0485,-5.1216,-5.0231,-4.8564,-4.7576,-4.7302,-4.687,-4.5171,-4.5076,-4.5125,-4.4466,-4.3808,-4.3329,-4.3329,-4.291,-4.2342,-4.1683,-4.1025,-4.0441,-3.9926,-3.9571,-3.9409,-3.9409,-3.9409,-3.9409,-3.9409,-3.9409,-3.9737,-4.0622,-4.0894,-4.1693,-4.3498,-4.3804,-4.3703,-4.3312,-4.2557,-4.2049,-4.1812,-4.1662,-4.1589,-4.1589,-4.1589,-4.1589,-4.1589,-4.1589,-4.1741,-4.2052,-4.2329,-4.236,-0.8323,-0.8072,0.0,-0.8425,-0.8445,-0.8662,0.0,0.0,-0.9544,-1.0012,-1.0215,-1.0378,-1.0582,-1.0758,-1.0982,-1.1314,-1.1382,-1.1443,-1.1599,-1.1619,-1.1619,-1.1619,-1.1742,-1.1837,-1.1857,-1.2121,-1.2298,-1.2311,-1.2433,-1.3259,-1.5081,-1.5387,-1.6294,-1.8118,-2.023,-2.2162,-2.4022,-2.5848,-2.89,-3.2892,-3.2892,-3.402,-3.6152,-3.9627,-4.1181,-4.1437,-4.4767,-4.6806,-4.7486,-4.6717,-4.7053,-4.7846,-4.7136,-4.7605,-4.8539,-4.7299,-4.7707,-4.9133,-5.0052,-5.1241,-5.2476,-5.3028,-5.2745,-5.2093,-5.1613,-5.0231,-4.8728,-4.8646,-4.7958,-4.716,-4.6301,-4.5729,-4.5125,-4.4466,-4.3808,-4.3329,-4.3329,-4.3269,-4.303,-4.2372,-4.1713,-4.1324,-4.1423,-4.0345,-3.9409,-3.9409,-3.9409,-3.9409,-3.9409,-3.9409,-3.9737,-4.0622,-4.1396,-4.2709,-4.4817,-4.5517,-4.5807,-4.5553,-4.4784,-4.4307,-4.4305,-4.3608,-4.3204,-4.3204,-4.3204,-4.3204,-4.3204,-4.3204,-4.3402,-4.3737,-4.3767,-4.3184,-0.9137,0.0,0.0,0.0,-0.951,-0.9897,-1.031,-1.0256,-1.0229,-1.0595,-1.0643,-1.0643,-1.0711,-1.1843,-1.2741,0.0,-1.3908,-1.4348,-1.3436,-1.3224,-1.2708,-1.1502,-1.1402,-1.1545,-1.1809,-1.1945,-1.2094,-1.2277,-1.3391,-1.4517,-1.5378,-1.7815,-1.9478,-2.038,-2.3362,-2.5423,-2.6125,-2.8167,-3.0468,-3.317,-3.317,-3.4158,-3.6152,-3.9627,-4.2786,-4.5473,-4.701,-4.8284,-4.9386,-4.8436,-4.8645,-4.9728,-4.8736,-4.9161,-5.0191,-4.8837,-4.9592,-5.1391,-5.1911,-5.2807,-5.402,-5.4891,-5.4626,-5.3987,-5.394,-5.2248,-5.0279,-4.99,-4.8543,-4.7249,-4.695,-4.6381,-4.5723,-4.5035,-4.4377,-4.3808,-4.3419,-4.3329,-4.315,-4.2491,-4.2259,-4.2077,-4.1727,-4.1224,-4.0894,-4.0894,-4.006,-3.9595,-4.013,-4.017,-4.0831,-4.2574,-4.3506,-4.4692,-4.632,-4.6751,-4.6839,-4.6617,-4.6287,-4.57,-4.4745,-4.4378,-4.3975,-4.3497,-4.3497,-4.3497,-4.3497,-4.3497,-4.366,-4.3998,-4.3998,-4.3714,-0.9483,0.0,0.0,-0.9829,-1.0324,-1.0765,-1.069,-1.0649,-1.0683,-1.09,-1.0826,-1.0731,-1.0772,-1.203,0.0,-1.3942,-1.5422,-1.6037,-1.5193,-1.4466,-1.3595,-1.2072,-1.1337,-1.1185,-1.1552,-1.1701,-1.1877,-1.2142,-1.4168,-1.5613,-1.6206,-1.9596,-2.19,-2.236,-2.5744,-2.778,-2.8213,-3.0184,-3.2018,-3.402,-3.402,-3.5002,-3.6789,-4.0278,-4.4253,-4.8532,-4.8532,-4.9621,-5.1288,-4.9951,-5.0313,-5.1482,-5.0271,-5.0383,-5.1105,-5.0095,-5.1079,-5.29,-5.3253,-5.4084,-5.5215,-5.6282,-5.616,-5.5613,-5.5707,-5.375,-5.1449,-5.0972,-4.9327,-4.7764,-4.8072,-4.7418,-4.6531,-4.5919,-4.5011,-4.4137,-4.3479,-4.3329,-4.318,-4.2731,-4.265,-4.2612,-4.2365,-4.2129,-4.2078,-4.2332,-4.1095,-4.0309,-4.0961,-4.1399,-4.2326,-4.4013,-4.5304,-4.6401,-4.7342,-4.7554,-4.762,-4.7424,-4.7241,-4.6581,-4.5406,-4.4966,-4.4452,-4.3828,-4.3608,-4.3497,-4.3497,-4.3497,-4.3631,-4.3849,-4.3849,-4.3849,0.0,0.0,-1.0107,-1.0392,-1.0704,-1.0975,-1.1111,-1.1036,-1.0941,-1.0948,-1.0826,-1.0765,-1.0914,-1.0948,-1.1718,-1.3808,-1.4284,-1.4849,-1.6501,-1.5092,-1.3823,-1.3503,-1.1873,-1.0799,0.0,-1.1369,-1.1687,-1.1837,-1.4027,-1.6151,-1.809,-2.0407,-2.2509,-2.4488,-2.6502,-2.8341,-3.0168,-3.2176,-3.402,-3.5879,-3.5879,-3.6789,-3.8597,-4.2051,-4.5401,-4.8532,-4.8532,-5.0184,-5.2876,-5.1506,-5.18,-5.3054,-5.1643,-5.1135,-5.1229,-5.1105,-5.188,-5.3077,-5.4168,-5.5215,-5.636,-5.748,-5.7302,-5.6592,-5.5919,-5.375,-5.1527,-5.1827,-5.0365,-4.8973,-5.0009,-4.9032,-4.7552,-4.6981,-4.5544,-4.4137,-4.3479,-4.3329,-4.3329,-4.3299,-4.2954,-4.2949,-4.379,-4.2844,-4.2269,-4.3108,-4.252,-4.1917,-4.1917,-4.3211,-4.4125,-4.4181,-4.6116,-4.7342,-4.7385,-4.7955,-4.8267,-4.8269,-4.7535,-4.7095,-4.7058,-4.5553,-4.4709,-4.4672,-4.3901,-4.3497,-4.3497,-4.3497,-4.3532,-4.3532,-4.3532,-4.3532,0.0,0.0,-1.0568,-1.086,-1.1165,-1.1382,-1.1328,-1.1199,-1.1063,-1.0968,-1.067,-1.0446,-1.0493,-1.1612,-1.3185,-1.5281,-1.6881,-1.8139,-1.8561,-1.8211,-1.7089,-1.5115,-1.4566,0.0,0.0,0.0,0.0,-1.1667,-1.4788,-1.7184,-1.8198,-2.1443,-2.3676,-2.4623,-2.762,-2.9615,-3.031,-3.3448,-3.5957,-3.7709,-3.8861,-4.0408,-4.2051,-4.4205,-4.6949,-5.0045,-5.1071,-5.2386,-5.3698,-5.2811,-5.2515,-5.2456,-5.1558,-5.1229,-5.1293,-5.2063,-5.3077,-5.4084,-5.4505,-5.5296,-5.636,-5.7554,-5.7712,-5.7306,-5.6089,-5.4556,-5.3062,-5.2178,-5.093,-4.9931,-5.032,-4.9974,-4.9063,-4.731,-4.6484,-4.5471,-4.3698,-4.3329,-4.3329,-4.3329,-4.3476,-4.3648,-4.3958,-4.384,-4.3798,-4.4121,-4.341,-4.2982,-4.3389,-4.4393,-4.539,-4.6212,-4.6963,-4.7554,-4.7995,-4.8153,-4.8306,-4.8306,-4.8049,-4.7682,-4.7094,-4.6581,-4.5917,-4.5078,-4.4554,-4.4149,-4.3818,-4.3597,-4.3497,-4.3497,-4.3497,-4.3631,0.0,-1.0656,-1.09,-1.1301,-1.1511,-1.1579,-1.1423,-1.1274,-1.109,-1.0839,-1.0473,-1.0168,-1.0059,-1.1425,-1.3296,-1.5727,-1.7803,-1.9471,-2.0307,-1.9989,-1.8835,-1.6935,-1.64,-1.5674,0.0,0.0,0.0,-1.2477,-1.5726,-1.8011,-1.9116,-2.2348,-2.462,-2.5625,-2.8613,-3.0593,-3.1316,-3.51,-3.7822,-3.9497,-4.1309,-4.2911,-4.4499,-4.6144,-4.8577,-5.159,-5.228,-5.3275,-5.4132,-5.3204,-5.2576,-5.2127,-5.1468,-5.1229,-5.1293,-5.2063,-5.2989,-5.4084,-5.4888,-5.5889,-5.6963,-5.7628,-5.7881,-5.7611,-5.6156,-5.4974,-5.3841,-5.2815,-5.1704,-5.1005,-5.141,-5.1262,-5.0424,-4.8381,-4.7688,-4.6809,-4.4756,-4.4051,-4.3927,-4.4251,-4.436,-4.4413,-4.446,-4.4583,-4.4665,-4.4906,-4.4451,-4.4215,-4.4613,-4.5544,-4.6495,-4.7299,-4.7554,-4.7879,-4.8267,-4.8306,-4.8306,-4.8306,-4.8306,-4.8125,-4.7757,-4.7462,-4.7006,-4.63,-4.5667,-4.5082,-4.4445,-4.4103,-4.3791,-4.3497,-4.3631,-4.3786,-1.0812,-1.0982,-1.1131,-1.1694,-1.1721,-1.1565,-1.1416,-1.1246,-1.1002,-1.0548,-1.0209,-0.9897,0.0,0.0,-1.2229,-1.5166,-1.693,-1.8927,-2.1595,-2.0429,-1.9244,0.0,0.0,0.0,0.0,0.0,0.0,-1.4648,0.0,-1.8789,-2.0923,-2.3117,-2.5305,-2.7605,-2.9599,-3.1439,-3.3291,-3.6958,-3.9627,-4.1309,-4.3083,-4.4622,-4.6069,-4.7873,-5.0296,-5.2876,-5.2405,-5.2866,-5.4012,-5.2725,-5.2187,-5.2097,-5.1468,-5.1229,-5.1229,-5.1323,-5.1972,-5.3309,-5.5458,-5.6887,-5.7808,-5.7881,-5.7881,-5.7611,-5.6156,-5.4974,-5.4096,-5.3616,-5.28,-5.2241,-5.328,-5.2697,-5.163,-5.0146,-4.9082,-4.7974,-4.6493,-4.5488,-4.5153,-4.6032,-4.5597,-4.5166,-4.537,-4.5001,-4.4852,-4.5425,-4.5545,-4.5597,-4.5597,-4.6635,-4.7428,-4.7428,-4.7955,-4.8306,-4.8306,-4.8306,-4.8306,-4.8306,-4.8306,-4.8495,-4.8878,-4.817,-4.7947,-4.8314,-4.7185,-4.6184,-4.5424,-4.4986,-4.4377,-4.3603,-4.3923,-4.4035,-1.0922,-1.1315,-1.1647,-1.1677,-1.1509,-1.1409,-1.1253,-1.0934,-1.0534,-1.0086,-0.9578,-0.9096,0.0,0.0,0.0,-1.4426,-1.5883,0.0,-2.149,-2.17,0.0,0.0,0.0,-2.0084,-1.8427,-1.8472,0.0,0.0,-1.9569,-1.9965,-2.2396,-2.4736,-2.6914,-2.9071,-3.2467,-3.452,-3.5084,-3.9909,-4.258,-4.3083,-4.5885,-4.7431,-4.7873,-5.0602,-5.2039,-5.2272,-5.3187,-5.3327,-5.2695,-5.2336,-5.1917,-5.1439,-5.1289,-5.1229,-5.1293,-5.2154,-5.3165,-5.4337,-5.5698,-5.636,-5.6778,-5.7628,-5.7881,-5.7611,-5.6156,-5.5471,-5.5063,-5.3855,-5.328,-5.3179,-5.3416,-5.328,-5.257,-5.0317,-4.9608,-4.8833,-4.6705,-4.6032,-4.5889,-4.6173,-4.5759,-4.537,-4.557,-4.5431,-4.532,-4.5442,-4.6305,-4.691,-4.691,-4.7212,-4.7554,-4.8035,-4.8229,-4.8306,-4.8306,-4.8306,-4.8306,-4.8306,-4.8306,-4.8495,-4.8878,-4.8692,-4.8633,-4.8669,-4.8126,-4.7569,-4.6998,-4.6368,-4.5621,-4.4841,-4.4898,-4.4744,-1.1405,-1.169,-1.1877,-1.1811,-1.1543,-1.1294,-1.0873,-1.0527,-1.008,-0.93,-0.8825,0.0,0.0,0.0,0.0,0.0,0.0,0.0,-2.141,-2.2044,-2.2151,0.0,-2.2218,0.0,-2.0605,-2.0722,-2.161,0.0,-2.1949,-2.2242,-2.533,-2.7437,-2.9479,-3.1637,-3.4795,-3.7369,-3.9173,-4.2794,-4.4988,-4.5885,-4.8337,-4.9711,-5.0133,-5.179,-5.2526,-5.2557,0.0,-5.2905,-5.2187,-5.1887,-5.1558,-5.1229,-5.1229,-5.1229,-5.1293,-5.188,-5.3165,-5.4672,-5.5329,-5.6126,-5.7039,-5.7701,-5.7881,-5.7611,-5.6156,-5.5716,-5.5412,-5.3923,-5.3518,-5.3518,-5.3518,-5.3518,-5.2977,-5.0928,-5.0393,-4.9859,-4.7835,-4.7104,-4.6799,-4.6799,-4.6355,-4.6133,-4.6522,-4.5991,-4.5699,-4.6257,-4.6955,-4.747,-4.7756,-4.7797,-4.7919,-4.8267,-4.8306,-4.8306,-4.8306,-4.8458,-4.8568,-4.8568,-4.8568,-4.8813,-4.9416,-4.9265,-4.9306,-4.9609,-4.9289,-4.8796,-4.8151,-4.7579,-4.6877,-4.6081,-4.6186,-4.6123,-1.2018,-1.2121,-1.1938,-1.1904,-1.1576,-1.1172,-1.0426,-1.0073,-0.9459,-0.8418,0.0,-0.7753,-0.7305,-0.8573,-1.0501,-1.2956,0.0,-1.7741,-2.0798,-2.1476,-2.178,-2.2378,-2.258,-2.2875,-2.2875,-2.2996,-2.4032,-2.6023,-2.4876,-2.5636,-2.8977,-3.0531,-3.2636,-3.5557,-3.753,-4.0513,-4.4329,-4.5679,-4.7095,-4.8524,-5.0049,-5.1084,-5.1897,-5.2104,-5.2499,-5.3025,-5.2456,0.0,-5.2007,-5.1626,-5.1386,-5.1479,-5.1542,-5.1635,-5.1635,-5.1635,-5.2989,-5.4838,-5.4838,-5.6159,-5.7881,-5.7881,-5.7814,-5.7476,-5.6122,-5.5649,-5.5277,-5.389,-5.3518,-5.3518,-5.3518,-5.3518,-5.3112,-5.1589,-5.1217,-5.0811,-4.9323,-4.8353,-4.7803,-4.7803,-4.7306,-4.7101,-4.7617,-4.6604,-4.6112,-4.7255,-4.747,-4.7715,-4.8229,-4.8306,-4.8306,-4.8306,-4.8306,-4.8306,-4.8306,-4.864,-4.8813,-4.8813,-4.8881,-4.9234,-4.9974,-4.9765,-4.9924,-5.0702,-5.0358,-4.9839,-4.9137,-4.8719,-4.8143,-4.7337,-4.7615,-4.7694,-1.2099,-1.2182,-1.202,-1.2113,-1.1653,-1.1035,-1.0129,-0.9129,0.0,0.0,0.0,-0.6987,-0.6539,-0.7298,0.0,-1.0988,0.0,0.0,0.0,0.0,-2.0347,0.0,0.0,0.0,0.0,0.0,0.0,0.0,0.0,-3.1668,-3.2416,-3.2976,-3.604,-4.2184,-4.3846,-4.5762,-4.7889,-4.8109,-4.8464,-4.8736,-5.0234,-5.1041,-5.1235,-5.2406,-5.277,-5.2366,-5.2247,0.0,-5.1473,-5.2276,-5.2575,-5.2723,-5.3656,-5.3999,-5.3999,-5.3999,-5.4806,-5.5968,-5.5968,-5.6778,-5.7881,-5.7881,-5.7476,-5.6833,-5.5987,-5.5277,-5.46,-5.3754,-5.3518,-5.3518,-5.3518,-5.3518,-5.3112,-5.1589,-5.1217,-5.0811,-4.9323,-4.8861,-4.8798,-4.8798,-4.8114,-4.7562,-4.7672,-4.7378,-4.7168,-4.7385,-4.7797,-4.8153,-4.8306,-4.8306,-4.8306,-4.8306,-4.8306,-4.8306,-4.8306,-4.8345,-4.8383,-4.8383,-4.8709,-4.9108,-4.9589,-4.9872,-5.0206,-5.0702,-5.0624,-5.0527,-5.0374,-4.9977,-4.9352,-4.8577,-4.86,-4.8243,-1.2189,-1.2313,-1.2216,-1.1864,-0.8625,-0.5826,-0.7501,0.0,0.0,0.0,-0.6668,-0.6369,-0.6078,0.0,0.0,0.0,0.0,0.0,0.0,0.0,0.0,0.0,0.0,0.0,0.0,0.0,0.0,0.0,0.0,-3.3579,-3.449,-3.7002,-4.0714,-4.5884,-4.6785,-4.7649,-4.8838,-4.9581,-4.9925,-4.9925,-5.1396,-5.1953,-5.163,-5.2345,-5.2306,-5.1678,-5.1678,0.0,-5.2154,-5.2634,-5.3253,-5.3828,-5.4421,-5.4589,-5.4589,-5.4589,-5.5296,-5.6204,-5.6204,-5.6696,-5.734,-5.734,-5.7103,-5.6596,-5.548,-5.4871,-5.4431,-5.3721,-5.3518,-5.3518,-5.3518,-5.3518,-5.3112,-5.1589,-5.0608,-4.9864,-4.9154,-4.9018,-4.9107,-4.9462,-4.854,-4.7908,-4.86,-4.7992,-4.7512,-4.7797,-4.8114,-4.8306,-4.8306,-4.8306,-4.8306,-4.8306,-4.8306,-4.8306,-4.8306,-4.8495,-4.8674,-4.8915,-4.9108,-4.9475,-5.0111,-5.0111,-5.0291,-5.0702,-5.0702,-5.0702,-5.0702,-5.0504,-5.021,-4.9827,-4.9789,-4.9635,-1.2081,-1.2251,-1.2026,-1.0831,-0.641,-0.2982,-0.4922,-0.6412,0.0,0.0,-0.6064,-0.5901,-0.5779,0.0,0.0,0.0,0.0,0.0,0.0,0.0,0.0,0.0,0.0,0.0,0.0,0.0,0.0,0.0,0.0,0.0,-3.7178,-4.158,-4.5395,-4.8097,-4.8434,-4.8789,-4.9294,-5.0456,-5.0991,-5.1091,-5.224,-5.2486,-5.2007,-5.2007,-5.1708,-5.1229,-5.1229,0.0,0.0,-5.3165,-5.3913,-5.5002,-5.5247,-5.5329,-5.5329,-5.5329,-5.581,-5.6514,-5.6349,-5.6545,-5.6765,-5.6427,-5.6325,-5.6122,-5.4938,-5.4465,-5.4228,-5.3653,-5.3518,-5.3518,-5.3518,-5.3518,-5.3112,-5.1589,-5.0067,-4.9046,-4.9135,-4.9195,-4.9402,-5.009,-4.9114,-4.8448,-4.9503,-4.8518,-4.7756,-4.8229,-4.8306,-4.8306,-4.8306,-4.8306,-4.8306,-4.8306,-4.8306,-4.8306,-4.8306,-4.8676,-4.9043,-4.9356,-4.9532,-4.9924,-5.0563,-5.0358,-5.0358,-5.0702,-5.0702,-5.0702,-5.0702,-5.0702,-5.0702,-5.0702,-5.0741,-5.0798,-1.1993,-1.1993,-1.1091,-0.7621,-0.8681,-0.927,-0.4511,0.0,0.0,-0.6041,-0.5827,-0.563,-0.561,-0.5888,-0.6727,-0.869,0.0,0.0,0.0,0.0,0.0,0.0,0.0,0.0,0.0,0.0,0.0,0.0,0.0,0.0,-4.2078,-4.6206,-4.8738,-4.9022,-5.0279,-5.0911,-5.1001,-5.1095,-5.119,-5.119,-5.1285,-5.1379,-5.1319,-5.1319,-5.1289,-5.1229,-5.1229,0.0,0.0,-5.3999,-5.5052,-5.6126,-5.7222,-5.7628,-5.7628,-5.7628,-5.7628,-5.7634,-5.6959,-5.6761,-5.6596,-5.5243,-5.4803,-5.4769,-5.4634,-5.4126,-5.3585,-5.3518,-5.3518,-5.3518,-5.3518,-5.3518,-5.3112,-5.1589,-5.0067,-4.9168,-4.978,-4.9919,-5.0146,-5.0876,-5.0196,-4.9549,-4.9686,-4.8852,-4.8229,-4.8306,-4.8306,-4.8306,-4.8306,-4.8306,-4.8306,-4.8306,-4.8306,-4.8306,-4.8306,-4.8676,-4.8911,-4.8945,-4.9645,-5.0087,-5.0159,-5.0483,-5.0644,-5.0702,-5.0702,-5.0702,-5.0702,-5.0702,-5.0702,-5.0702,-5.0837,-5.0914,-1.1436,-1.1729,-1.0986,-0.7004,-0.5314,-0.4321,-0.3308,0.0,-0.5843,-0.5852,-0.5657,-0.5454,-0.5454,-0.5623,-0.6316,-0.7948,-0.8412,-1.0014,0.0,0.0,0.0,0.0,0.0,0.0,0.0,0.0,0.0,0.0,0.0,0.0,-4.6545,-4.8283,-4.9582,-5.0383,-5.0917,-5.1229,-5.1229,-5.1229,-5.1229,-5.1229,-5.1229,-5.1229,-5.1229,-5.1229,-5.1229,-5.1229,-5.1229,0.0,0.0,-5.4168,-5.5215,-5.6249,-5.6976,-5.7239,-5.7171,-5.6731,-5.6596,-5.6528,-5.6258,-5.5852,-5.5378,-5.4769,-5.4296,-5.3923,-5.3923,-5.3721,-5.3518,-5.3518,-5.3518,-5.3518,-5.3518,-5.2807,-5.186,-5.0777,-5.0066,-4.9664,-4.9919,-5.0335,-5.0946,-5.1932,-5.0832,-5.0003,-5.0935,-4.9748,-4.8744,-4.9015,-4.9011,-4.8949,-4.8674,-4.8676,-4.8568,-4.8344,-4.8306,-4.8306,-4.8306,-4.8676,-4.8978,-4.9234,-4.9819,-5.0206,-5.0462,-5.0604,-5.0702,-5.0702,-5.0702,-5.0702,-5.0702,-5.0702,-5.0741,-5.0837,-5.0875,-5.0952,-1.1009,-1.1392,-1.0894,-0.7119,-0.3625,-0.1801,0.0,-0.5174,-0.5895,-0.5815,-0.5768,-0.569,-0.5425,-0.5918,-0.6704,-0.8049,-0.8627,-1.0212,-1.387,0.0,0.0,0.0,0.0,0.0,0.0,0.0,0.0,0.0,0.0,0.0,0.0,-4.9001,-4.9809,-5.1199,-5.1229,-5.1229,-5.1229,-5.1229,-5.1229,-5.1229,-5.1229,-5.1229,-5.1229,-5.1229,-5.1229,-5.1199,-5.1361,0.0,0.0,-5.3962,-5.484,-5.5589,-5.627,-5.6461,-5.6427,-5.5919,-5.5716,-5.5683,-5.5446,-5.504,-5.4566,-5.4329,-5.3923,-5.3518,-5.3518,-5.3518,-5.3518,-5.3518,-5.3348,-5.3145,-5.3145,-5.2191,-5.1089,-5.0543,-5.039,-5.039,-5.0608,-5.1034,-5.1682,-5.2527,-5.1344,-5.0475,-5.1431,-5.0203,-4.9171,-4.9445,-4.9504,-4.9356,-4.8945,-4.8878,-4.8744,-4.8344,-4.8383,-4.8495,-4.8495,-4.8847,-4.9265,-4.9645,-5.0024,-5.038,-5.0702,-5.0702,-5.0702,-5.0702,-5.0702,-5.0702,-5.0702,-5.0741,-5.0837,-5.0914,-5.0952,-5.1099,-1.0826,-1.094,-1.0435,-0.7684,-0.5514,-0.4538,-0.6817,-0.6838,-0.6229,-0.5882,-0.6241,-0.64,-0.5557,-0.6793,-0.8246,-0.9134,-1.0541,-1.2382,-1.506,0.0,0.0,0.0,0.0,0.0,0.0,0.0,0.0,0.0,0.0,0.0,0.0,-4.8588,-4.9883,-5.1169,-5.1229,-5.1229,-5.1229,-5.1229,-5.1229,-5.1229,-5.1229,-5.1229,-5.1229,-5.1229,-5.1229,0.0,0.0,0.0,0.0,-5.3402,-5.4063,-5.4245,-5.5329,-5.5716,-5.5716,-5.5716,-5.5716,-5.5615,-5.4871,-5.46,-5.4465,-5.3754,-5.3518,-5.3518,-5.3518,-5.3518,-5.3518,-5.3518,-5.2942,-5.23,-5.23,-5.1719,-5.1187,-5.1153,-5.115,-5.1292,-5.1934,-5.2112,-5.2146,-5.2418,-5.186,-5.118,-5.0809,-5.004,-4.9504,-4.9504,-4.9504,-4.9356,-4.8945,-4.8878,-4.8744,-4.8344,-4.8676,-4.8878,-4.8878,-4.9265,-4.9645,-5.0087,-5.0483,-5.0702,-5.0702,-5.0702,-5.0702,-5.0702,-5.0702,-5.0702,-5.0702,-5.0837,-5.0914,-5.0914,-5.1106,-5.1282,-0.9456,-0.9707,-0.9788,-0.8978,-0.7903,-0.7203,-0.7731,-0.7482,-0.7319,-0.7407,-0.7502,-0.7502,-0.7251,-0.7632,-0.8617,-1.0536,-1.123,0.0,0.0,0.0,0.0,0.0,0.0,0.0,0.0,0.0,0.0,0.0,0.0,0.0,0.0,-4.9073,-4.9464,-4.9883,-4.9883,-5.0092,-5.0541,-5.1303,-5.1303,-5.0541,-5.2074,-5.1739,-4.9974,-5.1333,-5.1561,0.0,0.0,0.0,0.0,-5.3175,-5.3574,-5.3156,-5.4405,-5.4938,-5.4905,-5.4397,-5.4194,-5.416,-5.3923,-5.3856,-5.3822,-5.3585,-5.3518,-5.3518,-5.3518,-5.3518,-5.3382,-5.2841,-5.2503,-5.2194,-5.1672,-5.1356,-5.1188,-5.1134,-5.147,-5.1898,-5.247,-5.2936,-5.331,-5.3345,-5.2522,-5.1692,-5.1558,-5.0645,-4.9999,-5.0291,-5.0336,-5.0087,-4.9386,-4.9561,-4.9475,-4.8779,-4.9075,-4.9202,-4.8911,-4.9532,-4.9949,-5.0111,-5.0483,-5.0702,-5.0702,-5.0702,-5.0741,-5.0837,-5.0837,-5.0875,-5.0991,-5.1029,-5.1068,-5.1126,-5.1268,-5.1375,-0.8744,-0.9044,-0.9286,-0.918,-0.9032,-0.8741,-0.817,-0.8113,-0.8228,-0.8196,-0.8382,-0.842,-0.8096,-0.8784,-0.9736,-1.0683,-1.1602,0.0,0.0,0.0,0.0,0.0,0.0,0.0,0.0,0.0,0.0,0.0,0.0,0.0,0.0,-4.8536,-4.8536,-4.8536,-4.9015,-4.9464,-4.9883,-5.0514,-5.0781,-5.0425,-5.1849,-5.1768,-5.0457,-5.1714,-5.196,0.0,0.0,0.0,0.0,-5.3072,-5.3165,-5.2421,-5.3636,-5.416,-5.4126,-5.3687,-5.3518,-5.3518,-5.3518,-5.3518,-5.3518,-5.3518,-5.3281,-5.3044,-5.3044,-5.3044,-5.2942,-5.2435,-5.2055,-5.1788,-5.1277,-5.1368,-5.1582,-5.1728,-5.2236,-5.2889,-5.3343,-5.3794,-5.395,-5.3449,-5.2748,-5.2053,-5.1544,-5.0828,-5.0402,-5.0644,-5.0702,-5.0462,-4.9819,-4.9949,-4.9872,-4.9202,-4.9475,-4.9627,-4.9439,-4.9857,-5.0197,-5.039,-5.0661,-5.0798,-5.0875,-5.0875,-5.0914,-5.0991,-5.0962,-5.1006,-5.1083,-5.1123,-5.1172,-5.1268,-5.1379,-5.1406,0.0,-0.8737,-0.8904,-0.8605,-0.9007,-0.9321,-0.8537,-0.8718,0.0,-0.8449,-0.8864,-0.9105,-0.8366,-1.0186,-1.1396,-1.0153,-1.1992,0.0,0.0,0.0,0.0,0.0,0.0,0.0,0.0,0.0,0.0,0.0,0.0,0.0,0.0,-4.7309,-4.7309,-4.7309,-4.8506,-4.9134,-4.9194,-4.9374,-4.9847,-5.0623,-5.0932,-5.1371,-5.2044,-5.2285,-5.2365,0.0,0.0,0.0,0.0,-5.2857,-5.28,-5.1993,-5.311,-5.3518,-5.3518,-5.3518,-5.3518,-5.3518,-5.3518,-5.3518,-5.3484,-5.345,-5.2909,-5.23,-5.2298,-5.2264,-5.2264,-5.223,-5.1775,-5.1269,-5.128,-5.1721,-5.2272,-5.2821,-5.338,-5.3977,-5.442,-5.4478,-5.4073,-5.2882,-5.259,-5.2155,-5.0893,-5.0702,-5.0702,-5.0644,-5.0702,-5.0525,-5.0135,-5.0111,-4.9974,-4.9589,-4.9898,-5.0226,-5.0342,-5.0226,-5.0352,-5.0894,-5.0895,-5.0952,-5.1086,-5.1125,-5.1106,-5.1106,-5.1114,-5.1122,-5.1122,-5.1169,-5.128,-5.1406,-5.1406,-5.1406,-0.8559,0.0,-0.9051,-0.8813,-0.8937,-0.9119,0.0,-0.9264,-0.9344,-0.9629,0.0,-0.9723,-1.0238,-1.0927,-1.1696,-1.2553,0.0,0.0,0.0,0.0,0.0,0.0,0.0,0.0,0.0,0.0,0.0,0.0,0.0,0.0,0.0,-4.7309,-4.7309,-4.7309,-4.7608,-4.7997,-4.8506,-5.0164,-5.0248,-4.8917,-5.2146,-5.2238,-4.9684,-5.2122,-5.2738,0.0,0.0,0.0,-5.1786,-5.2164,-5.217,-5.1993,-5.311,-5.3518,-5.3518,-5.3518,-5.3518,-5.3518,-5.3518,-5.3518,-5.3416,-5.2773,-5.2469,-5.2295,-5.2317,-5.2295,-5.2192,-5.1641,-5.1685,-5.2024,-5.2329,-5.2498,-5.2863,-5.3865,-5.4217,-5.4452,-5.4848,-5.4438,-5.3784,-5.3184,-5.2521,-5.1774,-5.0856,-5.0702,-5.0604,-5.0291,-5.0504,-5.0462,-4.9728,-5.0183,-5.038,-4.9999,-5.0412,-5.0717,-5.0755,-5.0717,-5.0796,-5.1029,-5.1029,-5.1074,-5.1113,-5.1113,-5.1136,-5.1183,-5.1273,-5.1318,-5.1318,-5.1336,-5.1389,-5.1406,-5.1406,-5.1406,-0.9536,-0.9045,-0.8684,-0.9106,-0.9135,-0.9256,-0.9884,-0.9956,0.0,0.0,0.0,-1.0074,-1.0675,-1.1814,0.0,0.0,0.0,0.0,0.0,0.0,0.0,0.0,0.0,0.0,0.0,0.0,0.0,0.0,0.0,0.0,0.0,-4.7309,-4.7309,-4.7309,-4.7764,-4.7946,-4.7818,-4.9481,-4.994,-4.9347,-5.2039,-5.2534,-5.1005,-5.2731,-5.3179,0.0,0.0,0.0,-5.2627,-5.2627,-5.2627,-5.2697,-5.328,-5.3518,-5.3518,-5.3518,-5.3518,-5.3518,-5.3518,-5.3281,-5.2841,-5.2063,-5.1813,-5.1782,-5.176,-5.1983,-5.211,-5.1745,-5.2041,-5.2521,-5.2724,-5.3188,-5.3792,-5.4572,-5.476,-5.4876,-5.5262,-5.4724,-5.3928,-5.3315,-5.251,-5.1585,-5.0615,-5.0402,-5.0358,-5.0135,-5.0291,-5.0336,-5.0049,-5.044,-5.0663,-5.0457,-5.0737,-5.0952,-5.1029,-5.1029,-5.1068,-5.1145,-5.1145,-5.1175,-5.1224,-5.123,-5.1271,-5.1297,-5.134,-5.1406,-5.1406,-5.1406,-5.1406,-5.1406,-5.1406,-5.1406,-1.0725,-0.958,-0.8569,-0.9443,-0.9642,-0.9732,-1.0277,0.0,0.0,0.0,0.0,0.0,0.0,0.0,0.0,0.0,0.0,0.0,0.0,0.0,0.0,0.0,0.0,0.0,0.0,0.0,0.0,0.0,0.0,0.0,0.0,-4.7462,-4.7462,-4.7462,-4.8204,-4.8286,-4.7462,-4.8635,-4.9694,-5.0397,-5.1631,-5.2557,-5.328,-5.3416,-5.345,-5.3315,0.0,0.0,-5.3145,-5.3011,-5.3011,-5.3145,-5.3145,-5.3145,-5.3145,-5.3145,-5.3145,-5.3145,-5.3145,-5.2706,-5.2029,-5.138,-5.1165,-5.1211,-5.1268,-5.1738,-5.2232,-5.2394,-5.2707,-5.2987,-5.3111,-5.3863,-5.4671,-5.5107,-5.5186,-5.5224,-5.5467,-5.4895,-5.4049,-5.3164,-5.2318,-5.139,-5.0382,-5.0183,-5.0159,-5.0111,-5.0159,-5.0291,-5.0602,-5.0682,-5.0779,-5.0914,-5.0952,-5.1029,-5.1183,-5.1222,-5.1221,-5.1244,-5.1244,-5.1292,-5.1406,-5.1406,-5.1406,-5.1406,-5.1406,-5.1406,-5.1406,-5.1406,-5.1406,-5.1406,-5.1406,-5.1406,-1.1089,-1.0767,-1.0244,-1.0392,-1.0776,-1.0981,-1.0627,0.0,0.0,0.0,0.0,0.0,0.0,0.0,0.0,0.0,0.0,0.0,0.0,0.0,0.0,0.0,0.0,0.0,0.0,0.0,0.0,0.0,0.0,0.0,0.0,-4.7972,-4.7972,-4.7972,-4.8124,-4.8124,-4.7972,-5.0316,-5.108,-5.0397,-5.2345,-5.287,-5.217,-5.311,-5.3145,-5.2403,0.0,-5.1327,-5.149,-5.0624,-5.076,-5.1555,-5.1555,-5.1555,-5.1555,-5.1555,-5.1555,-5.1555,-5.1555,-5.1488,-5.138,-5.1245,-5.1198,-5.1302,-5.1836,-5.2263,-5.2815,-5.3407,-5.3604,-5.3832,-5.4564,-5.4867,-5.5107,-5.5493,-5.5599,-5.5429,-5.4818,-5.401,-5.3126,-5.2279,-5.1433,-5.0856,-5.0663,-5.0604,-5.0483,-5.0159,-5.038,-5.056,-5.0378,-5.067,-5.0914,-5.1068,-5.1106,-5.1183,-5.1183,-5.1299,-5.1354,-5.1379,-5.1389,-5.1396,-5.1406,-5.1406,-5.1406,-5.1406,-5.1406,-5.1406,-5.1406,-5.1406,-5.1406,-5.1406,-5.1406,-5.1406,-1.0421,-1.0625,-1.0868,-1.0982,-1.1797,-1.275,-1.3525,-1.323,0.0,0.0,0.0,0.0,0.0,0.0,0.0,0.0,0.0,0.0,0.0,0.0,0.0,0.0,0.0,0.0,0.0,0.0,0.0,0.0,0.0,0.0,0.0,0.0,-4.8105,-4.8105,-4.8619,-4.894,-4.894,-5.0648,-5.1048,-5.0018,-5.1528,-5.2034,-5.1563,-5.2034,-5.2063,-5.1725,0.0,-5.1094,-5.1153,-5.0693,-5.0792,-5.1217,-5.1217,-5.1217,-5.1217,-5.1217,-5.1217,-5.115,-5.0744,-5.089,-5.1123,-5.0655,-5.106,-5.1805,-5.2345,-5.2858,-5.3496,-5.4279,-5.451,-5.4572,-5.4988,-5.5262,-5.5446,-5.5682,-5.5357,-5.4934,-5.4587,-5.3433,-5.2395,-5.1972,-5.1241,-5.0624,-5.0402,-5.0358,-5.0313,-5.0135,-5.0321,-5.0505,-5.0604,-5.085,-5.1061,-5.1145,-5.1183,-5.1244,-5.1298,-5.1364,-5.1401,-5.1406,-5.1406,-5.1406,-5.1406,-5.1406,-5.1406,-5.1406,-5.1406,-5.1406,-5.1406,-5.1406,-5.1406,-5.1406,-5.1406,-5.1406,-1.01,-1.0654,-1.1421,-1.2121,-1.2774,-1.3846,-1.5774,-1.5935,0.0,0.0,0.0,0.0,0.0,0.0,0.0,0.0,0.0,0.0,0.0,0.0,0.0,0.0,0.0,0.0,0.0,0.0,0.0,0.0,0.0,0.0,0.0,0.0,-4.8278,-4.8278,-4.9115,-4.9558,-4.9558,-5.0255,-5.0456,-5.0055,-5.0858,-5.1217,-5.1217,-5.1217,-5.1116,-5.0947,-5.0947,-5.0845,-5.071,-5.071,-5.071,-5.071,-5.071,-5.071,-5.071,-5.071,-5.0803,-5.0827,-5.0249,-5.0557,-5.1081,-5.0803,-5.1387,-5.2409,-5.2987,-5.3647,-5.4251,-5.4905,-5.516,-5.5237,-5.5237,-5.5446,-5.5665,-5.5472,-5.4934,-5.4395,-5.3972,-5.2856,-5.1856,-5.1664,-5.1125,-5.0604,-5.0313,-5.023,-5.0268,-5.0268,-5.035,-5.0574,-5.0913,-5.1053,-5.1153,-5.1237,-5.1261,-5.1286,-5.1405,-5.1406,-5.1406,-5.1406,-5.1406,-5.1406,-5.1406,-5.1406,-5.1406,-5.1406,-5.1406,-5.1406,-5.1406,-5.1406,-5.1406,-5.1406,-5.1406,-5.1406,-1.1089,-1.1661,-1.2548,-1.4477,-1.3863,-1.3264,-1.5296,-1.6551,0.0,-1.9298,0.0,0.0,0.0,0.0,0.0,0.0,0.0,0.0,0.0,0.0,0.0,0.0,0.0,0.0,0.0,0.0,0.0,0.0,0.0,0.0,0.0,0.0,0.0,-4.8967,-4.9029,-4.9029,-4.9029,-4.9092,-4.9801,-5.1088,-5.1153,-5.1217,-5.1217,-5.1217,-5.0845,-5.0168,-5.0168,-4.9796,-4.9154,-4.9154,-4.9154,-4.9154,-4.9154,-4.9154,-4.9154,-4.9154,-4.9573,-5.0092,-5.0022,-5.0495,-5.1276,-5.23,-5.2657,-5.2946,-5.4043,-5.4701,-5.5015,-5.5107,-5.5375,-5.5682,-5.5682,-5.5682,-5.5511,-5.4741,-5.4549,-5.4049,-5.2433,-5.201,-5.1702,-5.0933,-5.0741,-5.0702,-5.0644,-5.0644,-5.0682,-5.0798,-5.0836,-5.0913,-5.1145,-5.1183,-5.1228,-5.1352,-5.1402,-5.1404,-5.1406,-5.1406,-5.1406,-5.1406,-5.1406,-5.1406,-5.1406,-5.1406,-5.1406,-5.1406,-5.1406,-5.1406,-5.1406,-5.1406,-5.1406,-5.1406,-5.1406,-5.1406,-1.0033,-1.1253,-1.2845,-1.3854,-1.5581,0.0,0.0,-2.0314,-2.2175,-2.3351,-2.4648,0.0,0.0,0.0,0.0,0.0,0.0,0.0,0.0,0.0,0.0,0.0,0.0,0.0,0.0,0.0,0.0,0.0,0.0,0.0,0.0,0.0,0.0,-4.7631,-4.8071,-4.8342,-4.8342,-4.8781,-4.9289,-4.983,-4.983,-4.983,-4.983,-4.983,-4.9695,-4.9424,-4.9424,-4.9255,-4.9018,-4.9018,-4.9018,-4.9018,-4.9018,-4.9256,-4.9605,-4.9605,-5.009,-5.0662,-5.0662,-5.1337,-5.2254,-5.2657,-5.3267,-5.3971,-5.4663,-5.496,-5.516,-5.5399,-5.5231,-5.5049,-5.5549,-5.5318,-5.4895,-5.4549,-5.3664,-5.2702,-5.2049,-5.151,-5.1048,-5.0741,-5.0702,-5.0702,-5.0702,-5.0779,-5.0837,-5.0914,-5.1029,-5.1106,-5.1183,-5.1256,-5.1347,-5.1406,-5.1406,-5.1406,-5.1406,-5.1406,-5.1406,-5.1406,-5.1406,-5.1406,-5.1406,-5.1406,-5.1406,-5.1406,-5.1406,-5.1406,-5.1406,-5.1406,-5.1406,-5.1406,-5.1406,-5.1406,-1.0191,-1.1661,-1.357,-1.4647,0.0,0.0,-2.1648,-2.3956,-2.6162,-2.728,-2.8757,0.0,0.0,0.0,0.0,0.0,0.0,0.0,0.0,0.0,0.0,0.0,0.0,0.0,0.0,0.0,0.0,0.0,0.0,0.0,0.0,0.0,0.0,0.0,-4.714,-4.7564,-4.7564,-4.8037,-4.8308,-4.8308,-4.8308,-4.8545,-4.9018,-4.9018,-4.9018,-4.9018,-4.9018,-4.9018,-4.9018,-4.9195,-4.9462,-4.9698,-4.9698,-4.9919,-5.0335,-5.0335,-5.0858,-5.1633,-5.1633,-5.2353,-5.3383,-5.3498,-5.4071,-5.476,-5.516,-5.5109,-5.4968,-5.5237,-5.4741,-5.4203,-5.478,-5.4511,-5.401,-5.3741,-5.2779,-5.1856,-5.1587,-5.1087,-5.0702,-5.0702,-5.0702,-5.0702,-5.0741,-5.0837,-5.0914,-5.0991,-5.1106,-5.1218,-5.1256,-5.1341,-5.1406,-5.1406,-5.1406,-5.1406,-5.1406,-5.1406,-5.1406,-5.1406,-5.1406,-5.1406,-5.1406,-5.1406,-5.1406,-5.1406,-5.1406,-5.1406,-5.1406,-5.1406,-5.1406,-5.1406,-5.1406,-5.1406,-1.2026,-1.3174,0.0,0.0,0.0,0.0,-2.424,-2.6871,-2.9238,-3.0906,0.0,0.0,0.0,0.0,0.0,0.0,0.0,0.0,0.0,0.0,0.0,0.0,0.0,0.0,0.0,0.0,0.0,0.0,0.0,0.0,0.0,0.0,0.0,0.0,-4.6301,-4.6786,-4.6786,-4.6786,-4.6786,-4.6786,-4.6786,-4.7564,-4.8984,-4.8984,-4.8984,-4.8984,-4.8984,-4.8984,-4.9046,-4.9688,-5.0445,-5.1086,-5.1086,-5.1138,-5.1138,-5.1138,-5.1874,-5.2784,-5.2784,-5.3535,-5.4547,-5.496,-5.5069,-5.5148,-5.5538,-5.5126,-5.4472,-5.4472,-5.3857,-5.3203,-5.3203,-5.3164,-5.2972,-5.2125,-5.1895,-5.1664,-5.0856,-5.0702,-5.0702,-5.0702,-5.0702,-5.0741,-5.0875,-5.0914,-5.0991,-5.1183,-5.1203,-5.1252,-5.1361,-5.1406,-5.1406,-5.1406,-5.1406,-5.1406,-5.1406,-5.1406,-5.1406,-5.1406,-5.1406,-5.1406,-5.1406,-5.1406,-5.1406,-5.1406,-5.1406,-5.1406,-5.1406,-5.1406,-5.1406,-5.1406,-5.1406,-5.1406,-1.146,0.0,0.0,0.0,0.0,0.0,0.0,-2.8727,0.0,0.0,0.0,0.0,0.0,0.0,0.0,0.0,0.0,0.0,0.0,0.0,0.0,0.0,0.0,0.0,0.0,0.0,0.0,0.0,0.0,0.0,0.0,0.0,0.0,0.0,-4.4128,-4.4797,-4.6007,-4.5912,-4.6179,-4.6786,-4.6786,-4.7022,-4.7462,-4.7462,-4.7462,-4.7488,-4.7888,-4.8083,-4.8139,-4.8783,-4.9203,-4.9493,-5.0342,-5.0984,-5.1544,-5.2412,-5.3234,-5.4008,-5.4008,-5.4,-5.403,-5.4139,-5.4,-5.3788,-5.3913,-5.378,-5.3587,-5.3587,-5.2972,-5.2279,-5.2279,-5.1856,-5.151,-5.1818,-5.1471,-5.0971,-5.0741,-5.0702,-5.0702,-5.0702,-5.0779,-5.0875,-5.0914,-5.1029,-5.1145,-5.1183,-5.1292,-5.1367,-5.1406,-5.1406,-5.1406,-5.1406,-5.1406,-5.1406,-5.1406,-5.1406,-5.1406,-5.1406,-5.1406,-5.1406,-5.1406,-5.1406,-5.1406,-5.1406,-5.1406,-5.1406,-5.1406,-5.1406,-5.1406,-5.1406,-5.1406,-5.1094,-1.3655,0.0,0.0,0.0,0.0,0.0,0.0,0.0,0.0,0.0,0.0,0.0,0.0,0.0,0.0,0.0,0.0,0.0,0.0,0.0,0.0,0.0,0.0,0.0,0.0,0.0,0.0,0.0,0.0,0.0,0.0,0.0,0.0,0.0,-4.2846,-4.367,-4.4733,-4.5016,-4.5513,-4.6293,-4.6293,-4.6405,-4.6645,-4.7021,-4.7295,-4.7596,-4.7908,-4.8277,-4.8549,-4.9115,-4.9496,-4.9836,-5.068,-5.1339,-5.1825,-5.2522,-5.3225,-5.3754,-5.3754,-5.3666,-5.3566,-5.3566,-5.3398,-5.3203,-5.3203,-5.2972,-5.2702,-5.2702,-5.2087,-5.1433,-5.1433,-5.1048,-5.0818,-5.1318,-5.1048,-5.0702,-5.0702,-5.0702,-5.0702,-5.0779,-5.0837,-5.0952,-5.1029,-5.1106,-5.1236,-5.1282,-5.1352,-5.1406,-5.1406,-5.1406,-5.1406,-5.1406,-5.1406,-5.1406,-5.1406,-5.1406,-5.1406,-5.1406,-5.1406,-5.1406,-5.1406,-5.1406,-5.1406,-5.1406,-5.1406,-5.1406,-5.1406,-5.1406,-5.1406,-5.1406,-5.1055,-5.0664,-1.7179,0.0,0.0,0.0,0.0,0.0,0.0,0.0,0.0,0.0,0.0,0.0,0.0,0.0,0.0,0.0,0.0,0.0,0.0,0.0,0.0,0.0,0.0,0.0,0.0,0.0,0.0,0.0,0.0,0.0,0.0,0.0,0.0,-4.069,-4.2269,-4.3108,-4.3323,-4.4179,-4.4872,-4.5494,-4.5545,-4.5915,-4.6531,-4.7247,-4.7963,-4.8572,-4.8635,-4.9019,-4.9655,-5.0057,-5.0564,-5.1183,-5.1651,-5.1843,-5.1873,-5.1979,-5.2285,-5.2654,-5.2654,-5.2847,-5.3087,-5.3087,-5.3049,-5.2972,-5.2972,-5.2433,-5.1779,-5.1779,-5.1279,-5.0702,-5.0702,-5.0702,-5.0702,-5.0702,-5.0702,-5.0702,-5.0702,-5.0702,-5.0741,-5.0875,-5.0914,-5.0991,-5.1183,-5.1221,-5.1256,-5.1361,-5.1406,-5.1406,-5.1406,-5.1406,-5.1406,-5.1406,-5.1406,-5.1406,-5.1406,-5.1406,-5.1406,-5.1406,-5.1406,-5.1406,-5.1406,-5.1406,-5.1406,-5.1406,-5.1406,-5.1406,-5.1406,-5.1406,-5.1406,-5.1367,-5.0586,-5.0156,0.0,-1.8542,0.0,0.0,0.0,0.0,0.0,0.0,0.0,0.0,0.0,0.0,0.0,0.0,0.0,0.0,0.0,0.0,0.0,0.0,0.0,0.0,0.0,0.0,0.0,0.0,0.0,0.0,0.0,0.0,0.0,0.0,0.0,-4.069,-4.1064,-4.1949,-4.3323,-4.392,-4.4702,0.0,-4.5965,-4.6542,-4.7168,-4.6814,-4.7039,-4.7715,-4.8,-4.8485,-4.9083,-4.9492,-4.9753,-4.9988,-5.1033,-5.1421,-5.1561,-5.2533,-5.2976,-5.3059,-5.3059,-5.2679,-5.2202,-5.2202,-5.1741,-5.1241,-5.1241,-5.1087,-5.0971,-5.0971,-5.0818,-5.0702,-5.0702,-5.0702,-5.0702,-5.0702,-5.0702,-5.0702,-5.0702,-5.0779,-5.0875,-5.0914,-5.1029,-5.1145,-5.1183,-5.1275,-5.1385,-5.1406,-5.1406,-5.1406,-5.1406,-5.1406,-5.1406,-5.1406,-5.1406,-5.1406,-5.1406,-5.1406,-5.1406,-5.1406,-5.1406,-5.1406,-5.1406,-5.1406,-5.1406,-5.1406,-5.1406,-5.1406,-5.1406,-5.1406,-5.1406,-5.1367,-5.0586,-4.9844,0.0,0.0,0.0,0.0,0.0,0.0,0.0,0.0,0.0,0.0,0.0,0.0,0.0,0.0,0.0,0.0,0.0,0.0,0.0,0.0,0.0,0.0,0.0,0.0,0.0,0.0,0.0,0.0,0.0,0.0,0.0,-4.0653,-4.0826,-4.1264,-4.1723,-4.2518,-4.3689,-4.4449,-4.539,-4.6401,-4.6892,-4.7579,-4.8384,-4.7855,-4.7813,-4.8122,-4.8526,-4.8903,-4.9234,-4.9617,-4.9792,-4.9884,-5.0688,-5.0993,-5.1092,-5.1777,-5.201,-5.201,-5.201,-5.1702,-5.1318,-5.1318,-5.1048,-5.0702,-5.0702,-5.0702,-5.0702,-5.0702,-5.0702,-5.0702,-5.0702,-5.0702,-5.0702,-5.0702,-5.0702,-5.0702,-5.0779,-5.0875,-5.0952,-5.1029,-5.1145,-5.1215,-5.1264,-5.1367,-5.1406,-5.1406,-5.1406,-5.1406,-5.1406,-5.1406,-5.1406,-5.1406,-5.1406,-5.1406,-5.1406,-5.1406,-5.1406,-5.1406,-5.1406,-5.1406,-5.1406,-5.1406,-5.1406,-5.1406,-5.1406,-5.1406,-5.1406,-5.1406,-5.1406,-5.1367,-5.0586,-4.9961,0.0,0.0,0.0,0.0,0.0,0.0,0.0,0.0,0.0,0.0,0.0,0.0,0.0,0.0,0.0,0.0,0.0,0.0,0.0,0.0,0.0,0.0,0.0,0.0,0.0,0.0,0.0,0.0,0.0,0.0,-4.1981,-4.2077,-4.2141,-4.2141,-4.3131,-4.3863,-4.4347,-4.5407,-4.6424,-4.7518,-4.8011,-4.8661,-4.9475,-4.9234,-4.9075,-4.9011,-4.9416,-4.9589,-4.9617,-5.0024,-5.0206,-5.023,-5.0584,-5.0702,-5.0702,-5.0702,-5.0702,-5.0702,-5.0702,-5.0702,-5.0702,-5.0702,-5.0702,-5.0702,-5.0702,-5.0702,-5.0702,-5.0702,-5.0702,-5.0702,-5.0702,-5.0702,-5.0702,-5.0702,-5.0702,-5.0741,-5.0875,-5.0952,-5.0991,-5.1183,-5.1198,-5.127,-5.1398,-5.1406,-5.1406,-5.1406,-5.1406,-5.1406,-5.1406,-5.1406,-5.1406,-5.1406,-5.1406,-5.1406,-5.1406,-5.1406,-5.1406,-5.1406,-5.1406,-5.1406,-5.1406,-5.1406,-5.1406,-5.1406,-5.1406,-5.1406,-5.1406,-5.1406,-5.1406,-5.1367,-5.0586,-5.0195,0.0,0.0,0.0,0.0,0.0,0.0,0.0,0.0,0.0,0.0,0.0,0.0,0.0,0.0,0.0,0.0,0.0,0.0,0.0,0.0,0.0,0.0,0.0,0.0,0.0,0.0,0.0,0.0,0.0,0.0,-4.1981,-4.2512,-4.278,-4.278,-4.4224,-4.501,-4.5079,-4.6801,-4.7779,-4.7897,-4.8833,-4.9348,-4.9504,-4.9819,-4.9728,-4.9445,-4.9846,-4.9999,-5.0024,-5.0462,-5.0624,-5.0624,-5.0702,-5.0702,-5.0702,-5.0702,-5.0702,-5.0702,-5.0702,-5.0702,-5.0702,-5.0702,-5.0702,-5.0702,-5.0702,-5.0702,-5.0702,-5.0702,-5.0702,-5.0702,-5.0702,-5.0702,-5.0702,-5.0702,-5.0779,-5.0875,-5.0914,-5.1029,-5.1183,-5.1183,-5.1307,-5.1398,-5.1406,-5.1406,-5.1406,-5.1406,-5.1406,-5.1406,-5.1406,-5.1406,-5.1406,-5.1406,-5.1406,-5.1406,-5.1406,-5.1406,-5.1406,-5.1406,-5.1406,-5.1406,-5.1406,-5.1406,-5.1406,-5.1406,-5.1406,-5.1406,-5.1406,-5.1406,-5.1406,-5.1367,-5.0586,-5.0195,0.0,0.0,0.0,0.0,0.0,0.0,0.0,0.0,0.0,0.0,0.0,0.0,0.0,0.0,0.0,0.0,0.0,0.0,0.0,0.0,0.0,0.0,0.0,0.0,0.0,0.0,0.0,0.0,0.0,-4.3977,-4.3977,-4.4511,-4.4852,-4.4852,-4.554,-4.6068,-4.6447,-4.7461,-4.8381,-4.9175,-4.9607,-4.9949,-5.0183,-5.0358,-5.0206,-4.9872,-5.0252,-5.044,-5.0462,-5.0624,-5.0702,-5.0702,-5.0702,-5.0702,-5.0702,-5.0702,-5.0702,-5.0702,-5.0702,-5.0702,-5.0702,-5.0702,-5.0702,-5.0702,-5.0702,-5.0702,-5.0702,-5.0702,-5.0702,-5.0702,-5.0702,-5.0702,-5.0702,-5.0779,-5.0914,-5.1029,-5.1068,-5.1145,-5.1233,-5.1278,-5.1375,-5.1406,-5.1406,-5.1406,-5.1406,-5.1406,-5.1016,-5.0898,-5.1328,-5.1016,-5.0898,-5.1367,-5.1406,-5.1406,-5.1406,-5.1406,-5.1406,-5.1406,-5.1406,-5.1406,-5.1406,-5.1406,-5.1406,-5.1406,-5.1406,-5.1406,-5.1406,-5.1406,-5.1406,-5.1406,-5.1055,-5.0859,0.0,0.0,0.0,0.0,0.0,0.0,0.0,0.0,0.0,0.0,0.0,0.0,0.0,0.0,0.0,0.0,0.0,0.0,0.0,0.0,0.0,0.0,0.0,0.0,0.0,0.0,0.0,0.0,0.0,-4.5107,-4.5107,-4.5705,-4.6087,-4.6186,-4.6319,-4.6663,-4.7268,-4.7646,-4.8558,-4.9924,-4.9924,-5.0189,-5.0702,-5.0702,-5.0525,-5.0291,-5.0584,-5.0702,-5.0702,-5.0702,-5.0702,-5.0702,-5.0702,-5.0702,-5.0702,-5.0702,-5.0702,-5.0702,-5.0702,-5.0702,-5.0702,-5.0702,-5.0702,-5.0702,-5.0702,-5.0702,-5.0702,-5.0702,-5.0702,-5.0702,-5.0702,-5.0741,-5.0779,-5.0875,-5.1029,-5.1143,-5.1246,-5.1252,-5.1292,-5.1398,-5.1406,-5.1328,-5.1133,-5.125,-5.125,-5.082,-5.043,-5.043,-5.1016,-5.0586,-5.0508,-5.1328,-5.1406,-5.1406,-5.1406,-5.1406,-5.1406,-5.1406,-5.1406,-5.1406,-5.1406,-5.1406,-5.1406,-5.1406,-5.1406,-5.1406,-5.1406,-5.1406,-5.1406,-5.1406,-5.1406,-5.1406,0.0,0.0,0.0,0.0,0.0,0.0,0.0,0.0,0.0,0.0,0.0,0.0,0.0,0.0,0.0,0.0,0.0,0.0,0.0,0.0,0.0,0.0,0.0,0.0,0.0,0.0,0.0,0.0,0.0,-4.4082,-4.4082,-4.4693,-4.5236,-4.5516,-4.6094,-4.6594,-4.7024,-4.734,-4.8159,-4.9452,-4.9452,-4.9894,-5.0702,-5.0702,-5.0702,-5.0644,-5.0702,-5.0702,-5.0702,-5.0702,-5.0702,-5.0702,-5.0702,-5.0702,-5.0702,-5.0702,-5.0702,-5.0702,-5.0702,-5.0702,-5.0702,-5.0702,-5.0702,-5.0702,-5.0702,-5.0702,-5.0702,-5.0702,-5.0702,-5.0702,-5.0702,-5.0779,-5.0914,-5.0914,-5.1068,-5.1238,-5.1379,-5.1404,-5.1405,-5.1406,-5.1406,-5.1172,-5.0391,-5.0898,-5.0859,-4.9258,-4.9687,-5.0234,-5.0273,-5.0234,-5.0508,-5.1328,-5.1406,-5.1406,-5.1406,-5.1406,-5.1406,-5.1406,-5.1406,-5.1406,-5.1406,-5.1406,-5.1406,-5.1406,-5.1406,-5.1406,-5.1406,-5.1406,-5.1406,-5.1406,-5.1406,-5.1406,0.0,0.0,0.0,0.0,0.0,0.0,0.0,0.0,0.0,0.0,0.0,0.0,0.0,0.0,0.0,0.0,0.0,0.0,0.0,0.0,0.0,0.0,0.0,0.0,0.0,0.0,0.0,0.0,0.0,0.0,-4.4671,-4.524,-4.5625,-4.5737,-4.6194,-4.6697,-4.7302,-4.7424,-4.7881,-4.8586,-4.8586,-4.874,-4.9048,-4.9048,-4.9356,-4.9856,-4.9856,-5.0164,-5.0702,-5.0702,-5.0702,-5.0702,-5.0702,-5.0702,-5.0702,-5.0702,-5.0702,-5.0702,-5.0702,-5.0702,-5.0702,-5.0702,-5.0702,-5.0702,-5.0702,-5.0702,-5.0702,-5.0702,-5.0702,-5.0702,-5.0837,-5.0875,-5.0798,-5.0394,-5.0433,-5.041,-4.9905,-5.0625,-5.1406,-5.1406,-5.1406,-5.1328,-5.1016,-5.0781,-5.043,-4.9805,-4.9062,-4.8711,-4.9297,-4.9375,-4.9492,-4.9766,-5.0742,-5.1172,-5.0664,-5.1094,-5.1406,-5.1406,-5.1406,-5.1406,-5.1406,-5.1406,-5.1406,-5.1406,-5.1406,-5.1406,-5.1406,-5.1406,-5.1406,-5.1406,-5.1406,-5.1406,-1.3779,0.0,0.0,0.0,0.0,0.0,0.0,0.0,0.0,0.0,0.0,0.0,0.0,0.0,0.0,0.0,0.0,0.0,0.0,0.0,0.0,0.0,0.0,0.0,0.0,0.0,0.0,0.0,0.0,0.0,-4.4481,-4.4894,-4.5217,-4.5449,-4.5791,-4.6263,-4.6866,-4.6887,-4.7124,-4.7702,-4.7702,-4.7855,-4.8086,-4.8086,-4.8432,-4.8971,-4.8971,-4.9625,-5.0702,-5.0702,-5.0702,-5.0702,-5.0702,-5.0702,-5.0702,-5.0702,-5.0702,-5.0702,-5.0702,-5.0702,-5.0702,-5.0702,-5.0702,-5.0702,-5.0702,-5.0702,-5.0702,-5.0702,-5.0741,-5.0779,-5.0875,-5.0741,-5.0527,-5.0143,-4.9925,-4.9614,-4.9016,-5.0,-5.1016,-5.1016,-5.1211,-5.1328,-5.1055,-5.0547,-5.0,-4.9414,-4.8594,-4.8242,-4.8828,-4.8906,-4.9023,-4.9297,-5.0312,-5.0781,-5.0234,-5.0937,-5.1289,-5.1016,-5.1016,-5.0859,-5.0586,-5.0859,-5.1016,-5.1016,-5.125,-5.1406,-5.1406,-5.1406,-5.1406,-5.1406,-5.1406,-5.125,0.0,0.0,0.0,0.0,0.0,0.0,0.0,0.0,0.0,0.0,0.0,0.0,0.0,0.0,0.0,0.0,0.0,0.0,0.0,0.0,0.0,0.0,0.0,0.0,0.0,0.0,0.0,0.0,0.0,-4.3424,-4.3424,-4.3458,-4.3818,-4.4599,-4.4919,-4.5263,-4.5586,-4.5586,-4.6009,-4.6855,-4.6855,-4.7278,-4.8048,-4.8048,-4.8048,-4.8048,-4.8048,-4.9048,-5.0625,-5.0625,-5.0664,-5.0664,-5.0702,-5.0702,-5.0702,-5.0702,-5.0702,-5.0702,-5.0702,-5.0702,-5.0702,-5.0702,-5.0702,-5.0702,-5.0702,-5.0702,-5.0702,-5.0702,-5.0798,-5.0914,-5.0914,-5.0452,-5.0039,-5.0136,-4.9492,-4.8867,-4.8828,-4.9492,-5.0117,-5.0156,-5.0781,-5.1094,-5.0312,-5.0156,-4.9531,-4.7851,-4.8281,-4.8828,-4.8867,-4.8867,-4.918,-5.0039,-5.0156,-5.0156,-5.0117,-5.0859,-5.0976,-5.0195,-5.0156,-4.9766,-4.8945,-4.9726,-5.0156,-5.0195,-5.0976,-5.1367,-5.1367,-5.1406,-5.1406,-5.1367,-5.1328,-5.0898,-1.2575,0.0,0.0,0.0,0.0,0.0,0.0,0.0,0.0,0.0,0.0,0.0,0.0,0.0,0.0,0.0,0.0,0.0,0.0,0.0,0.0,0.0,0.0,0.0,0.0,0.0,0.0,0.0,-4.1705,-4.1772,-4.1772,-4.2575,-4.349,-4.4561,-4.4919,-4.5263,-4.5586,-4.5586,-4.5701,-4.597,-4.597,-4.6086,-4.6278,-4.6278,-4.6624,-4.724,-4.724,-4.7855,-4.8856,-4.951,-4.974,-4.9817,-5.0433,-5.0702,-5.0702,-5.0702,-5.0702,-5.0702,-5.0702,-5.0702,-5.0702,-5.0702,-5.0702,-5.0702,-5.0702,-5.0702,-5.0702,-5.0837,-5.0875,-5.0952,-5.1068,-5.0622,-4.9996,-4.9412,-4.8594,-4.7773,-4.7148,-4.7695,-4.8516,-4.9141,-4.9453,-4.9531,-4.9297,-4.875,-4.8164,-4.7656,-4.7266,-4.7266,-4.7891,-4.7969,-4.8047,-4.8281,-4.8867,-4.8984,-4.8359,-4.9101,-4.9492,-4.9258,-4.9258,-4.9141,-4.8906,-4.9141,-4.957,-5.0195,-5.043,-5.0547,-5.0547,-5.1133,-5.1094,-5.0508,-4.9883,-4.9453,-1.3357,-1.441,0.0,0.0,0.0,0.0,0.0,0.0,0.0,0.0,0.0,0.0,0.0,0.0,0.0,0.0,0.0,0.0,0.0,0.0,0.0,0.0,0.0,0.0,0.0,0.0,0.0,-4.1079,-4.1111,-4.1111,-4.1111,-4.1736,-4.2537,-4.3542,-4.3739,-4.4069,-4.4547,-4.4547,-4.4739,-4.5047,-4.5047,-4.524,-4.5586,-4.5586,-4.5893,-4.6355,-4.6355,-4.6624,-4.7124,-4.8009,-4.8548,-4.8894,-4.9433,-4.9817,-5.0164,-5.0164,-5.0394,-5.0702,-5.0702,-5.0702,-5.0702,-5.0702,-5.0702,-5.0702,-5.0779,-5.0779,-5.0837,-5.0952,-5.0991,-5.1008,-5.0843,-5.0204,-4.9453,-4.8555,-4.7695,-4.6914,-4.6406,-4.6719,-4.7305,-4.8203,-4.8828,-4.9219,-4.9219,-4.8437,-4.793,-4.8398,-4.7851,-4.7578,-4.8086,-4.8125,-4.8008,-4.7656,-4.8047,-4.8164,-4.7656,-4.8398,-4.875,-4.8398,-4.8359,-4.8203,-4.7812,-4.8164,-4.8789,-4.9648,-5.0,-5.0195,-5.0195,-5.0664,-5.0469,-4.9648,-4.875,-4.8359,-1.4653,-1.5151,-1.6338,0.0,0.0,0.0,-2.0368,-2.0113,0.0,0.0,0.0,0.0,0.0,0.0,0.0,0.0,0.0,0.0,0.0,0.0,0.0,0.0,0.0,0.0,0.0,-4.0516,-4.0855,-4.0855,-4.0855,-4.0891,-4.0965,-4.0997,-4.1364,-4.2084,-4.2133,-4.2433,-4.3085,-4.3085,-4.347,-4.4162,-4.4162,-4.4586,-4.5316,-4.5393,-4.547,-4.547,-4.5547,-4.5586,-4.5663,-4.6432,-4.724,-4.7971,-4.8086,-4.8586,-4.924,-4.924,-4.974,-5.0433,-5.051,-5.0548,-5.0548,-5.0664,-5.0702,-5.0741,-5.0875,-5.0914,-5.0932,-5.1087,-5.1105,-5.0966,-5.0331,-4.9492,-4.8555,-4.7773,-4.6914,-4.6289,-4.6289,-4.6289,-4.6523,-4.7305,-4.8476,-4.9336,-4.9336,-4.8476,-4.8164,-4.918,-4.9023,-4.8789,-4.8789,-4.8672,-4.8359,-4.7656,-4.75,-4.7461,-4.7461,-4.8164,-4.8281,-4.75,-4.7461,-4.7109,-4.6328,-4.7031,-4.7851,-4.875,-4.9531,-4.9922,-4.9922,-4.9922,-4.9492,-4.8711,-4.7851,-4.7461,-1.6161,-1.6888,-1.7753,-1.7974,0.0,0.0,0.0,-1.8556,0.0,0.0,0.0,0.0,0.0,0.0,0.0,0.0,0.0,0.0,0.0,0.0,0.0,0.0,0.0,0.0,0.0,-3.9103,-3.9166,-3.9166,-3.9166,-3.946,-4.0084,-4.0385,-4.1016,-4.2046,-4.2367,-4.2699,-4.3085,-4.3085,-4.3162,-4.3316,-4.3316,-4.3431,-4.3624,-4.4239,-4.4547,-4.4586,-4.5278,-4.5586,-4.5586,-4.5778,-4.6355,-4.7201,-4.7855,-4.8202,-4.8355,-4.8355,-4.8471,-4.8702,-4.9394,-4.9663,-4.9779,-5.0606,-5.0875,-5.0914,-5.1029,-5.1045,-5.1076,-5.118,-5.0802,-5.037,-5.0233,-4.9023,-4.7812,-4.7656,-4.6914,-4.6289,-4.6289,-4.6289,-4.6367,-4.6523,-4.6797,-4.6953,-4.6953,-4.6797,-4.6719,-4.6914,-4.7656,-4.8164,-4.8164,-4.7383,-4.6992,-4.7539,-4.6953,-4.6562,-4.6562,-4.6719,-4.6719,-4.6562,-4.6562,-4.6484,-4.6328,-4.6445,-4.6953,-4.7851,-4.8008,-4.8125,-4.8125,-4.8125,-4.8008,-4.7812,-4.6953,-4.6562,-1.7134,-1.7368,-1.8053,-1.9157,0.0,0.0,0.0,0.0,0.0,0.0,0.0,0.0,0.0,0.0,0.0,0.0,0.0,0.0,0.0,0.0,0.0,0.0,0.0,0.0,0.0,-3.7514,-3.7514,-3.7514,-3.7881,-3.8285,-3.8652,-3.9369,-4.0087,-4.0825,-4.1157,-4.1513,-4.1816,-4.1816,-4.2008,-4.247,-4.247,-4.2701,-4.3124,-4.3508,-4.3932,-4.4316,-4.4739,-4.5201,-4.5586,-4.5586,-4.5855,-4.6278,-4.6701,-4.7124,-4.7509,-4.7509,-4.7817,-4.8279,-4.8702,-4.8914,-4.901,-4.9529,-4.9693,-4.9745,-4.9874,-4.9938,-5.0015,-5.0032,-4.983,-4.9453,-4.9023,-4.8242,-4.75,-4.707,-4.6601,-4.6289,-4.6289,-4.6289,-4.6289,-4.6289,-4.6289,-4.6289,-4.6289,-4.6289,-4.6289,-4.6289,-4.6797,-4.7461,-4.8359,-4.7969,-4.7422,-4.6992,-4.6562,-4.6289,-4.6289,-4.6289,-4.6289,-4.6289,-4.6289,-4.6289,-4.6289,-4.6289,-4.6719,-4.7578,-4.7617,-4.7617,-4.7617,-4.7148,-4.6953,-4.6953,-4.6484,-4.6289,0.0,0.0,0.0,0.0,0.0,-1.9266,0.0,0.0,0.0,-1.9362,0.0,0.0,0.0,0.0,0.0,0.0,0.0,0.0,0.0,0.0,0.0,0.0,0.0,0.0,0.0,-3.5826,-3.5936,-3.6266,-3.6597,-3.6927,-3.7221,-3.8146,-3.8864,-3.9354,-3.9675,-4.0041,-4.0508,-4.0508,-4.0854,-4.1546,-4.1546,-4.1931,-4.2585,-4.2777,-4.3201,-4.3816,-4.4008,-4.447,-4.5124,-4.5124,-4.5201,-4.5355,-4.5509,-4.6047,-4.6701,-4.6701,-4.7201,-4.7855,-4.8022,-4.8155,-4.8274,-4.8491,-4.8551,-4.8621,-4.872,-4.8794,-4.8906,-4.8906,-4.8789,-4.8476,-4.7773,-4.7461,-4.7187,-4.6484,-4.6289,-4.6289,-4.6289,-4.6289,-4.6289,-4.6289,-4.6289,-4.6289,-4.6289,-4.6289,-4.6289,-4.6289,-4.6289,-4.6797,-4.8203,-4.8398,-4.7851,-4.6445,-4.6289,-4.6289,-4.6289,-4.6289,-4.6289,-4.6289,-4.6289,-4.6289,-4.6289,-4.6289,-4.6641,-4.7344,-4.7344,-4.7344,-4.7344,-4.6641,-4.6289,-4.6289,-4.6289,-4.6289,0.0,0.0,0.0,0.0,-2.1712,0.0,0.0,0.0,-2.0085,-1.8461,0.0,0.0,0.0,0.0,0.0,0.0,0.0,0.0,0.0,0.0,0.0,0.0,0.0,0.0,0.0,0.0,-3.4688,-3.6193,-3.5018,-3.4871,-3.634,-3.6785,-3.7442,-3.8486,-3.8801,-3.9468,-4.0469,-4.0508,-4.0546,-4.0662,-4.0662,-4.07,-4.0816,-4.1585,-4.2008,-4.2124,-4.2893,-4.3278,-4.3393,-4.3393,-4.3816,-4.4509,-4.5278,-4.574,-4.5911,-4.5911,-4.6026,-4.6271,-4.7039,-4.732,-4.7512,-4.8369,-4.8755,-4.8864,-4.8858,-4.8903,-4.8906,-4.8906,-4.8359,-4.7734,-4.7617,-4.7031,-4.6406,-4.6328,-4.6289,-4.6289,-4.6289,-4.6289,-4.6289,-4.6289,-4.6289,-4.6289,-4.6289,-4.6289,-4.6289,-4.6289,-4.6289,-4.6367,-4.6562,-4.6601,-4.6523,-4.6328,-4.6289,-4.6289,-4.6289,-4.6289,-4.6289,-4.6289,-4.6289,-4.6289,-4.6289,-4.6289,-4.6367,-4.6445,-4.6445,-4.6445,-4.6445,-4.6367,-4.6289,-4.6289,-4.6289,-4.6289,0.0,0.0,0.0,0.0,0.0,0.0,-2.0136,0.0,-2.0473,0.0,0.0,0.0,0.0,0.0,0.0,0.0,0.0,0.0,0.0,0.0,0.0,0.0,0.0,0.0,0.0,0.0,0.0,0.0,0.0,-3.3303,-3.4992,-3.569,-3.6494,-3.7618,-3.7946,-3.8644,-3.9777,-3.9777,-4.0046,-4.0508,-4.0508,-4.0508,-4.0508,-4.0893,-4.1316,-4.1816,-4.22,-4.2624,-4.3085,-4.3085,-4.3316,-4.3739,-4.4641,-4.5295,-4.5791,-4.5827,-4.5926,-4.6061,-4.6428,-4.66,-4.6757,-4.715,-4.7338,-4.7383,-4.7383,-4.7383,-4.7383,-4.7383,-4.7148,-4.6836,-4.6836,-4.6562,-4.6289,-4.6289,-4.6289,-4.6289,-4.6289,-4.6289,-4.6289,-4.6289,-4.6289,-4.6289,-4.6289,-4.6289,-4.6289,-4.6289,-4.6289,-4.6289,-4.6289,-4.6289,-4.6289,-4.6289,-4.6289,-4.6289,-4.6289,-4.6289,-4.6289,-4.6289,-4.6289,-4.6289,-4.6289,-4.6289,-4.6289,-4.6289,-4.6289,-4.6289,-4.6289,-4.6289,-4.6289,-4.6289,-4.6289,-4.6289,-2.1018,0.0,0.0,0.0,0.0,0.0,0.0,0.0,0.0,0.0,0.0,0.0,0.0,0.0,0.0,0.0,0.0,0.0,0.0,0.0,0.0,0.0,0.0,0.0,0.0,0.0,0.0,0.0,0.0,0.0,-3.3087,-3.4013,-3.5094,-3.6394,-3.6958,-3.7781,-3.8931,-3.9161,-3.9585,-4.0162,-4.0392,-4.0508,-4.0508,-4.0508,-4.0854,-4.1431,-4.1431,-4.1816,-4.2431,-4.2431,-4.2624,-4.297,-4.3657,-4.441,-4.5274,-4.5764,-4.6057,-4.615,-4.6143,-4.6198,-4.624,-4.6192,-4.6198,-4.6198,-4.6198,-4.6207,-4.625,-4.625,-4.6289,-4.6289,-4.6289,-4.6289,-4.6289,-4.6289,-4.6289,-4.6289,-4.6289,-4.6289,-4.6289,-4.6289,-4.6289,-4.6289,-4.6289,-4.6289,-4.6289,-4.6289,-4.6289,-4.6289,-4.6289,-4.6289,-4.6289,-4.6289,-4.6289,-4.6289,-4.6289,-4.6289,-4.6289,-4.6289,-4.6289,-4.6289,-4.6289,-4.6289,-4.6289,-4.6289,-4.6289,-4.6289,-4.6289,-4.6289,-4.6289,-4.6289,-4.6289,-4.6289,0.0,0.0,0.0,-2.1329,0.0,0.0,0.0,0.0,-2.2568,0.0,0.0,0.0,0.0,0.0,0.0,-2.466,0.0,0.0,0.0,0.0,0.0,0.0,0.0,0.0,0.0,0.0,0.0,0.0,0.0,0.0,-3.0501,-3.1443,-3.281,-3.4715,-3.5779,-3.6884,-3.8046,-3.8892,-3.9315,-3.9354,-4.0123,-4.0508,-4.0508,-4.0508,-4.0508,-4.0546,-4.0546,-4.0639,-4.0793,-4.0793,-4.1309,-4.2133,-4.2302,-4.2909,-4.388,-4.5488,-4.6173,-4.6286,-4.6293,-4.621,-4.6105,-4.5968,-4.5888,-4.5888,-4.5888,-4.6006,-4.6094,-4.6094,-4.6211,-4.6289,-4.6289,-4.6289,-4.6289,-4.6289,-4.6289,-4.6289,-4.6289,-4.6289,-4.6289,-4.6289,-4.6289,-4.6289,-4.6289,-4.6289,-4.6289,-4.6289,-4.6289,-4.6289,-4.6289,-4.6289,-4.6289,-4.6289,-4.6289,-4.6289,-4.6289,-4.6289,-4.6289,-4.6289,-4.6289,-4.6289,-4.6289,-4.6289,-4.6289,-4.6289,-4.6289,-4.6289,-4.6289,-4.6289,-4.6289,-4.6289,-4.6289,-4.6289,0.0,0.0,-2.4696,-2.1868,0.0,0.0,0.0,0.0,0.0,0.0,0.0,0.0,0.0,0.0,0.0,-2.3694,0.0,0.0,0.0,0.0,0.0,0.0,0.0,0.0,0.0,0.0,0.0,0.0,-2.645,0.0,0.0,-3.057,-3.1873,-3.3771,-3.4905,-3.6042,-3.7123,-3.743,-3.7853,-3.843,-3.9277,-3.97,-3.97,-4.0239,-4.0508,-4.0508,-4.06,-4.0677,-4.0693,-4.073,-4.1016,-4.1424,-4.2056,-4.2508,-4.3008,-4.4742,-4.5402,-4.5501,-4.5996,-4.6142,-4.61,-4.592,-4.5887,-4.5926,-4.6003,-4.6048,-4.6105,-4.62,-4.6289,-4.6289,-4.6289,-4.6289,-4.6289,-4.6289,-4.6289,-4.6289,-4.6289,-4.6289,-4.6289,-4.6289,-4.6289,-4.6289,-4.6289,-4.6289,-4.6289,-4.6289,-4.6289,-4.6289,-4.6289,-4.6289,-4.6289,-4.6289,-4.6289,-4.6289,-4.6289,-4.6289,-4.6289,-4.6289,-4.6289,-4.6289,-4.6289,-4.6289,-4.6289,-4.6289,-4.6289,-4.6289,-4.6289,-4.6289,-4.6289,-4.6289,-4.6289,-4.6289,-2.4304,-2.4933,0.0,-2.3058,-2.3365,0.0,-2.1181,0.0,0.0,0.0,0.0,0.0,0.0,0.0,0.0,-2.441,-2.3451,0.0,0.0,0.0,0.0,0.0,0.0,0.0,0.0,0.0,-2.442,-2.5298,-2.475,0.0,0.0,0.0,-3.0602,-3.2596,-3.3951,-3.5146,-3.6262,-3.6584,-3.6969,-3.7546,-3.843,-3.8854,-3.8854,-3.9715,-4.01,-4.0138,-4.0562,-4.0754,-4.0808,-4.0846,-4.0965,-4.1131,-4.1707,-4.1955,-4.2198,-4.3888,-4.4711,-4.5,-4.5466,-4.5758,-4.5988,-4.5834,-4.5834,-4.5873,-4.5988,-4.6026,-4.6105,-4.6208,-4.6264,-4.6289,-4.6289,-4.6289,-4.6289,-4.6289,-4.6289,-4.6289,-4.6289,-4.6289,-4.6289,-4.6289,-4.6289,-4.6289,-4.6289,-4.6289,-4.6289,-4.6289,-4.6289,-4.6289,-4.6289,-4.6289,-4.6289,-4.6289,-4.6289,-4.6289,-4.6289,-4.6289,-4.6289,-4.6289,-4.6289,-4.6289,-4.6289,-4.6289,-4.6289,-4.6289,-4.6289,-4.6289,-4.6289,-4.6289,-4.6289,-4.6289,-4.6289,-4.6289]}]]